GFSGL_250_spd_000.txt.gz
Wind_Speed
9 8 5 6 3 3 3 4 2 2 6 12 19 23 38 50 59 55 52 51 45 46 44 44 45 47 47 46 44 47 45 40 38 42 46 49 50 54 56 56 56 57 62
8 5 5 6 1 7 3 3 5 2 1 7 16 21 32 42 51 53 53 52 48 47 47 48 49 51 52 54 53 51 49 48 48 50 52 52 53 55 56 58 64 69 72
9 10 12 6 4 5 8 5 3 3 4 6 8 14 28 37 42 50 50 53 54 54 51 52 53 54 55 55 57 53 55 55 57 59 60 61 61 62 65 70 73 76 78
11 10 7 17 9 3 4 8 8 10 10 9 11 13 17 27 38 47 50 50 52 54 56 59 56 53 54 56 58 58 60 60 63 64 66 71 72 72 76 77 77 78 80
15 11 9 6 6 3 2 9 12 13 12 11 14 16 19 23 27 33 40 45 47 48 48 50 50 49 51 55 60 63 65 66 66 70 73 77 80 80 79 77 80 84 83
25 23 19 15 13 9 11 10 10 10 15 18 18 18 19 25 29 32 36 41 42 41 43 47 50 52 56 58 61 65 67 69 71 75 77 79 77 78 82 84 83 79 77
31 30 29 27 22 21 19 18 19 18 21 21 22 27 29 30 31 33 37 41 45 47 50 54 57 60 63 65 67 69 71 74 75 76 77 80 82 83 82 81 78 81 81
28 32 33 30 28 30 29 28 26 28 25 27 26 27 31 34 37 40 43 44 45 48 53 57 61 64 66 69 71 72 75 77 78 79 79 80 80 83 82 83 85 82 82
23 29 30 28 25 28 31 31 33 34 34 29 31 36 35 34 37 39 43 46 49 53 55 58 62 66 70 73 76 80 80 81 83 85 89 91 89 84 84 81 79 77 77
23 23 24 27 27 31 32 31 32 34 35 36 35 38 43 44 44 44 49 51 53 55 56 60 63 67 72 75 78 80 81 83 86 87 87 89 85 84 83 83 84 85 82
25 27 30 31 35 39 38 40 40 42 40 41 44 47 45 48 51 54 54 56 59 60 63 65 68 70 74 76 80 81 84 89 84 85 88 85 84 85 86 88 91 89 93
31 32 33 37 38 39 42 44 48 51 52 54 57 57 56 56 57 59 62 62 62 62 63 65 68 71 70 71 75 75 79 81 82 80 80 77 80 84 85 89 94 93 91
20 23 27 30 31 32 33 35 38 43 49 57 63 65 67 68 69 69 66 66 66 67 69 71 72 70 73 74 74 74 76 82 82 78 82 84 86 88 91 91 95 100 101
31 35 35 36 39 40 42 45 47 50 50 52 53 53 57 60 62 63 66 67 67 67 68 67 68 71 75 77 77 78 79 78 80 84 85 86 88 92 92 97 100 99 100
39 41 43 44 47 50 51 53 56 58 58 59 59 56 53 55 56 57 59 62 63 65 66 68 70 72 74 76 78 79 82 84 86 88 88 92 95 97 97 98 100 107 113
46 49 51 53 55 56 56 58 61 62 61 62 59 57 57 57 57 57 59 61 63 66 68 71 74 79 83 86 89 90 91 94 96 100 102 105 107 110 113 116 121 125 127
55 56 58 59 60 62 62 64 65 66 64 62 60 60 59 57 57 59 61 62 64 67 70 74 78 81 86 92 98 103 105 110 113 117 120 121 122 124 125 124 122 120 119
61 63 64 65 65 66 66 67 67 69 65 63 61 61 60 59 59 61 63 65 66 70 73 76 75 78 79 82 86 89 92 95 99 104 109 113 115 116 117 117 118 118 119
68 67 67 68 68 69 70 71 72 69 66 63 64 64 63 62 63 65 67 69 72 75 77 77 78 80 81 82 85 87 91 94 97 100 102 103 105 106 107 108 110 111 114
70 71 73 74 73 72 74 73 71 68 65 66 66 65 62 64 66 68 71 74 76 76 78 80 82 88 89 91 92 93 95 98 102 105 106 107 108 109 111 112 111 110 111
76 76 77 74 71 72 72 72 70 67 66 66 64 64 65 67 70 73 75 77 79 82 86 90 92 91 93 95 98 101 103 105 106 104 100 95 91 90 88 86 84 84 84
75 75 75 74 73 73 72 71 68 68 67 66 66 68 70 72 74 75 78 82 86 90 94 95 94 96 97 101 103 102 95 88 85 82 79 76 75 73 71 70 69 69 69
73 70 71 74 71 70 71 69 69 66 66 67 69 72 74 76 79 82 86 89 92 92 92 93 97 100 97 87 80 78 75 72 69 68 66 65 63 61 60 60 59 60 60
68 68 68 68 69 68 67 66 66 66 68 70 74 77 80 83 85 90 92 92 92 92 95 99 94 82 76 70 68 66 64 63 61 59 57 54 52 50 49 48 48 48 48
66 66 64 64 64 64 66 66 68 70 73 77 79 83 86 89 92 92 91 92 94 98 96 84 77 71 67 64 62 60 58 56 53 51 49 47 45 43 40 38 38 38 38
59 59 60 62 63 66 67 69 72 75 79 82 85 88 90 91 90 91 94 97 98 87 79 73 68 64 61 60 57 54 50 48 46 45 42 39 38 36 33 31 31 32 33

GFSGL_250_spd_003.txt.gz
Wind_Speed
13 8 10 9 8 8 7 8 7 3 2 4 18 20 31 46 57 57 56 51 48 44 42 44 44 47 48 46 44 44 44 47 46 48 45 44 44 45 47 47 50 53 56
15 9 9 7 10 10 11 6 6 7 5 1 11 17 23 38 50 55 54 54 53 50 47 45 48 47 47 50 50 50 51 51 53 53 54 55 54 55 57 59 61 63 65
20 13 15 14 11 10 10 8 5 5 6 6 6 9 16 29 39 49 54 53 53 55 52 49 49 51 51 52 52 53 56 58 61 62 62 60 60 62 62 64 65 66 68
16 16 16 16 19 10 8 10 10 9 10 10 8 7 12 19 30 40 45 52 56 57 58 58 58 57 58 57 55 53 56 61 62 63 65 64 65 67 69 70 71 72 72
15 17 14 14 15 14 10 7 10 13 15 12 12 12 10 9 19 39 42 46 53 57 56 58 60 61 60 61 63 63 57 57 62 63 67 70 73 74 76 76 78 79 79
23 23 21 16 14 11 12 12 14 13 11 8 15 19 16 16 18 21 33 46 49 54 57 58 59 60 60 62 63 64 65 64 65 68 71 73 76 79 80 80 81 81 83
28 25 30 29 25 24 22 21 20 19 20 20 20 22 22 27 27 27 30 32 37 45 54 60 62 63 64 64 64 65 67 69 70 72 73 75 78 81 82 82 85 87 89
27 24 29 34 33 32 29 29 26 26 27 29 28 27 28 27 26 31 37 40 41 42 45 48 51 56 58 61 64 67 69 71 75 78 79 80 81 84 89 91 90 90 89
19 24 24 29 32 35 33 34 30 27 28 29 30 35 33 33 37 38 39 41 45 48 51 54 57 60 61 62 66 70 74 77 79 81 83 86 87 88 89 90 94 96 99
18 18 21 26 28 31 32 32 32 34 32 32 34 35 34 37 42 47 49 49 47 51 54 57 61 63 64 67 70 73 77 80 82 86 89 92 94 94 96 94 93 92 92
24 23 25 26 27 29 31 34 37 39 39 40 41 45 47 49 49 50 49 54 59 62 63 64 66 69 70 73 76 78 81 83 87 90 90 92 92 94 91 91 93 93 89
24 26 27 30 32 30 29 30 32 35 37 39 41 42 44 48 53 58 63 65 67 65 68 72 73 75 76 77 80 81 84 85 87 90 91 93 95 95 95 95 94 93 96
30 30 29 31 29 33 35 37 38 37 38 39 38 40 42 41 44 49 55 61 67 73 77 80 80 81 83 84 85 86 86 87 88 89 91 93 94 98 95 96 97 97 97
35 37 39 39 41 43 44 43 44 45 44 46 47 47 48 50 52 54 55 55 57 60 64 69 75 78 80 83 86 87 85 84 84 85 87 89 90 93 97 97 97 98 99
44 44 46 47 49 50 52 52 51 51 52 56 56 57 59 60 62 63 63 59 57 58 60 63 67 70 73 76 79 82 83 85 87 88 90 92 92 96 100 102 105 105 104
52 52 52 51 53 55 57 57 57 59 61 61 62 64 67 68 69 68 66 63 62 62 63 63 65 67 71 73 75 78 81 83 84 87 91 95 99 103 108 113 117 117 118
59 58 57 59 61 62 63 64 64 66 68 67 68 72 73 73 70 69 66 65 64 66 66 65 66 68 70 72 75 78 82 86 90 94 96 98 98 100 103 106 107 111 114
64 65 65 66 67 69 69 69 70 72 73 74 76 77 74 72 71 71 67 66 67 67 66 66 68 69 72 76 78 82 85 90 94 96 96 98 100 102 103 104 105 108 111
69 69 70 70 71 72 74 75 76 79 81 79 79 77 75 73 72 69 68 68 69 69 69 70 73 76 79 82 83 84 87 90 94 96 97 99 99 100 101 103 103 104 106
76 76 76 77 77 77 78 79 80 81 82 77 76 75 75 74 72 70 70 72 72 72 72 75 81 84 87 88 89 92 94 97 100 98 99 101 102 102 100 98 97 95 94
76 76 76 78 78 80 80 78 77 76 78 76 77 76 73 72 72 72 76 76 75 78 81 83 84 87 91 94 97 98 97 98 99 99 97 91 87 85 83 80 78 75 74
78 79 78 79 79 80 79 77 76 74 74 72 70 70 72 73 74 75 76 77 81 86 88 90 92 94 95 96 96 96 95 90 83 78 76 74 72 71 70 68 66 64 63
70 73 76 77 76 74 72 72 69 69 68 70 71 71 72 74 76 76 79 83 88 91 93 96 96 96 96 95 94 84 75 73 70 67 66 65 64 62 59 56 53 51 50
66 65 65 66 66 66 64 63 62 65 68 69 71 73 75 76 79 83 85 90 93 95 95 96 96 95 94 82 73 70 66 63 60 58 56 54 52 51 49 47 44 42 41
56 57 58 60 60 59 58 60 62 63 65 69 72 75 78 81 84 88 92 93 94 95 95 95 93 83 74 70 64 60 56 52 50 48 46 46 46 46 44 41 39 37 36
49 52 51 53 56 57 59 61 65 69 72 75 76 79 83 86 90 92 91 92 93 94 92 81 74 69 65 60 56 53 50 48 45 42 41 41 41 40 38 35 33 32 30

GFSGL_250_spd_006.txt.gz
Wind_Speed
24 28 27 14 17 16 15 15 15 14 12 8 10 16 22 27 34 51 52 51 47 46 47 46 44 44 45 46 42 43 44 43 45 44 46 46 47 51 50 49 49 50 51
26 28 22 18 17 18 14 14 14 13 12 12 8 7 13 19 26 34 52 53 50 49 47 48 47 45 45 45 47 48 49 49 50 50 50 53 54 56 58 59 59 61 61
25 27 24 20 19 22 16 12 11 13 13 13 11 9 11 15 20 27 39 48 49 50 53 52 51 50 46 47 50 51 53 56 57 58 57 58 60 61 62 63 64 66 67
26 25 23 21 18 22 19 18 14 14 13 13 14 11 8 10 15 19 31 41 45 50 54 55 55 55 54 53 55 57 59 59 60 61 63 64 64 66 68 70 71 72 70
27 26 22 21 18 18 18 18 11 8 10 10 12 11 11 10 9 12 22 38 44 47 48 53 56 57 59 59 60 62 63 64 63 64 62 65 69 70 72 75 76 76 75
26 28 29 23 21 17 13 13 15 14 16 16 16 13 15 19 18 15 16 22 34 46 51 54 58 63 64 63 65 68 70 70 70 71 73 77 79 80 83 82 80 78 79
26 27 26 24 27 30 24 23 25 24 22 21 22 24 24 25 24 26 26 25 28 34 43 49 52 58 66 69 69 70 72 73 75 77 78 78 79 78 77 79 80 81 83
30 28 26 25 24 31 34 34 33 31 29 27 23 25 27 28 29 29 31 32 35 38 41 44 48 52 56 61 65 69 71 71 72 74 74 76 78 80 81 83 86 88 89
19 18 18 17 20 19 23 28 30 30 32 31 30 31 30 29 30 31 33 37 41 43 44 47 50 54 57 59 62 64 67 69 71 73 75 77 80 83 86 87 89 89 91
19 18 18 16 20 23 24 25 26 28 29 31 34 36 37 37 38 38 40 42 46 48 51 55 58 60 60 62 66 68 70 72 75 77 79 82 84 85 88 90 94 96 97
22 22 24 27 26 25 26 26 27 29 31 33 35 35 35 35 37 40 40 42 43 45 50 57 64 67 70 72 74 76 77 79 81 83 85 87 89 90 91 93 95 97 100
27 25 28 29 30 31 31 31 29 30 33 35 37 39 39 40 41 41 41 43 45 46 49 51 55 59 66 73 79 85 86 89 91 91 92 93 94 96 98 100 101 100 100
37 36 33 32 33 34 34 36 38 42 43 44 43 45 47 47 49 50 50 50 51 53 56 59 62 63 65 68 73 77 82 89 93 93 94 97 98 99 98 98 99 99 99
47 44 42 41 41 42 44 45 47 50 52 53 53 53 52 53 54 56 58 59 59 61 65 66 65 65 67 68 68 69 71 75 80 84 86 88 90 93 94 94 96 98 99
55 55 54 52 51 52 53 55 56 56 56 58 59 59 59 61 63 63 63 64 68 70 74 72 70 70 69 67 66 68 71 73 76 79 82 85 87 90 91 93 96 99 99
61 62 63 62 61 61 60 60 60 61 62 64 66 67 67 66 65 69 72 73 75 77 76 74 74 73 69 68 68 71 73 74 75 78 81 83 86 90 92 94 98 101 103
68 69 68 67 66 65 66 66 66 67 68 70 72 72 72 74 75 76 77 76 77 76 76 76 74 73 70 70 73 75 77 77 77 79 82 86 90 93 96 99 102 106 109
79 74 72 72 69 68 68 69 69 70 72 74 77 77 77 76 78 79 79 77 76 76 77 75 74 72 72 74 75 77 79 80 83 86 90 93 96 97 100 102 104 108 111
75 75 75 72 72 73 73 74 77 77 76 77 77 78 78 79 79 80 80 78 76 77 76 75 73 74 75 76 78 81 84 88 91 91 93 94 96 96 97 97 98 98 99
78 76 75 78 79 77 74 76 77 75 74 77 79 78 79 81 80 78 76 76 75 74 74 75 77 79 79 82 84 89 93 94 94 94 94 94 93 93 92 90 88 86 84
66 66 61 63 66 64 65 69 71 71 73 75 77 79 78 76 74 72 71 73 73 72 73 77 80 83 88 90 93 96 96 96 95 95 94 92 88 82 79 79 77 75 72
67 68 64 64 65 69 72 72 73 71 71 72 72 70 68 68 69 70 71 73 73 75 77 78 83 87 92 95 96 96 97 96 92 85 78 75 74 71 69 67 65 63 61
61 61 67 71 71 69 67 66 67 67 66 64 62 62 64 65 66 68 71 75 78 79 81 85 89 93 93 93 95 93 86 77 73 70 66 64 62 60 59 57 54 52 51
59 56 55 56 57 57 57 56 55 54 54 57 59 59 62 65 68 71 73 78 81 84 89 92 93 92 93 91 83 74 71 65 62 59 57 56 55 53 51 48 47 46 45
58 53 49 49 50 50 50 50 50 53 55 57 60 63 66 69 72 75 77 81 86 89 92 91 90 91 85 73 69 64 61 59 56 52 49 47 45 44 43 43 43 41 39
51 49 46 44 43 45 47 50 52 54 56 60 65 68 71 74 77 80 83 87 90 90 90 90 89 81 70 65 60 57 54 52 49 45 43 41 38 36 36 38 38 37 34

GFSGL_250_spd_009.txt.gz
Wind_Speed
28 23 26 28 25 26 19 17 17 17 16 16 18 16 12 16 25 22 33 43 45 46 46 45 47 44 44 45 44 46 46 48 50 52 54 52 47 46 46 47 49 51 53
28 24 25 28 23 22 22 20 18 15 16 13 14 13 9 10 14 23 24 36 46 46 48 43 43 45 44 44 46 48 51 51 51 50 55 54 51 51 54 56 55 57 58
26 25 23 26 24 20 21 18 19 19 15 15 14 11 8 8 7 10 19 25 36 44 47 44 45 47 47 47 46 45 47 50 52 52 54 56 58 60 62 64 65 67 69
21 23 23 22 21 18 21 21 19 14 11 11 14 13 10 9 8 8 11 19 28 36 44 45 45 50 50 52 51 53 53 53 53 56 59 63 65 68 71 72 73 74 76
17 17 17 19 22 21 20 18 21 17 12 11 14 12 10 12 12 12 11 13 20 30 37 43 46 48 51 55 56 57 57 58 61 63 65 66 68 70 72 74 75 77 78
17 19 19 21 23 21 20 21 20 17 15 17 17 18 19 18 17 17 16 15 16 22 33 41 45 47 51 55 58 59 61 64 66 69 70 72 75 77 77 78 80 84 86
20 20 23 25 23 22 21 25 28 25 26 27 26 26 20 21 22 24 22 21 21 23 25 30 37 45 50 55 59 62 64 68 71 73 75 77 79 81 82 83 84 84 83
17 17 21 24 21 20 23 25 26 27 30 31 29 26 26 26 25 25 25 25 26 28 29 31 35 39 43 47 53 57 61 65 69 72 76 79 81 81 81 82 81 81 81
18 18 20 17 17 19 21 22 23 24 24 27 27 27 28 28 31 32 33 33 33 34 35 36 39 42 45 49 53 55 58 62 66 68 71 73 76 79 80 83 85 86 87
23 22 20 19 20 24 27 26 25 26 28 28 28 31 33 34 33 34 33 35 37 39 40 42 44 47 51 54 58 60 64 68 72 74 78 80 82 84 85 86 88 89 92
25 26 27 27 26 27 28 29 31 32 34 34 33 32 34 35 36 38 39 40 42 44 44 45 46 47 49 51 53 55 58 63 68 71 74 80 85 89 91 94 96 98 99
34 32 31 34 34 34 35 34 34 35 36 37 38 41 45 46 46 46 47 48 50 50 51 52 55 56 56 58 61 64 66 67 70 74 75 77 79 83 86 87 90 93 97
43 42 41 41 42 42 43 44 43 44 45 45 47 50 52 55 57 57 58 58 58 57 58 60 62 63 64 66 67 70 73 74 74 74 76 80 82 83 84 87 89 91 93
49 51 50 49 49 49 49 51 52 54 56 58 59 60 61 61 62 62 62 64 64 64 64 64 64 66 70 72 73 75 75 75 75 75 78 80 82 84 85 87 89 91 94
56 57 53 54 55 53 55 58 59 63 67 68 67 68 67 65 65 65 66 66 67 69 70 72 72 72 73 76 77 76 76 77 78 78 78 78 78 81 84 86 88 90 91
61 62 61 60 59 59 60 66 73 76 77 76 72 71 71 70 70 70 69 71 73 75 75 75 76 77 77 80 79 79 78 79 78 78 78 79 81 83 85 88 90 91 93
66 73 72 68 67 74 84 85 84 82 77 75 72 72 73 74 74 74 74 77 79 79 78 78 78 80 81 80 78 78 80 79 79 79 80 83 85 87 90 92 95 98 101
79 79 78 79 85 88 87 88 81 76 76 76 76 74 73 74 75 77 79 76 75 77 78 79 81 79 77 79 79 78 78 79 79 83 86 89 92 95 97 99 101 102 103
84 85 85 87 91 88 82 77 70 66 67 67 66 66 68 72 75 73 74 75 76 77 77 77 75 75 75 76 77 78 79 82 85 88 92 95 97 98 98 97 96 95 94
88 90 90 87 76 72 65 68 70 67 64 59 58 60 62 65 69 71 72 73 72 71 70 71 72 72 73 75 78 80 83 86 90 93 93 94 94 91 86 81 78 76 75
90 84 71 67 61 67 71 62 64 64 67 69 70 70 70 70 68 65 63 63 63 65 68 70 72 73 74 76 80 84 87 90 90 90 89 85 79 75 73 70 67 65 64
73 65 59 61 66 59 59 60 59 60 58 59 61 61 59 57 56 56 58 60 63 65 68 70 72 74 77 81 85 88 89 88 89 85 75 71 68 65 64 61 59 56 55
58 57 59 58 62 64 66 64 60 56 52 50 50 51 51 52 54 56 59 61 63 65 67 70 74 79 82 85 87 88 88 86 80 69 66 64 61 59 57 55 53 49 47
62 64 67 65 64 62 60 58 55 53 50 49 48 49 50 53 56 59 63 65 66 68 71 75 79 82 85 87 88 88 83 74 65 62 61 59 57 55 52 49 46 43 41
66 66 64 56 46 46 51 51 50 48 46 47 50 51 53 56 59 62 66 69 71 74 77 80 85 87 87 87 86 79 67 60 59 57 54 52 51 48 45 42 40 38 36
63 62 48 44 43 44 44 45 46 46 47 49 51 55 58 61 64 66 69 73 78 81 84 86 86 86 87 82 70 59 55 52 51 49 47 47 47 44 42 39 37 35 33

GFSGL_250_spd_012.txt.gz
Wind_Speed
27 28 26 25 22 20 23 22 19 20 14 20 19 22 20 13 9 13 16 16 25 35 42 41 44 43 46 48 48 48 47 47 49 51 50 48 46 49 51 53 55 53 51
21 24 24 23 22 21 22 19 17 18 17 20 19 19 19 16 10 8 11 18 18 27 34 41 42 44 40 42 45 43 42 43 44 47 48 48 51 53 54 55 58 60 59
18 16 16 20 20 21 20 18 18 15 15 14 15 16 15 15 15 10 8 11 15 20 27 33 37 39 40 38 42 42 43 45 46 49 53 55 55 55 57 59 60 62 64
14 11 12 15 18 20 19 19 19 17 15 12 12 11 12 13 13 13 12 8 10 15 22 28 33 37 39 43 46 46 43 43 44 46 49 53 56 58 60 63 67 68 68
16 12 11 13 16 19 20 20 19 18 21 17 10 14 14 15 13 14 14 13 9 11 19 27 32 36 42 45 48 51 52 53 53 55 58 61 62 61 62 65 69 72 75
15 14 13 12 15 20 19 18 19 20 21 20 18 20 22 21 17 17 17 16 15 13 13 17 26 35 41 45 48 53 56 57 60 62 64 66 67 68 69 70 75 78 80
17 15 11 14 16 17 17 18 19 21 24 24 26 29 26 25 22 20 18 17 17 18 19 20 22 25 30 36 43 50 54 57 60 64 66 69 71 73 76 79 81 80 79
14 14 14 15 15 15 15 14 15 17 19 19 19 20 21 23 23 21 21 21 22 23 25 27 28 30 32 36 40 43 47 51 55 59 62 66 69 71 71 74 76 80 82
18 18 19 18 18 18 19 19 20 20 22 22 23 23 24 25 26 27 27 27 27 27 28 30 32 36 39 43 46 48 50 53 56 59 61 64 67 71 74 76 79 82 83
20 21 23 25 28 27 25 25 26 28 27 29 30 31 31 29 29 29 30 32 33 33 36 38 39 41 43 45 48 50 53 56 58 61 64 67 68 70 74 76 78 79 83
28 29 29 30 31 31 32 32 32 33 33 34 36 36 37 38 37 38 41 43 47 47 47 48 50 52 52 52 54 57 60 61 63 65 67 70 74 78 80 83 85 87 88
35 38 38 37 38 37 37 39 40 40 40 40 42 42 42 43 46 50 51 53 55 57 59 59 60 60 61 61 62 64 66 68 70 72 73 76 79 82 84 86 88 89 89
41 45 46 47 46 49 49 49 46 46 47 49 48 49 50 52 55 60 66 63 63 66 66 65 65 66 67 69 70 70 69 70 72 74 77 79 82 84 85 87 86 86 88
47 48 48 44 49 52 53 55 56 55 61 61 59 58 58 65 74 74 72 72 72 70 71 70 71 71 71 72 72 73 75 77 79 79 81 83 84 85 87 86 87 90 92
55 57 52 57 58 56 60 63 63 69 68 65 65 67 73 80 82 81 79 77 76 73 72 72 72 72 73 76 77 80 82 83 81 81 84 86 87 86 86 88 89 90 92
51 55 60 66 71 71 71 70 70 70 74 74 79 82 84 86 87 80 74 73 72 73 74 73 74 75 77 79 81 83 82 82 84 83 83 82 83 84 85 86 89 91 93
64 67 70 74 75 75 76 78 79 78 82 85 88 89 85 79 71 68 67 67 70 75 72 72 75 79 79 80 78 79 82 81 81 79 80 80 80 83 86 89 93 96 100
73 75 78 79 81 81 82 82 83 87 90 89 84 78 68 62 65 68 67 64 62 62 63 64 66 68 71 75 77 77 76 76 77 76 78 80 83 87 91 95 98 100 101
80 82 84 84 86 86 88 88 89 86 84 77 70 65 66 68 68 64 65 63 62 65 66 68 69 69 69 69 71 71 72 73 74 77 80 83 87 91 94 96 95 92 86
87 87 89 91 90 92 94 91 87 81 74 64 64 69 63 64 64 60 59 59 62 65 66 64 63 63 62 64 66 67 70 73 77 80 83 86 88 90 89 85 77 71 70
93 94 95 96 96 94 90 82 73 62 61 66 69 67 65 67 64 59 57 56 54 54 55 55 58 60 62 64 66 69 73 76 79 82 84 84 84 81 74 67 64 61 59
97 98 98 97 93 83 76 63 58 58 64 72 74 73 70 63 59 56 53 52 52 52 55 56 57 59 62 66 70 73 75 79 82 82 81 79 72 63 59 56 55 55 53
101 98 92 84 80 73 65 65 61 64 70 72 63 55 52 53 54 52 51 52 52 54 57 58 60 63 66 69 73 77 80 80 82 81 72 63 58 55 51 50 50 49 48
91 86 81 77 72 71 71 67 64 65 66 59 56 53 50 49 49 50 52 54 56 57 60 63 65 67 70 75 78 79 79 82 79 67 60 56 50 48 48 49 49 48 47
83 79 76 75 76 75 74 70 64 61 59 56 54 50 47 49 51 53 55 57 59 61 62 65 69 74 77 78 78 79 81 79 64 58 52 50 48 47 47 47 47 46 44
75 75 75 74 71 66 63 59 59 53 54 54 51 49 51 53 55 56 58 60 62 65 67 71 74 76 77 78 79 81 81 63 56 52 50 47 47 47 48 47 45 44 43

GFSGL_250_spd_015.txt.gz
Wind_Speed
25 27 25 23 22 17 14 15 16 13 12 15 17 19 19 19 15 11 5 10 9 16 26 32 39 45 42 43 42 43 43 46 48 50 50 50 49 51 52 51 51 51 48
24 22 18 16 14 12 11 11 13 13 12 15 16 17 18 15 16 14 10 6 10 8 18 29 36 37 40 43 42 43 45 49 51 50 50 49 50 51 50 50 50 50 53
17 15 11 11 12 10 12 11 14 15 13 12 14 13 13 12 13 13 15 11 5 7 8 16 22 30 36 38 40 41 39 41 45 48 48 47 47 48 52 53 56 58 59
13 15 17 14 12 12 13 14 14 14 13 13 14 10 11 11 13 15 13 12 9 6 6 10 15 20 27 31 32 34 39 41 43 42 42 46 50 51 54 57 59 62 64
14 16 15 13 13 13 13 12 12 12 13 14 14 15 14 17 14 14 14 14 11 6 7 13 20 27 26 28 31 35 38 44 48 49 49 48 50 52 52 53 56 62 62
13 15 14 13 14 13 12 13 11 11 11 12 13 14 14 19 14 13 13 13 13 12 11 11 13 19 29 36 40 43 48 51 53 55 57 60 62 62 63 66 69 70 70
11 13 15 13 13 13 13 13 13 13 13 13 14 15 15 15 15 14 14 15 16 17 18 19 20 22 25 30 37 43 47 49 53 55 58 60 63 66 68 71 73 75 77
14 15 14 14 14 16 16 16 15 15 16 16 16 17 19 20 20 20 20 20 20 21 23 24 27 30 32 34 37 40 44 48 52 54 57 61 65 69 71 73 75 78 80
21 20 22 21 20 20 20 21 22 22 22 22 23 23 23 25 26 25 25 26 28 29 29 29 30 31 34 36 39 42 45 48 51 54 57 61 64 66 69 71 74 76 79
29 27 26 24 25 26 28 28 26 28 29 32 32 30 30 32 33 33 32 33 34 37 39 42 44 46 47 49 50 53 55 56 57 58 61 63 66 68 70 72 74 76 78
33 35 31 27 30 30 33 35 35 33 33 36 35 36 38 39 41 45 46 44 43 44 44 48 53 54 56 60 63 65 65 66 67 68 68 69 71 72 75 77 80 83 86
38 36 35 34 36 37 38 40 35 37 38 40 44 49 51 52 55 56 57 54 55 57 58 61 65 66 66 66 66 68 72 73 73 74 75 77 78 80 82 82 82 84 87
39 38 39 40 42 42 46 48 48 51 52 54 59 60 59 61 64 66 66 64 67 67 70 72 76 78 77 77 75 75 75 76 77 79 80 80 81 82 84 85 87 90 92
44 45 47 47 47 51 51 48 49 54 56 62 65 67 68 71 72 72 73 72 74 78 81 83 81 80 76 75 76 76 77 77 79 80 82 83 85 88 90 91 93 94 95
50 51 51 52 54 51 53 56 60 64 67 69 72 75 77 79 77 79 81 85 82 77 71 67 69 68 69 71 72 73 75 77 79 81 82 85 87 89 90 91 92 95 95
55 56 56 58 57 59 62 65 69 72 74 77 79 81 83 85 87 88 85 81 67 63 59 59 60 65 66 65 68 70 70 74 76 77 81 82 82 84 87 88 88 89 90
60 61 61 63 65 69 73 74 77 79 82 84 87 89 91 92 89 82 74 66 58 58 61 61 61 61 63 63 63 62 64 66 68 72 76 79 80 78 79 81 83 86 90
64 65 65 68 72 74 79 82 85 87 89 92 93 95 96 91 81 71 64 61 61 64 66 63 66 63 62 64 67 69 70 73 74 74 72 71 72 74 77 81 85 90 94
69 71 73 76 77 81 86 89 91 93 97 98 99 99 89 78 69 61 62 64 69 69 67 68 70 62 58 59 61 64 65 66 66 65 67 70 73 76 81 85 90 92 92
77 79 81 83 86 89 92 96 97 99 102 103 101 90 78 66 58 60 64 71 73 75 69 62 59 54 54 55 57 59 61 60 62 65 68 72 76 80 82 82 84 82 74
83 86 89 92 94 97 99 101 103 104 107 102 91 78 69 63 65 63 67 75 74 57 55 52 51 51 52 53 55 56 58 61 65 68 72 75 76 75 77 80 71 63 59
90 93 96 99 102 103 106 109 107 106 98 88 77 70 67 69 66 66 71 70 57 54 54 52 50 49 51 52 55 59 62 65 68 72 73 74 72 75 77 66 59 54 51
98 100 103 106 108 109 109 107 100 91 83 75 72 73 72 72 72 71 68 58 55 56 52 51 51 51 54 57 60 62 65 69 71 73 73 72 76 76 67 57 53 49 48
104 105 107 109 110 107 100 95 87 81 77 76 77 77 74 70 69 65 56 53 55 53 52 53 54 57 59 61 64 67 69 72 74 74 74 78 78 70 56 52 48 48 48
108 109 109 105 100 93 85 80 79 80 78 73 67 63 63 57 54 52 54 55 54 55 57 58 60 62 63 65 68 70 74 75 75 76 78 79 71 56 50 50 49 49 50
106 101 95 88 81 78 79 78 73 64 57 51 47 45 44 46 50 53 54 54 56 59 61 63 64 66 68 71 73 76 77 76 77 78 79 67 54 48 48 48 50 51 52

GFSGL_250_spd_018.txt.gz
Wind_Speed
16 15 19 19 16 9 8 9 7 9 9 10 8 10 12 12 13 11 7 7 16 19 21 24 29 32 31 36 40 42 44 44 43 44 49 50 50 51 49 49 48 49 52
12 17 20 19 12 8 7 9 7 10 9 8 8 10 11 8 8 9 12 7 6 11 9 16 22 28 25 28 37 41 40 45 46 43 45 50 52 53 53 54 56 56 56
10 13 14 14 12 10 9 10 10 11 10 8 9 11 8 5 6 8 11 11 7 3 8 9 13 15 21 28 32 37 42 43 40 39 42 46 51 53 52 53 53 54 55
9 8 14 12 12 11 11 10 9 9 7 7 11 10 9 11 11 11 7 7 10 5 8 6 8 8 12 16 17 26 34 36 38 40 42 43 46 49 52 55 57 54 53
3 6 10 8 10 11 11 11 8 8 9 9 11 11 12 13 14 13 13 10 7 6 7 11 14 15 22 20 27 30 30 35 37 39 43 46 49 51 51 51 52 55 57
3 5 8 10 9 7 8 9 9 9 10 9 8 9 10 10 11 12 13 15 16 14 13 13 16 18 23 25 34 37 39 42 44 45 51 54 58 59 61 62 61 62 64
9 8 10 13 11 11 8 8 9 8 9 11 11 10 10 11 13 14 15 16 17 18 20 21 23 24 26 29 32 37 46 49 53 55 57 59 62 66 66 67 68 69 72
13 15 17 16 17 15 12 11 10 11 11 12 13 14 14 14 16 21 21 21 23 24 26 27 28 30 32 35 38 41 43 46 50 55 61 64 67 70 72 74 75 76 78
19 20 23 25 23 22 21 18 18 19 19 19 18 18 18 19 21 26 29 30 30 31 34 38 40 40 41 43 44 46 48 50 51 53 55 58 59 63 66 67 69 72 75
25 26 29 30 30 31 30 27 25 25 26 28 27 26 24 29 32 36 37 38 40 42 45 47 48 50 54 53 54 55 57 59 60 63 65 67 69 71 73 75 76 78 79
30 30 34 38 37 37 36 34 34 33 33 36 34 36 43 44 44 45 47 49 50 53 56 57 58 59 61 62 64 67 68 70 70 71 71 73 75 77 79 81 84 85 86
39 40 40 40 40 40 40 40 40 40 40 43 39 39 44 49 53 54 57 60 62 64 67 68 70 70 71 69 71 76 77 81 83 82 83 86 84 84 86 86 86 88 90
44 44 43 45 44 47 47 45 44 45 48 47 49 48 54 57 57 60 64 67 71 74 76 77 78 77 78 76 84 85 82 88 89 92 87 85 84 85 86 88 88 89 91
44 45 47 50 50 49 51 52 51 53 55 56 56 60 63 65 67 69 73 77 80 82 84 85 81 76 74 71 66 61 59 62 65 67 70 72 75 77 79 81 83 85 87
52 53 55 55 56 54 55 56 58 59 61 62 63 66 69 72 76 78 81 83 87 88 90 85 77 68 63 56 53 53 57 58 58 63 67 70 72 72 76 78 78 80 83
58 61 60 58 59 58 59 61 63 65 65 66 69 72 75 79 82 86 88 91 93 94 91 79 68 61 60 56 56 59 61 60 61 62 64 69 69 69 71 73 77 80 83
62 61 62 61 62 63 63 64 66 69 70 74 77 79 83 86 89 93 95 98 96 92 82 68 60 59 60 61 65 65 66 66 66 64 62 62 67 70 74 78 79 78 79
62 62 63 65 66 68 69 72 75 76 79 82 84 87 90 93 97 99 102 99 94 80 70 59 58 61 65 67 71 73 61 57 59 58 59 60 62 64 66 69 71 73 76
64 65 67 69 72 75 77 79 80 82 86 88 91 94 96 99 102 104 101 94 79 68 64 59 61 67 70 69 69 56 54 54 57 56 57 60 61 63 65 66 70 75 79
68 71 73 75 77 80 82 84 86 89 92 95 97 100 103 105 105 101 93 82 71 65 63 65 66 66 68 70 58 55 55 55 55 56 57 58 60 62 66 69 74 78 78
71 73 75 78 82 85 87 90 93 96 98 101 103 105 107 105 101 90 81 74 69 68 69 67 67 68 67 58 54 56 56 54 55 55 56 59 63 66 69 72 75 76 76
77 79 82 85 87 90 93 96 99 101 104 107 108 108 105 97 86 79 74 74 74 72 72 70 66 59 54 53 54 54 55 55 56 59 61 64 67 70 72 73 75 75 77
85 87 90 92 95 97 100 102 105 107 108 109 106 98 89 82 78 78 76 74 70 69 70 62 53 50 50 53 56 57 58 60 62 64 66 68 71 73 74 75 74 74 72
93 95 97 99 101 103 104 106 108 108 104 97 89 83 79 77 72 65 59 58 54 53 54 52 52 52 55 56 58 60 62 64 67 69 70 73 74 76 77 75 71 72 62
97 99 100 102 104 106 107 105 100 94 87 82 78 74 66 57 52 50 48 47 46 47 50 53 55 57 59 61 63 65 67 69 71 73 75 77 79 79 77 74 72 68 56
101 102 103 104 104 99 95 90 84 80 78 72 65 57 54 52 51 51 51 52 52 53 55 57 59 62 64 67 68 70 72 74 76 79 80 81 82 80 77 74 68 61 56

GFSGL_250_spd_024.txt.gz
Wind_Speed
22 17 14 13 9 10 9 6 6 7 11 13 12 11 13 12 10 10 10 13 11 13 10 11 17 23 25 28 30 32 32 33 35 40 45 60 61 65 66 68 69 70 70
16 10 11 5 8 13 12 4 5 7 11 11 14 12 13 11 8 5 5 11 16 9 16 17 19 23 26 29 30 30 32 33 34 39 43 47 54 59 63 67 69 71 72
23 16 13 4 7 13 8 9 5 4 6 8 8 9 11 10 8 9 9 8 12 10 5 10 13 14 16 23 27 31 39 38 37 36 42 45 47 47 51 55 61 65 67
21 17 11 5 4 4 2 5 5 5 3 3 2 5 9 11 11 12 11 9 9 8 6 4 5 7 13 15 18 19 23 31 38 35 33 36 40 44 51 52 54 57 62
20 18 13 5 3 3 1 3 5 5 3 1 2 2 1 2 1 2 3 4 5 5 5 6 7 7 12 21 25 25 25 27 30 34 35 40 43 47 52 55 56 57 59
23 18 15 16 13 7 3 3 3 5 6 7 6 7 5 3 6 6 6 7 8 9 8 9 10 11 12 12 14 17 20 22 26 37 43 42 44 52 57 59 63 65 68
26 21 21 17 16 12 9 8 6 6 9 11 13 16 16 14 12 13 14 14 15 16 16 16 16 17 19 21 23 26 29 30 31 34 36 40 44 49 59 66 69 72 74
23 25 24 19 18 17 17 13 14 14 13 13 18 22 21 19 20 22 22 22 25 22 23 23 22 24 27 30 32 35 37 40 44 47 49 53 57 60 65 67 68 72 78
28 27 27 25 24 26 24 24 23 24 23 22 25 26 28 26 26 27 28 28 31 32 34 36 40 45 44 43 43 45 49 50 52 56 60 64 68 70 73 73 77 81 84
30 34 32 30 30 31 32 33 31 32 32 30 32 32 33 34 36 37 38 40 40 40 43 45 47 47 47 49 51 55 59 61 65 69 71 74 78 77 75 78 82 87 91
34 33 34 32 34 35 34 36 36 36 37 40 39 39 41 41 42 43 45 49 49 50 52 53 54 54 55 58 61 64 67 71 76 77 82 81 83 77 76 77 78 83 89
40 39 41 42 41 36 35 39 40 42 45 44 46 45 48 49 49 52 52 52 55 57 59 59 60 63 65 67 69 73 76 81 84 86 88 85 81 76 76 82 77 70 70
45 46 45 43 45 44 42 45 46 48 50 49 49 51 53 56 56 58 60 61 65 63 64 67 68 71 73 75 77 80 84 88 90 93 91 85 73 68 66 64 61 62 61
47 49 49 51 49 48 51 53 54 54 54 54 55 57 60 63 63 65 66 68 69 71 71 74 75 78 80 82 84 87 91 93 96 94 87 75 65 61 60 58 60 60 63
50 51 52 54 55 55 54 56 57 57 58 59 61 65 68 68 71 73 75 77 76 76 76 79 81 83 85 88 90 93 96 98 95 89 74 64 61 61 59 60 61 63 65
53 54 54 56 58 59 59 60 62 64 66 68 70 70 73 75 76 77 76 77 78 79 81 83 85 87 89 92 95 98 99 96 89 74 65 60 59 59 61 62 64 67 64
56 55 56 56 58 61 63 65 67 68 70 71 71 71 73 73 74 76 77 78 80 82 85 87 90 92 95 99 100 100 96 88 76 68 63 60 58 59 62 64 65 63 57
53 55 58 59 60 61 64 66 66 66 69 70 72 73 75 76 77 78 80 82 84 87 91 93 96 99 100 101 99 94 84 75 70 68 63 60 60 62 64 63 59 53 52
55 55 55 57 59 62 64 66 67 68 73 74 74 76 77 78 80 82 85 88 90 93 96 98 101 102 101 95 88 81 75 72 72 67 61 59 59 60 63 58 53 53 54
60 59 61 64 63 63 64 65 68 70 72 74 77 81 81 84 87 89 92 94 95 98 102 104 102 98 90 83 77 73 73 71 66 62 57 56 56 55 55 52 50 52 54
63 65 65 67 69 70 71 74 75 77 79 81 83 85 88 91 92 94 97 99 102 105 104 97 90 84 79 75 72 68 61 55 52 50 47 47 48 49 47 47 50 54 58
71 72 72 73 76 79 80 81 82 84 85 87 89 92 94 96 98 101 103 104 103 98 91 85 78 75 73 68 61 55 51 48 48 48 49 50 50 52 53 54 57 59 61
74 73 75 77 80 82 85 86 88 90 92 93 93 96 100 103 103 102 100 97 91 84 79 78 75 70 62 57 52 52 51 51 51 51 53 55 55 57 59 60 62 64 66
80 82 82 83 86 88 90 92 93 94 97 99 99 99 100 99 97 95 89 83 79 78 76 72 66 59 57 55 54 55 56 56 57 57 58 60 62 63 65 67 69 71 73
83 83 85 88 90 93 96 97 99 98 99 100 100 101 99 93 85 80 78 78 75 74 69 64 62 62 64 63 63 62 64 66 67 67 68 69 70 72 74 76 78 79 81
89 90 91 92 94 96 96 96 98 99 100 97 93 86 82 79 79 78 76 70 68 70 72 70 70 71 72 75 75 76 78 79 76 77 78 79 81 82 83 84 85 85 87

GFSGL_250_spd_027.txt.gz
Wind_Speed
22 23 24 22 19 14 11 12 13 13 13 13 14 15 15 17 18 16 7 6 12 16 8 11 6 3 5 18 19 27 29 28 30 31 32 38 44 52 60 64 64 66 66
26 21 19 15 11 8 5 6 10 12 10 12 14 13 13 14 15 15 11 11 11 12 7 9 10 11 14 18 22 25 29 31 32 33 35 37 42 48 55 63 68 72 75
26 19 19 13 9 7 6 5 6 7 6 5 7 8 9 11 9 9 12 13 13 10 7 6 10 14 16 18 22 25 30 33 35 37 38 39 42 43 46 52 62 72 74
32 27 26 17 15 12 8 8 6 3 5 2 2 3 6 8 10 11 12 8 5 6 7 9 8 9 12 16 17 18 19 20 25 26 28 35 42 45 48 49 51 55 63
29 26 21 21 17 16 10 11 11 6 6 5 3 2 1 1 2 4 5 5 5 4 4 4 5 7 9 11 15 19 22 26 22 24 28 31 33 37 41 44 47 50 54
24 22 22 23 21 19 15 15 14 10 11 9 7 6 8 10 9 7 7 7 9 10 10 10 10 11 11 10 12 15 18 20 23 24 27 29 32 37 45 51 57 60 61
33 26 25 25 26 22 22 22 20 14 14 13 13 13 13 14 16 16 16 19 21 21 21 20 18 19 21 21 21 23 27 30 33 35 36 38 39 42 45 49 53 58 62
35 33 31 30 31 27 27 25 22 19 20 20 17 16 17 18 19 20 22 25 23 25 28 31 30 32 33 35 40 41 41 42 42 42 44 47 49 52 55 58 62 66 71
37 36 36 31 31 31 31 29 29 30 28 28 26 26 25 22 25 26 28 32 33 32 33 35 36 39 43 46 49 49 48 47 49 52 55 58 59 61 64 68 70 74 78
38 40 39 36 35 35 34 33 35 37 38 38 35 34 34 36 37 35 37 37 35 38 42 44 46 48 49 55 55 54 56 57 60 62 64 68 69 71 74 75 78 83 87
43 43 42 41 42 41 42 39 36 37 38 39 39 38 38 43 45 45 44 44 45 44 48 53 55 55 57 60 61 64 67 67 68 70 73 76 76 78 81 82 85 90 92
45 46 48 46 50 47 45 45 45 46 45 39 38 42 47 50 51 52 52 51 53 55 59 62 64 65 66 68 72 74 74 74 75 78 80 80 84 83 86 90 94 93 92
48 49 49 49 50 49 50 51 51 52 54 55 53 55 56 57 59 60 59 60 61 62 67 70 71 73 75 79 78 76 77 78 80 82 85 85 88 93 94 95 94 91 83
50 50 52 54 53 53 53 54 55 55 54 56 58 60 63 64 64 64 64 66 69 73 75 76 78 80 80 78 78 79 80 81 83 86 90 93 95 97 98 96 89 80 70
50 53 52 53 53 54 55 58 60 59 60 61 63 63 65 66 68 71 73 75 77 79 80 80 80 79 79 81 81 82 84 87 90 93 95 97 100 97 93 87 77 69 66
55 53 54 54 56 59 60 61 63 64 65 67 69 71 72 74 76 77 77 76 77 78 78 79 80 80 80 83 86 91 92 93 95 98 100 100 96 90 84 76 71 67 65
52 57 62 64 62 60 61 62 63 65 69 71 71 71 72 72 76 77 78 77 77 78 78 78 80 84 87 90 92 95 98 101 102 103 99 92 86 79 74 73 70 65 62
48 49 53 57 59 61 63 65 68 69 68 69 69 70 71 73 73 74 75 77 78 80 83 86 88 90 93 96 98 101 103 103 98 91 84 78 73 72 72 70 66 63 60
52 53 55 56 58 60 63 64 68 67 66 68 70 71 71 74 75 77 80 83 85 87 89 92 94 97 100 103 106 103 96 91 85 78 73 70 69 65 62 58 56 55 57
51 54 56 58 59 61 65 64 65 71 74 77 77 78 81 83 84 86 87 89 92 94 96 98 101 104 105 105 98 92 86 77 74 71 68 62 58 53 49 49 48 47 49
56 59 61 65 65 69 71 72 74 76 78 81 84 86 86 88 89 91 93 95 98 101 103 104 103 102 96 92 85 77 74 72 67 62 57 54 53 51 48 48 48 48 49
64 65 68 70 72 73 75 76 78 79 81 83 86 89 91 93 95 96 99 102 104 106 105 102 97 91 83 77 76 74 69 63 57 56 57 56 56 54 54 53 53 53 54
70 71 73 76 78 79 80 82 84 84 87 87 89 92 97 100 102 102 102 102 101 98 93 89 83 80 77 74 70 65 63 63 62 62 60 60 61 61 61 61 61 62 63
80 79 80 83 85 85 86 85 88 89 93 95 95 98 97 97 99 99 98 97 94 90 86 83 81 80 78 74 69 67 69 71 71 71 70 69 70 70 70 70 70 71 72
83 84 86 88 89 90 93 94 96 97 98 97 97 97 98 98 96 92 86 83 82 80 79 78 77 76 78 79 81 83 86 84 81 77 77 78 78 78 78 79 80 80 82
88 88 88 90 93 94 94 95 96 95 96 96 96 95 92 88 84 81 80 79 78 78 79 81 83 85 84 83 80 80 81 83 84 86 85 83 80 81 81 81 82 82 83

GFSGL_250_spd_030.txt.gz
Wind_Speed
18 18 22 23 24 22 26 24 22 14 15 19 19 20 20 17 17 16 16 14 12 14 16 9 7 2 2 1 7 15 26 26 27 29 26 28 30 32 36 48 59 58 58
28 23 23 21 22 21 20 16 15 11 12 13 14 16 16 14 12 12 14 15 17 17 15 9 8 8 10 12 14 17 20 23 26 28 30 32 32 34 37 39 45 55 65
14 27 23 22 16 15 15 15 11 9 12 16 12 11 13 14 10 10 12 14 18 20 16 10 8 11 11 12 16 20 22 23 27 29 30 31 35 38 40 42 46 48 51
17 21 24 22 19 20 19 16 12 12 15 15 10 8 9 9 8 10 11 10 8 8 9 11 11 11 13 15 17 21 23 23 23 24 25 29 29 31 34 39 46 51 54
20 22 25 25 23 26 23 19 17 16 18 12 12 11 10 7 5 7 8 9 10 10 11 12 12 13 14 16 18 19 22 23 24 26 29 28 29 30 32 36 40 43 46
30 19 22 25 22 24 25 23 19 20 21 17 16 16 15 13 13 14 14 14 14 16 18 20 19 20 20 20 21 23 25 26 28 29 32 36 38 39 41 42 43 45 48
39 41 36 32 28 26 27 28 24 22 24 23 20 21 20 21 21 20 18 20 21 23 26 28 30 31 28 28 29 31 32 34 37 42 47 50 50 54 54 53 56 55 57
43 41 41 38 32 31 33 32 28 27 27 26 23 22 24 26 26 26 25 25 28 31 32 31 32 33 36 37 38 40 42 45 50 50 53 53 53 56 59 60 61 64 66
37 39 41 37 38 39 35 33 33 33 32 31 30 30 31 35 36 36 34 35 35 36 38 41 43 44 43 43 45 46 49 51 54 57 59 59 61 67 69 69 71 72 74
41 38 42 42 41 40 41 40 36 34 37 36 37 38 41 42 43 41 40 40 45 47 49 49 50 51 52 52 53 56 57 59 62 64 66 69 73 76 74 75 75 77 80
39 46 44 40 42 42 40 42 42 43 44 43 44 45 45 46 45 47 47 49 52 54 56 57 60 59 60 61 63 64 66 69 71 74 77 79 77 75 75 77 79 82 84
39 45 49 46 44 45 47 46 46 47 49 51 52 52 54 55 55 57 59 62 64 66 64 66 65 62 63 67 69 71 75 79 81 83 83 80 79 78 80 82 84 87 91
57 53 51 51 50 49 52 52 54 55 55 54 56 56 55 56 58 58 59 61 63 66 66 69 71 71 73 75 79 81 82 83 82 82 84 83 83 83 83 87 90 93 97
59 58 53 52 51 52 54 55 56 56 58 57 58 59 62 63 64 65 66 68 70 72 74 76 78 79 82 83 84 84 83 81 81 82 84 85 88 90 92 94 96 99 102
53 53 51 53 54 52 55 57 57 58 59 60 62 64 66 67 68 71 73 74 76 79 81 82 84 85 86 86 83 81 82 83 84 86 89 92 94 97 98 100 103 99 95
44 48 51 53 52 56 56 55 57 60 62 62 64 65 67 68 69 72 76 78 78 78 78 81 80 79 80 81 83 86 88 90 91 93 94 96 99 101 102 101 96 89 83
41 46 50 51 52 53 54 56 60 66 67 68 70 73 74 77 76 76 77 77 75 77 80 80 82 83 85 87 91 93 94 96 99 100 100 102 102 101 96 87 81 74 71
38 43 48 52 55 57 55 55 56 57 58 61 63 65 68 71 72 72 74 76 80 82 83 86 89 91 92 94 96 98 101 103 104 105 103 98 94 87 80 73 71 69 64
41 43 44 47 50 53 54 55 56 58 59 61 63 65 69 72 74 76 79 83 86 87 90 91 93 94 97 99 102 103 102 101 100 97 92 86 80 75 72 69 65 60 56
50 51 54 54 54 54 56 58 61 63 64 66 69 72 75 77 80 83 86 88 90 92 94 96 100 103 105 104 103 101 97 93 89 84 80 77 75 70 65 60 58 57 56
56 59 62 62 62 62 63 67 69 72 74 76 78 80 82 84 86 90 92 93 95 97 100 103 103 103 102 100 97 93 87 81 77 76 75 71 68 66 64 62 61 61 59
63 64 65 66 67 68 68 72 73 76 80 82 83 85 87 90 91 94 97 99 103 104 104 102 100 97 94 90 86 83 82 81 77 74 72 72 71 71 70 70 69 68 67
73 75 75 76 76 77 78 78 80 81 84 87 90 92 94 96 98 100 101 101 101 101 101 99 96 91 86 83 81 80 80 79 80 81 82 82 82 81 79 78 76 76 76
81 81 82 83 82 83 84 84 86 87 89 92 93 94 94 94 95 95 96 98 98 98 93 87 85 85 85 84 83 84 86 88 87 86 83 83 82 82 83 84 83 82 81
85 85 85 86 86 87 87 88 87 89 91 90 89 88 89 92 94 94 93 92 88 85 83 83 82 81 83 85 85 85 85 84 85 86 85 83 83 82 80 80 80 81 82
88 88 89 89 88 88 88 87 86 85 88 89 91 93 91 89 88 86 84 81 80 80 80 81 81 82 81 81 82 82 82 82 81 80 78 77 75 73 72 71 71 71 73

GFSGL_250_spd_033.txt.gz
Wind_Speed
13 14 13 12 14 16 19 24 22 25 24 16 12 20 19 17 17 17 15 15 14 15 19 19 15 7 3 4 10 22 26 23 28 32 31 30 27 28 28 31 33 34 38
16 18 16 15 18 19 20 18 21 19 18 12 15 21 17 16 17 15 12 13 14 15 20 22 15 13 8 8 8 14 17 16 18 22 25 26 29 32 33 34 34 36 38
19 20 19 13 19 20 15 14 18 18 15 11 19 17 15 14 15 13 11 13 15 16 16 13 12 12 12 13 13 14 18 20 22 24 27 28 29 30 31 34 37 40 43
24 25 23 20 23 21 18 18 16 19 17 13 19 16 12 12 12 11 9 8 10 12 12 11 11 12 13 14 15 16 18 21 24 26 29 30 30 31 34 34 35 37 40
31 28 24 29 30 29 24 27 24 22 21 16 15 17 16 14 14 12 11 13 15 16 17 15 15 17 19 20 22 23 23 24 25 26 29 30 31 31 33 36 39 42 43
22 27 23 18 21 23 24 20 26 26 23 21 19 21 20 18 18 18 20 23 25 25 24 23 23 24 26 29 31 31 31 30 31 31 33 34 37 40 42 46 49 53 55
20 20 29 25 27 30 32 35 33 29 25 26 26 24 26 23 23 24 26 30 29 31 30 31 31 32 34 35 36 38 39 40 41 42 43 46 48 51 55 57 60 60 59
14 13 18 27 31 32 33 36 35 33 32 31 31 28 29 27 26 26 28 30 34 35 38 37 38 38 40 42 44 46 50 53 54 54 55 55 57 60 62 64 65 67 68
20 21 20 24 27 28 31 36 35 35 35 35 36 36 35 36 35 34 35 40 44 42 43 45 46 49 52 52 51 55 58 57 59 62 62 64 66 69 72 72 72 74 76
23 29 28 29 29 32 35 40 40 38 38 41 40 39 38 40 42 44 45 48 51 51 50 51 53 56 59 61 65 67 63 65 65 62 64 66 69 73 75 77 78 78 77
35 38 38 39 38 36 40 45 45 47 46 43 41 44 46 45 47 50 52 53 55 58 58 60 61 63 65 64 64 65 64 66 68 69 71 74 77 79 80 79 79 79 80
41 37 44 48 51 53 50 44 47 48 47 47 47 47 49 50 54 56 57 57 58 61 61 64 65 65 66 69 70 70 72 75 73 76 81 81 79 80 82 81 82 84 85
33 42 48 50 53 52 54 55 53 51 54 54 55 55 55 58 58 60 62 63 64 66 66 67 70 72 74 75 76 77 77 78 79 81 82 81 81 82 83 85 88 91 94
46 53 54 53 55 58 65 63 59 54 52 56 57 59 60 61 61 63 64 64 68 69 71 73 74 75 76 79 81 80 79 79 81 82 83 84 87 89 91 93 95 96 98
55 57 55 52 48 52 57 57 55 54 53 56 57 59 58 61 64 66 67 69 70 71 74 76 77 79 79 79 80 82 82 84 85 87 89 91 92 93 94 96 99 102 101
52 55 54 52 48 45 45 48 51 53 55 55 57 60 62 64 67 68 70 72 75 77 77 75 76 78 79 80 82 84 86 87 89 91 92 94 98 100 102 102 100 98 98
49 48 43 45 41 41 43 46 49 52 54 55 58 59 61 62 63 65 67 69 71 73 74 75 77 80 82 85 87 90 93 95 96 96 100 104 104 102 100 98 95 89 83
39 42 43 43 44 45 43 43 44 46 51 54 56 58 59 62 64 66 67 70 73 76 79 83 86 88 90 92 94 97 99 101 104 107 107 104 100 96 90 84 80 75 73
46 48 49 49 51 51 50 52 54 55 57 60 62 64 68 69 71 73 76 78 80 83 86 89 91 93 95 97 99 102 105 106 105 102 98 92 85 81 77 74 73 71 69
53 54 55 54 56 57 57 60 63 65 66 66 68 70 73 75 77 79 81 84 88 90 92 93 96 98 100 103 104 103 101 99 96 90 84 81 78 77 75 72 71 71 71
59 62 61 61 63 65 67 70 70 70 70 74 76 78 80 83 84 86 88 90 93 95 97 99 102 101 99 100 100 99 95 88 82 79 78 77 75 75 76 78 77 76 75
67 68 70 71 72 73 76 77 79 81 82 83 84 86 87 86 88 91 94 97 98 100 101 98 97 97 97 95 91 85 81 80 78 77 77 78 80 79 79 80 80 80 80
77 77 77 78 78 80 81 82 85 88 89 90 90 90 91 92 94 95 96 98 99 98 97 97 97 94 89 83 81 80 81 81 82 83 83 81 81 81 80 80 80 79 78
83 83 85 86 86 85 86 89 91 91 93 95 95 94 94 95 93 94 94 94 96 94 91 87 83 81 80 81 82 83 84 84 84 84 82 82 82 79 79 77 75 73 72
88 89 90 91 90 91 93 95 96 97 93 90 91 92 92 91 90 90 90 89 85 82 81 79 78 78 80 82 83 83 83 82 81 80 80 79 78 78 75 72 70 68 65
91 92 94 94 96 97 95 91 87 87 90 90 88 86 85 84 84 81 80 80 78 74 73 75 78 79 80 82 82 82 82 80 79 77 75 72 70 68 66 65 64 64 65

GFSGL_250_spd_036.txt.gz
Wind_Speed
10 7 6 8 7 11 11 11 15 16 18 21 16 13 17 16 16 18 14 12 11 10 10 13 17 15 11 6 4 8 16 10 20 27 32 31 30 30 32 31 30 31 32
17 13 15 10 13 11 10 17 13 12 14 13 12 11 15 13 14 16 14 10 10 11 13 13 13 10 8 9 10 9 10 12 14 14 25 29 30 29 32 32 34 35 37
20 17 21 18 17 15 10 16 11 11 12 13 14 14 15 13 13 15 12 9 9 8 9 11 10 8 8 10 14 16 16 16 17 19 22 26 28 29 30 30 31 34 36
19 18 20 24 23 19 20 21 19 18 18 18 17 14 15 15 15 13 14 10 11 12 13 14 16 14 13 13 13 14 16 18 21 22 24 28 31 32 34 35 36 36 35
22 20 12 16 20 23 21 24 20 17 17 19 22 20 19 18 19 18 17 16 17 18 18 18 21 21 22 24 24 25 26 26 27 27 28 30 32 33 35 37 38 39 42
21 17 8 8 15 22 21 20 22 23 25 27 27 25 24 22 23 23 22 21 20 23 23 20 23 26 29 31 33 33 35 35 34 35 36 39 42 43 46 47 48 51 55
17 15 9 12 15 22 21 28 27 28 31 31 29 29 27 29 29 28 29 27 26 25 25 25 29 31 34 36 38 40 40 39 42 45 45 47 52 55 55 58 60 62 63
20 19 11 12 12 12 18 24 30 28 28 30 32 32 34 34 33 32 34 33 32 33 34 34 37 41 43 43 45 46 48 49 52 53 56 57 60 60 60 62 64 67 70
26 29 30 20 20 18 19 21 28 30 31 32 36 38 38 37 38 39 39 40 42 43 44 44 46 49 50 51 53 55 56 56 56 57 60 60 61 63 64 65 66 67 69
26 31 37 34 25 24 28 30 32 35 38 40 43 45 46 46 43 42 43 43 45 47 47 49 52 54 55 57 59 60 61 61 62 62 64 67 65 67 69 69 70 71 72
32 34 35 37 37 31 29 31 37 42 49 52 54 49 46 45 46 46 47 49 51 53 54 57 59 60 60 62 64 65 67 67 69 70 71 72 74 74 73 73 72 72 75
29 28 31 30 37 40 42 46 50 49 50 52 57 53 49 48 51 52 53 54 56 58 60 61 60 60 63 65 67 69 71 74 75 76 79 79 78 77 77 77 77 80 81
37 40 44 43 41 42 43 55 50 56 57 53 57 59 61 55 54 55 58 58 59 61 62 62 63 67 70 72 74 75 75 78 82 82 80 80 82 83 81 82 84 85 87
45 48 50 56 55 53 53 48 55 54 51 51 52 50 49 51 52 54 55 56 59 62 64 65 66 69 72 75 77 79 80 79 80 81 82 83 85 86 88 90 92 94 95
46 50 49 51 50 47 49 52 52 48 49 44 44 45 48 51 54 55 56 58 60 61 62 64 66 69 72 74 76 77 77 78 81 84 87 89 92 93 94 96 98 99 100
47 46 46 49 47 47 46 47 42 43 41 40 42 44 47 50 53 56 58 60 61 62 63 65 67 69 72 75 78 81 84 86 88 91 93 96 98 99 101 103 105 104 100
43 44 45 46 47 47 46 43 44 42 42 43 44 45 47 49 52 55 58 60 63 64 68 71 74 76 79 82 85 88 91 93 95 97 98 100 102 105 104 101 99 98 93
46 47 48 49 52 51 51 49 49 48 51 53 55 56 58 61 64 66 68 69 71 73 78 81 84 86 88 91 93 95 96 98 100 102 104 103 102 100 98 96 89 81 76
50 52 55 55 55 54 54 55 57 58 58 59 61 63 65 69 72 74 75 77 80 83 86 88 90 92 92 93 96 99 100 102 102 101 101 101 99 95 89 81 77 74 73
60 57 57 58 58 59 59 60 62 63 65 67 71 73 75 78 80 81 83 84 85 87 89 92 94 95 96 98 100 101 100 99 99 96 91 87 84 80 78 76 75 75 75
59 59 59 58 60 62 64 68 73 75 75 77 79 80 82 85 87 88 89 91 93 94 96 98 97 97 97 98 97 96 93 89 85 83 80 78 78 77 77 77 77 78 79
66 66 65 68 72 75 77 79 81 82 83 84 86 88 89 90 91 93 95 97 98 98 94 94 94 95 97 95 91 87 84 80 77 77 78 77 78 78 79 81 81 80 79
74 75 77 79 81 83 86 88 88 88 88 89 91 92 93 95 97 99 98 94 94 95 95 96 94 92 88 83 81 78 76 77 77 77 78 79 81 80 79 79 76 75 72
84 84 84 85 89 91 92 93 94 94 93 93 94 96 98 100 97 94 94 93 94 92 88 85 82 79 76 73 74 75 76 75 76 78 78 78 76 74 72 70 69 67 66
88 89 89 90 93 94 96 96 94 95 96 99 100 96 94 93 92 93 92 87 82 80 77 73 69 69 72 73 73 74 74 75 75 73 71 69 68 67 66 65 64 63 61
93 93 94 95 96 96 96 97 97 97 97 96 95 93 91 91 90 82 77 76 73 69 66 67 70 70 70 71 72 72 71 69 67 65 64 63 63 61 61 60 59 58 57

GFSGL_250_spd_039.txt.gz
Wind_Speed
8 8 5 10 7 4 8 11 11 12 15 15 17 20 8 12 13 11 13 14 12 10 8 6 7 9 6 6 7 7 8 4 11 23 27 30 31 30 34 33 33 34 35
15 4 3 6 10 12 10 10 11 13 11 11 9 10 9 13 13 12 13 13 11 10 8 8 11 12 10 7 9 10 8 11 10 11 24 37 38 34 36 38 37 36 36
22 14 9 13 16 16 16 16 13 9 13 14 10 12 13 14 13 15 16 15 15 11 10 11 11 11 11 9 8 10 14 15 14 16 19 22 26 27 30 32 32 33 36
14 9 10 15 18 26 18 18 23 21 12 12 13 14 14 19 20 18 18 20 19 18 16 15 15 15 15 16 17 17 18 19 22 23 24 25 26 28 30 33 35 37 38
10 10 12 13 14 22 17 14 14 14 11 12 13 18 18 18 22 23 23 24 23 24 23 20 18 16 16 18 20 23 25 27 29 30 31 31 32 34 36 37 39 41 44
13 15 16 13 9 14 19 16 16 17 15 17 19 22 23 24 22 23 25 27 29 29 28 28 28 24 23 23 24 28 30 31 34 37 38 39 40 42 44 46 47 51 54
18 14 14 11 11 17 22 21 24 22 21 20 23 24 24 24 26 27 28 27 28 30 31 33 32 33 32 33 33 34 37 40 41 43 44 47 49 53 55 54 54 57 58
27 25 19 19 20 14 21 26 26 24 20 19 23 24 27 30 34 37 36 35 36 37 38 39 39 40 42 43 44 46 47 48 50 51 53 55 56 58 58 59 61 63 65
27 24 23 20 24 20 21 25 23 22 19 22 28 31 32 38 42 43 45 46 45 43 42 41 42 43 45 47 50 52 53 54 56 58 60 61 62 62 65 67 68 69 70
24 30 27 30 30 33 32 34 32 23 19 22 30 30 39 43 47 50 49 45 45 45 47 47 48 50 51 54 56 57 58 59 60 61 62 65 67 68 70 73 73 74 74
25 28 29 32 35 41 42 37 30 32 30 40 43 46 44 45 46 50 53 47 47 48 48 51 52 54 55 56 59 61 63 64 65 67 69 71 72 72 74 76 76 74 75
29 29 32 33 29 33 38 36 34 41 44 48 48 50 50 46 42 44 48 50 51 49 51 54 55 58 61 62 63 65 67 69 69 70 72 72 72 73 75 77 78 78 80
41 43 41 39 37 42 40 42 46 46 48 48 46 48 51 44 42 40 40 37 41 45 49 52 54 56 59 61 63 64 66 67 69 71 72 74 75 77 79 81 84 85 87
41 44 44 48 51 48 48 51 46 47 47 45 46 49 47 43 37 37 38 38 39 42 45 50 53 56 59 60 62 64 66 69 72 74 77 79 82 84 87 89 91 92 94
45 42 42 41 45 46 45 43 42 44 46 47 47 47 46 43 43 43 43 43 44 47 49 52 55 59 62 65 68 70 74 77 81 83 86 88 90 93 94 95 96 97 99
46 43 40 43 43 43 44 46 48 49 48 48 47 48 51 49 49 50 51 52 54 58 61 65 67 69 72 75 77 79 81 83 85 86 89 92 93 95 97 99 100 101 101
42 44 46 46 47 44 43 44 45 45 49 50 52 54 54 56 56 56 58 61 65 68 71 73 75 77 79 81 84 87 89 91 92 93 96 98 98 98 98 98 99 97 93
47 44 44 45 45 46 45 47 51 56 56 55 56 58 59 59 60 65 69 72 74 77 79 81 82 85 86 89 90 93 95 96 97 98 96 96 97 98 97 94 90 86 82
46 49 49 50 51 52 55 58 59 59 58 59 60 60 61 65 70 73 77 81 83 84 85 87 89 90 91 93 95 97 97 96 96 96 97 96 93 91 87 83 79 77 77
52 52 52 55 56 57 58 59 58 61 61 63 65 69 72 76 78 81 84 86 88 90 92 93 93 94 95 97 97 97 96 95 95 93 88 84 80 78 76 76 76 77 76
58 58 58 58 61 62 63 65 67 69 70 72 76 78 82 84 86 87 89 91 94 95 94 95 98 99 98 98 97 97 94 87 84 82 78 73 72 74 74 75 76 76 75
68 69 68 68 70 72 72 73 76 78 79 82 85 87 88 89 89 91 94 97 97 98 99 99 98 96 94 90 86 82 80 76 72 70 71 71 72 72 72 71 69 67 67
68 71 74 76 78 79 81 83 85 85 86 87 89 90 90 92 94 96 100 100 101 99 97 95 94 90 83 78 77 74 69 68 69 69 70 71 71 69 67 64 63 61 60
74 75 75 77 78 80 82 84 86 86 88 90 91 93 93 95 98 100 99 99 98 97 95 90 83 78 77 73 68 67 68 68 69 70 69 68 68 67 65 64 62 59 58
81 82 83 84 84 85 85 87 87 90 91 93 94 95 96 96 98 97 96 94 91 88 82 79 77 70 64 65 67 67 68 68 67 66 66 65 65 64 63 62 61 60 59
83 85 87 89 88 88 88 89 91 92 93 94 93 91 94 94 92 90 87 85 82 78 75 70 63 65 65 65 65 67 66 64 63 62 63 63 63 63 62 61 61 60 60

GFSGL_250_spd_042.txt.gz
Wind_Speed
0 3 6 4 11 19 10 9 12 14 14 14 17 19 19 18 12 11 10 10 10 10 7 6 5 6 5 2 8 9 10 10 10 15 23 30 29 28 31 31 32 36 36
11 4 6 7 6 11 10 7 9 8 14 12 12 9 9 7 7 9 12 15 14 13 12 9 10 10 9 7 6 8 8 11 14 14 14 24 34 35 41 37 45 43 40
20 15 16 11 9 13 11 16 15 12 8 12 14 12 6 7 9 11 14 16 17 17 15 15 17 16 15 14 13 12 12 14 16 16 16 19 22 27 31 33 36 36 38
9 13 9 16 14 12 19 24 21 18 19 19 18 12 9 7 9 13 17 20 21 21 22 23 23 22 22 23 21 20 20 20 20 22 24 25 26 28 30 32 33 35 37
12 9 9 9 12 9 10 20 21 14 13 17 19 17 16 16 16 17 17 19 22 24 28 28 29 28 28 26 26 26 27 27 26 27 28 30 32 34 37 39 40 42 44
28 27 20 13 13 12 9 12 18 17 15 17 20 18 17 14 11 14 18 21 24 25 25 29 32 34 34 36 34 35 34 34 33 32 33 36 39 43 45 47 49 51 54
25 30 26 15 15 17 10 10 10 17 21 21 22 16 14 16 18 20 22 27 30 32 33 34 35 37 39 43 43 43 43 44 45 45 47 50 50 51 52 54 57 59 62
27 30 34 30 24 20 17 16 16 12 12 13 18 18 19 20 17 26 30 31 35 38 40 43 39 41 43 43 44 46 46 47 49 51 54 56 58 60 60 63 65 67 67
25 30 32 29 26 23 20 23 24 20 17 20 23 27 25 23 36 41 41 41 41 41 41 43 40 42 44 46 48 49 51 52 55 57 60 64 66 68 69 69 71 70 71
28 29 28 28 25 26 26 27 29 29 28 26 25 29 31 35 42 44 46 46 46 46 45 44 42 44 44 46 48 51 54 57 59 61 64 66 68 69 71 72 72 73 73
31 30 30 26 29 29 28 32 35 36 34 30 28 33 37 43 45 42 43 47 46 44 43 42 40 42 47 49 50 54 56 58 61 62 64 66 68 69 69 70 71 72 74
30 25 23 23 27 29 34 38 41 39 35 36 40 42 43 44 45 42 44 45 45 42 41 40 39 39 40 44 48 50 51 53 54 58 61 64 67 69 71 74 77 80 83
37 38 37 35 35 36 39 42 44 41 38 42 46 48 47 51 47 48 48 44 44 41 41 40 40 41 41 44 48 51 55 59 63 66 68 71 73 76 79 81 83 86 88
47 47 49 52 51 51 50 48 49 50 52 50 48 45 43 42 46 46 47 47 47 47 47 48 47 49 52 55 59 63 66 69 72 74 76 80 82 84 86 87 88 91 93
46 47 47 50 52 53 51 49 50 50 43 44 50 47 47 45 46 48 50 50 51 52 53 52 52 55 62 65 69 72 74 76 79 82 84 85 86 89 91 93 95 94 94
51 53 54 53 48 49 51 50 48 44 43 43 46 46 42 45 49 51 54 55 55 54 54 56 61 65 70 74 75 77 80 82 84 85 87 89 93 95 94 93 92 94 96
52 54 57 57 58 56 54 50 45 46 50 47 46 48 49 53 56 57 57 57 55 56 62 67 72 76 79 81 81 83 85 86 88 91 94 95 94 93 95 94 93 92 88
52 56 59 60 62 59 58 53 50 50 50 50 52 55 55 58 58 60 61 61 62 67 71 76 81 84 86 86 87 90 92 93 94 94 93 92 93 92 88 85 81 80 77
52 53 57 61 62 59 58 57 55 57 57 59 58 59 61 62 63 67 68 69 73 77 82 87 89 90 90 91 93 95 95 96 96 94 93 90 85 80 78 76 73 72 74
55 56 58 58 60 65 60 59 61 61 60 60 63 65 67 69 72 74 76 79 83 86 90 92 93 92 95 96 95 96 96 93 90 87 82 79 79 75 72 72 73 72 73
58 59 62 63 62 61 62 63 64 65 67 70 73 75 77 78 79 82 84 86 89 92 94 95 96 96 97 96 97 95 92 89 83 79 79 72 69 70 69 69 71 69 68
57 59 63 67 70 72 71 70 71 73 74 74 76 78 79 81 83 85 88 90 92 94 97 98 98 97 96 96 93 89 83 79 77 71 67 68 67 68 68 66 63 63 63
62 62 64 67 69 71 73 73 74 74 76 79 80 82 84 86 88 90 91 92 94 95 96 96 94 94 94 89 83 79 77 73 67 67 66 65 65 63 60 60 60 60 60
70 70 71 71 73 74 75 75 78 79 81 83 85 88 90 91 93 94 94 95 95 96 95 93 92 88 84 79 79 77 71 66 66 64 64 62 59 57 56 56 57 58 59
80 79 81 82 82 82 83 83 85 86 86 88 89 90 90 92 93 94 95 94 93 91 89 86 84 81 77 76 74 69 66 65 63 62 61 59 56 55 57 60 62 63 62
89 89 88 87 86 87 89 91 93 91 92 93 92 93 92 92 93 93 89 89 87 83 79 78 75 74 74 72 67 67 65 62 62 60 58 54 55 59 62 63 64 64 64

GFSGL_250_spd_045.txt.gz
Wind_Speed
4 4 3 7 19 29 22 32 23 25 31 39 40 27 22 21 20 16 14 10 9 10 11 12 12 11 10 13 13 17 20 20 19 19 17 20 30 37 27 28 30 33 38
16 8 5 5 5 13 23 27 20 15 15 17 20 19 16 16 13 12 10 9 10 11 13 14 16 16 16 17 17 17 18 19 23 23 23 22 21 25 38 41 42 46 45
20 15 13 14 10 12 13 17 18 19 18 11 14 15 15 14 15 16 14 13 13 15 16 15 18 22 23 24 26 24 25 25 24 22 22 23 22 25 28 31 36 44 43
20 20 18 12 12 12 13 17 21 22 23 21 19 19 18 18 18 17 15 14 14 16 19 20 22 24 27 29 30 32 31 31 31 32 32 31 30 30 32 33 35 37 39
19 13 10 14 11 10 11 13 15 19 26 24 23 22 20 21 22 22 19 16 14 16 20 22 24 26 28 30 33 36 37 37 38 40 40 39 39 38 37 38 39 43 46
24 18 17 15 14 15 12 8 7 13 18 21 21 20 19 20 17 13 15 13 18 18 20 23 25 29 32 33 35 37 39 43 45 46 46 46 46 47 48 49 52 55 56
24 27 32 30 25 19 13 11 12 7 9 12 18 23 22 18 20 17 17 18 32 32 33 32 36 38 41 43 41 41 43 44 46 48 50 52 53 54 54 56 59 61 63
32 34 26 32 30 25 19 18 18 17 20 17 15 15 19 24 25 26 27 32 37 38 39 41 40 43 46 47 46 46 42 40 41 44 48 52 55 58 60 63 65 68 70
31 34 29 35 33 36 33 32 27 27 28 27 26 24 25 27 28 30 33 38 42 44 46 45 45 44 42 45 48 49 52 53 53 53 52 54 58 60 64 67 70 72 70
27 22 31 37 39 40 42 38 32 30 33 34 33 34 33 35 33 34 36 41 46 48 48 48 47 42 41 41 39 40 42 51 54 55 58 60 64 64 63 64 65 66 67
25 25 39 38 40 43 41 36 35 34 35 37 38 38 39 37 39 41 44 45 49 52 54 54 50 43 41 40 39 38 37 38 41 43 45 49 54 59 63 67 71 74 75
42 42 43 40 40 41 43 39 37 38 38 38 41 44 45 43 45 47 48 52 53 54 52 48 46 45 44 45 45 46 44 44 45 48 53 59 63 68 73 75 77 79 82
46 46 46 41 39 39 35 39 39 37 41 44 45 48 47 51 52 53 57 58 52 51 51 49 48 48 50 51 51 49 48 51 54 61 68 71 74 74 74 78 80 81 83
45 45 46 43 43 42 37 43 47 51 52 50 54 54 55 59 60 62 58 57 57 56 51 50 51 52 55 55 54 54 54 59 65 69 75 79 80 81 82 85 86 87 89
46 49 47 48 52 52 53 54 56 57 58 61 61 62 62 63 60 56 55 55 56 53 54 55 56 57 57 59 58 60 65 70 76 81 84 86 86 88 90 90 91 93 93
55 51 49 46 48 51 53 54 54 55 55 56 57 59 59 58 55 55 57 56 56 60 61 60 59 62 63 63 67 72 75 80 85 87 89 92 93 94 94 94 93 91 91
54 61 57 56 57 55 55 58 60 61 62 60 61 59 55 57 59 60 61 61 62 62 64 64 65 67 70 73 77 80 83 87 90 92 93 96 98 97 94 92 90 87 80
41 41 43 45 52 58 61 63 66 64 64 68 68 67 68 69 71 66 65 64 65 65 68 71 74 76 80 81 83 86 88 91 93 94 97 98 97 94 90 86 78 74 70
44 48 49 51 57 58 60 63 65 67 69 69 69 72 70 66 67 67 67 68 69 74 77 80 82 83 84 86 88 92 93 96 95 98 99 98 93 88 80 75 71 66 69
45 48 49 50 52 59 60 63 67 68 67 67 65 67 67 67 71 72 75 78 81 81 81 82 85 86 88 91 94 97 97 98 101 100 98 92 84 77 74 69 68 68 66
54 53 55 55 55 58 60 61 62 63 65 66 67 70 72 76 78 78 78 79 79 81 84 87 89 92 94 95 97 98 100 100 98 95 90 81 75 74 68 68 66 65 63
51 53 55 53 54 57 58 60 62 64 67 68 69 73 76 78 79 81 82 83 85 86 88 93 94 95 95 98 99 99 100 95 91 87 79 73 72 67 67 64 63 63 60
56 57 58 60 61 62 64 66 69 70 72 74 73 75 77 81 83 85 87 89 90 91 93 96 98 98 97 96 97 95 90 87 83 76 72 72 68 68 64 62 62 59 53
67 69 71 73 74 75 75 78 77 78 81 81 81 81 86 88 88 89 90 92 93 96 97 97 98 97 93 92 89 87 83 77 72 69 71 69 70 66 60 60 57 55 56
80 81 82 83 85 87 83 87 89 89 89 92 91 93 90 91 93 96 98 99 97 96 97 94 92 88 85 84 83 79 74 70 69 68 67 70 67 59 58 58 57 58 58
88 88 90 91 92 95 94 95 96 96 96 97 98 97 98 99 100 101 101 100 94 90 86 83 80 78 78 78 77 71 68 69 68 67 68 65 61 59 59 58 60 62 64

GFSGL_250_spd_048.txt.gz
Wind_Speed
17 13 9 9 13 17 16 19 20 26 27 35 36 35 38 40 37 30 25 22 19 16 15 15 16 15 21 18 17 19 19 22 26 28 29 27 25 26 28 33 34 34 35
22 15 15 13 8 11 26 27 25 27 29 27 32 31 29 26 20 19 20 18 16 17 18 20 20 19 18 19 22 23 24 27 28 29 31 33 33 32 31 31 34 42 46
23 21 18 16 14 11 10 11 17 23 28 25 20 20 27 22 17 16 17 20 21 24 26 25 26 26 25 27 27 27 30 31 33 35 35 36 36 37 36 34 33 35 39
26 23 22 22 21 16 17 15 14 17 20 25 27 24 21 20 20 17 18 21 24 23 23 24 25 27 30 32 33 35 36 37 38 40 40 40 41 42 43 43 43 44 45
22 29 25 19 17 16 15 16 17 15 18 24 26 27 26 23 23 20 22 25 27 21 17 18 20 21 23 27 29 34 39 42 42 41 41 43 44 46 50 50 50 51 51
30 21 20 20 17 17 17 16 21 18 16 16 16 20 26 26 25 24 24 25 22 20 17 18 20 23 31 35 38 43 45 44 48 48 48 45 44 49 52 54 55 55 59
32 30 26 22 24 25 27 26 24 21 20 15 15 19 24 27 29 28 26 27 28 29 33 35 38 41 40 41 38 45 43 45 48 51 53 55 55 53 51 52 52 52 56
32 30 30 27 29 35 37 32 28 25 23 19 19 20 24 24 27 28 28 27 32 36 38 42 41 45 48 49 50 51 51 48 48 48 48 49 56 58 56 56 59 62 63
27 34 30 33 34 35 39 37 37 34 28 28 29 31 31 32 32 33 34 36 36 35 37 41 44 45 48 51 53 52 50 45 45 46 46 46 42 44 53 58 59 58 59
28 38 35 26 28 27 28 38 42 44 38 35 35 36 37 38 41 40 39 40 40 41 41 44 50 50 55 57 57 54 48 46 44 48 49 48 47 46 46 48 53 56 59
34 30 40 33 41 33 26 27 41 43 43 44 44 43 43 44 45 44 43 45 47 49 51 49 53 56 57 54 54 53 52 49 51 51 54 53 53 55 54 56 60 66 71
39 32 38 36 40 41 45 48 44 41 44 44 44 46 48 48 47 46 46 49 53 53 53 58 60 66 65 60 57 55 53 56 54 54 56 58 57 57 62 65 71 77 82
39 40 43 48 51 51 53 58 59 58 50 53 52 50 48 49 48 50 52 54 57 59 62 64 71 69 65 56 58 61 62 60 58 58 58 60 64 67 72 78 83 84 86
41 47 51 54 55 54 53 54 54 55 55 55 56 56 55 54 55 59 60 64 65 68 68 70 67 64 59 62 60 65 66 65 63 64 66 67 72 77 82 82 85 88 91
42 49 54 58 61 59 59 58 57 51 53 53 54 58 61 62 62 66 69 70 69 68 70 69 64 62 67 65 68 70 70 69 69 72 77 80 81 82 83 87 91 93 93
48 54 56 56 61 66 62 61 61 58 58 57 59 63 65 66 63 60 60 60 61 58 59 62 67 68 69 69 71 70 73 75 79 83 84 84 87 87 90 92 92 96 98
48 52 64 64 52 54 58 60 53 54 60 64 64 64 65 61 59 60 67 67 68 66 68 70 71 68 69 73 72 74 80 83 83 84 88 89 92 93 93 96 97 96 92
42 45 47 70 67 61 57 61 64 63 61 62 63 63 68 70 70 69 67 69 71 73 75 73 75 76 76 78 79 80 82 85 87 88 90 94 95 97 98 98 95 86 84
40 45 45 48 52 59 58 56 59 63 67 69 74 71 72 71 72 75 77 75 77 79 76 75 74 77 79 80 83 85 86 88 91 93 95 98 100 99 98 93 86 82 77
40 42 42 47 51 52 54 56 59 58 59 66 71 72 74 73 74 77 78 76 73 73 75 77 76 79 79 82 86 90 91 92 94 97 98 99 100 95 88 82 79 74 67
41 42 45 50 47 48 53 57 60 60 62 62 66 68 67 67 67 69 71 74 76 78 80 83 83 83 86 88 91 92 94 96 99 100 101 96 90 85 81 76 70 66 64
46 49 52 55 53 53 56 58 59 61 62 61 59 67 70 70 72 72 75 77 79 82 85 88 89 88 90 93 95 96 98 100 100 98 93 87 83 78 73 68 64 63 65
52 54 55 58 60 60 63 65 65 67 70 70 66 71 77 80 83 83 84 89 90 92 94 96 97 97 94 96 99 101 100 97 93 89 84 80 76 71 66 65 62 64 65
65 68 68 66 66 67 68 72 73 73 76 79 80 80 87 92 93 94 95 96 95 99 100 103 103 103 102 101 100 99 92 85 82 77 76 75 69 65 65 65 64 68 71
71 73 75 78 80 81 82 84 85 87 87 93 94 92 95 97 99 100 101 103 104 104 104 104 104 104 100 92 89 85 77 75 75 72 72 72 68 68 68 70 70 73 75
82 82 83 85 87 90 91 92 92 93 94 96 102 100 98 100 102 102 105 107 106 105 103 101 100 95 90 85 79 74 69 68 71 74 74 72 70 71 74 75 73 74 71

GFSGL_250_spd_051.txt.gz
Wind_Speed
26 28 23 20 21 18 17 11 17 33 25 30 25 27 32 36 41 40 38 38 30 28 25 19 17 21 21 24 27 27 26 26 27 29 30 31 32 34 36 37 36 36 35
29 27 25 22 22 19 15 16 16 18 21 29 30 30 33 33 34 39 27 22 23 21 19 19 21 24 26 28 31 30 32 32 32 32 35 35 38 39 39 40 41 42 42
28 30 26 26 19 20 14 16 25 29 26 30 31 32 32 24 26 27 22 19 16 18 19 23 26 29 30 31 32 32 34 36 38 40 45 45 45 45 45 46 44 45 46
24 30 29 25 23 21 20 21 20 21 22 18 22 26 29 31 29 20 22 21 20 22 24 26 27 29 30 32 32 29 27 30 33 38 44 46 48 50 51 51 53 53 52
27 26 30 25 22 22 23 23 20 23 20 16 19 22 22 28 31 28 26 26 27 28 29 29 31 31 26 22 24 29 33 33 31 37 39 44 48 51 51 51 54 54 57
27 30 28 25 25 22 21 25 20 19 19 22 22 24 21 22 23 24 26 29 30 30 31 29 26 28 27 28 29 35 41 45 40 46 50 51 50 50 51 51 52 54 59
31 27 28 23 23 21 25 26 25 26 30 32 29 28 27 21 22 25 27 29 30 31 31 32 35 37 38 45 41 37 37 44 48 43 46 49 50 46 47 52 52 51 56
32 31 31 27 28 28 24 27 30 32 33 34 32 33 33 27 31 30 32 32 33 33 33 33 34 39 43 41 42 44 42 45 47 50 47 51 51 49 55 52 52 53 51
30 39 36 32 30 27 29 25 27 29 35 34 38 37 38 37 37 37 37 38 35 38 40 43 44 42 41 44 46 48 52 54 60 59 56 55 53 56 57 53 54 56 58
36 32 39 41 39 36 31 26 40 35 39 39 39 40 44 44 42 42 42 42 43 43 44 47 46 45 46 49 53 54 58 61 67 64 57 58 54 58 61 60 58 60 62
39 39 36 42 42 41 38 42 24 38 34 40 41 41 42 50 46 44 47 48 49 50 53 50 48 48 52 54 57 60 65 66 70 64 57 59 63 67 65 66 63 64 66
40 41 39 43 47 46 42 40 44 35 32 38 40 44 42 45 46 46 47 49 53 55 55 54 53 53 56 61 65 70 72 72 69 59 59 63 67 72 71 67 68 70 74
40 40 39 46 50 55 55 49 54 54 50 55 56 55 51 51 48 48 52 54 55 55 59 58 60 61 65 67 72 70 69 68 65 65 68 67 68 72 73 72 76 79 83
35 41 40 46 52 58 66 69 61 58 56 62 64 63 63 62 59 54 55 57 60 64 63 65 68 70 70 69 65 63 61 63 66 66 70 68 73 75 77 81 83 84 86
39 42 44 45 54 61 65 68 69 67 70 69 72 74 71 62 61 61 62 66 68 66 68 72 72 71 66 65 68 66 66 70 70 73 72 76 78 79 80 82 86 88 90
41 47 52 55 53 56 66 72 70 72 73 75 73 71 69 69 69 69 69 70 72 72 72 70 68 68 68 75 71 72 73 73 74 77 79 79 79 80 82 86 89 92 93
39 42 50 59 62 60 64 75 76 74 79 81 81 80 77 77 76 77 73 73 74 73 71 66 70 73 74 71 75 77 80 80 78 77 79 82 82 85 89 91 93 94 97
44 47 45 51 61 66 63 74 75 75 77 81 80 77 75 78 79 74 66 68 68 72 73 75 76 76 79 78 73 76 76 78 80 82 85 87 89 92 93 94 95 98 98
42 47 49 50 50 60 64 67 78 67 68 69 72 73 73 74 76 78 81 85 88 84 83 83 82 80 78 79 78 77 78 79 81 84 87 90 93 94 96 98 98 95 92
45 40 40 49 47 51 58 60 60 67 72 70 70 69 71 75 78 78 77 76 78 81 81 81 79 76 76 76 81 84 86 86 89 93 95 99 99 98 99 100 93 89 84
45 46 39 41 45 41 49 57 62 64 65 65 68 71 72 75 75 76 78 79 79 79 77 76 77 78 79 84 89 94 95 94 98 98 100 102 100 100 94 87 84 78 74
48 49 49 50 49 50 53 54 55 58 61 63 66 69 75 77 76 77 77 77 78 79 80 82 86 86 88 92 97 101 103 102 102 103 105 104 99 90 84 76 72 69 67
52 52 53 55 58 60 60 62 64 65 66 67 69 70 75 79 81 81 81 81 82 85 87 91 94 95 98 101 103 105 107 106 106 107 105 99 90 80 74 69 64 65 66
63 61 63 63 65 64 66 69 71 72 74 75 77 79 81 86 86 88 90 90 92 92 94 100 105 106 107 104 105 106 109 109 105 102 93 87 78 70 67 64 65 67 69
71 73 73 75 77 78 78 78 79 80 81 83 83 85 89 91 95 97 99 103 104 104 103 104 106 109 109 110 113 112 110 107 90 85 81 73 68 66 64 67 70 72 75
77 79 81 81 84 87 87 88 91 92 94 95 98 98 99 99 101 103 105 107 107 109 111 113 114 114 112 110 111 103 93 91 86 80 73 67 65 66 69 71 75 77 79

GFSGL_250_spd_054.txt.gz
Wind_Speed
31 29 22 30 35 31 32 28 21 19 18 17 25 25 27 29 31 33 36 38 39 41 37 34 29 27 24 19 18 22 24 26 29 29 30 34 36 38 39 39 41 42 43
30 27 26 25 31 34 33 27 25 16 17 24 27 29 31 34 29 31 33 31 33 27 25 20 20 21 21 22 24 24 27 30 30 31 33 36 37 39 42 44 47 50 51
26 25 31 25 28 31 29 25 23 20 26 22 23 27 27 29 32 31 28 25 23 24 23 19 19 20 24 27 30 31 32 33 32 28 29 34 32 33 37 41 45 47 50
27 28 28 36 26 25 24 20 17 19 21 24 26 30 29 29 29 31 28 29 27 25 25 24 26 26 28 29 31 33 35 32 26 30 33 33 37 42 42 42 43 45 47
27 28 25 25 33 29 23 28 23 27 23 26 25 22 20 22 24 23 24 28 30 31 29 29 29 29 32 33 33 33 26 24 29 38 35 36 37 40 42 41 43 46 46
30 29 28 27 25 29 26 25 27 21 22 18 22 22 22 25 24 26 23 24 24 25 28 26 28 30 29 33 33 33 37 42 45 40 40 38 38 44 50 48 46 46 47
30 34 32 27 25 20 21 24 28 22 23 25 25 29 31 31 27 31 28 28 24 25 29 30 32 32 31 33 35 38 42 47 48 46 49 50 54 53 58 58 53 54 52
32 35 33 29 29 21 21 18 15 31 30 30 31 30 30 30 32 32 35 36 36 34 33 35 35 34 35 37 39 44 46 45 46 50 53 55 57 61 61 63 58 54 58
34 35 36 33 33 33 30 32 28 28 34 39 38 39 39 32 36 41 41 42 42 39 39 35 39 42 42 42 46 51 49 47 50 52 53 55 62 65 62 63 60 57 57
36 36 40 40 41 40 37 37 38 34 36 41 42 45 43 45 45 43 40 46 47 46 45 43 45 47 48 51 50 52 52 54 57 57 59 62 67 67 60 60 60 65 68
41 39 41 45 44 45 47 45 44 40 26 38 44 43 46 48 47 47 47 47 45 47 47 47 47 51 55 54 56 55 56 59 64 64 68 70 69 63 63 64 66 69 73
31 37 41 44 48 47 52 52 50 46 48 40 41 38 41 46 50 52 50 51 49 47 48 48 48 50 55 59 60 58 61 67 68 71 75 74 67 70 69 71 72 73 74
30 33 38 40 46 50 48 55 59 58 58 54 56 57 54 54 56 57 58 58 56 54 55 59 60 60 60 62 63 66 68 69 72 76 74 69 71 71 71 74 75 75 75
35 37 34 35 39 44 49 52 56 62 62 63 58 57 52 53 59 60 62 62 62 63 65 61 61 60 63 67 67 69 71 76 77 71 70 72 76 76 78 73 72 73 77
37 38 38 38 36 39 45 55 58 62 66 69 69 68 69 69 69 72 73 75 74 72 70 68 70 71 72 70 72 72 76 77 73 71 75 78 78 76 74 74 74 78 81
37 40 42 45 46 43 44 45 60 68 69 74 73 74 75 78 80 81 80 80 79 78 77 71 71 71 70 73 77 79 76 76 73 79 81 81 76 75 75 77 78 84 86
40 40 42 42 43 39 40 46 58 62 74 76 80 82 81 84 85 86 82 83 81 80 79 78 80 83 84 84 81 78 78 82 86 88 86 82 79 77 78 81 86 91 93
42 44 46 45 46 45 45 44 46 58 70 73 82 88 87 85 84 84 85 86 89 91 90 86 84 82 75 79 85 87 89 93 94 91 84 82 82 82 84 89 93 97 99
45 45 47 47 50 52 49 46 51 48 52 71 78 82 85 86 86 85 86 83 83 82 84 85 83 83 88 89 87 91 91 91 87 86 85 85 86 89 93 96 100 103 103
46 44 44 47 48 51 52 48 44 40 42 47 56 73 81 81 84 85 84 82 82 83 87 88 87 86 87 89 91 90 89 90 91 88 89 91 94 97 99 102 105 104 105
48 48 47 50 52 51 52 55 51 50 50 52 51 54 61 72 77 79 79 82 86 89 90 89 88 86 88 91 94 94 92 90 91 94 94 96 99 102 106 108 106 108 111
59 56 56 55 55 53 55 56 55 56 58 60 63 63 64 67 71 74 78 83 85 87 88 89 89 89 89 90 92 95 96 96 98 100 100 103 107 110 108 109 112 109 105
68 64 63 59 59 60 60 59 59 59 60 65 69 70 72 74 75 77 80 82 85 87 89 89 90 93 96 96 98 101 105 106 107 106 109 112 112 109 112 111 109 102 91
66 68 70 69 68 69 69 69 71 74 75 74 75 76 79 81 80 82 85 87 90 93 95 96 96 98 98 101 103 105 107 111 114 115 116 116 116 113 108 103 97 88 80
71 74 76 77 78 79 78 77 77 79 81 82 83 85 87 89 91 94 94 96 97 99 102 102 103 104 106 108 110 111 112 116 117 119 118 116 111 99 92 85 78 72 67
84 83 83 84 84 85 85 85 85 86 87 88 88 91 94 96 96 98 100 102 104 107 109 109 109 110 115 118 120 121 122 120 114 108 101 92 86 81 81 79 78 71 63

GFSGL_250_spd_057.txt.gz
Wind_Speed
37 21 27 28 34 40 34 33 31 28 26 25 16 16 17 18 24 30 29 28 31 33 37 33 29 28 28 23 20 15 14 15 17 20 23 23 23 28 31 28 29 31 32
31 28 21 30 29 34 30 28 30 29 23 18 17 19 21 23 26 27 28 30 30 32 26 25 20 25 23 16 15 17 18 20 21 24 26 26 23 25 30 31 34 39 41
22 24 27 25 28 30 26 29 26 25 24 25 22 19 21 22 26 26 28 33 30 26 23 23 24 24 23 22 21 22 24 26 26 27 24 21 26 27 31 34 34 34 36
18 21 25 25 23 32 27 19 22 20 19 19 19 22 21 21 22 22 21 23 22 24 24 25 27 25 27 25 26 26 27 27 29 30 21 25 35 35 36 40 38 38 46
24 23 24 25 24 25 35 30 22 25 23 23 26 25 24 19 19 18 19 20 21 19 19 26 29 30 32 28 25 27 28 29 27 29 36 42 44 45 45 45 49 54 53
23 24 28 27 26 24 23 30 26 24 28 25 23 20 21 24 22 19 22 23 22 22 20 20 24 27 29 30 30 30 29 31 33 34 37 40 47 49 49 51 52 50 56
22 17 23 30 25 23 26 24 20 23 24 24 24 24 24 23 27 27 28 29 26 26 27 30 29 30 29 32 33 33 34 35 36 38 43 47 49 52 52 51 51 55 57
37 33 30 27 34 28 25 30 21 29 29 28 25 25 26 27 30 29 29 29 26 28 28 33 40 40 37 35 35 36 39 42 43 44 48 50 52 55 56 58 60 62 63
29 40 32 27 35 38 37 34 37 36 30 34 32 30 28 32 35 35 35 36 33 36 37 36 38 42 43 43 43 44 47 48 50 50 51 54 56 56 57 61 67 68 70
38 44 48 28 30 42 44 43 43 42 42 35 35 38 40 39 37 39 44 40 42 45 45 44 44 43 45 49 49 48 49 51 49 53 57 58 59 60 63 67 66 67 69
40 46 47 31 37 38 47 43 47 47 46 43 36 33 39 35 42 39 43 44 48 46 43 45 50 51 50 52 52 54 54 54 59 63 61 63 64 65 67 68 71 71 70
50 52 45 32 36 35 43 50 47 52 52 52 45 39 41 41 40 42 44 46 48 50 50 50 52 53 52 54 56 58 62 66 70 70 63 65 67 73 73 74 76 73 72
46 40 32 29 30 37 38 47 51 50 54 55 53 52 47 47 49 50 53 53 54 53 55 54 54 56 57 59 61 65 68 71 70 68 70 75 74 74 77 76 73 74 73
34 31 33 31 30 37 38 40 45 54 54 59 62 61 61 59 51 49 50 52 54 54 57 59 61 60 62 63 67 70 73 74 75 78 73 76 82 80 76 73 73 74 84
38 34 33 34 35 41 42 41 42 48 56 58 61 66 70 68 66 58 56 59 61 66 66 69 71 73 78 80 77 78 77 76 76 75 77 79 78 76 75 75 81 87 91
46 43 44 38 37 39 45 46 45 46 49 55 60 63 68 73 74 74 71 71 72 73 74 76 78 77 77 79 81 78 75 74 79 79 78 76 76 75 82 84 85 88 89
55 52 48 46 43 42 43 49 51 52 51 52 54 59 67 71 75 76 77 74 76 80 79 80 80 80 77 78 80 81 83 81 77 75 75 79 86 92 95 94 90 90 88
60 60 51 52 42 41 44 47 52 54 51 54 51 50 53 63 74 81 83 84 87 89 88 89 91 88 83 82 82 84 83 83 83 84 87 92 90 90 91 89 89 89 95
67 65 58 53 47 45 44 40 44 51 58 56 57 57 57 55 57 62 78 85 91 91 88 88 85 83 83 84 83 87 90 89 87 89 90 88 89 92 93 94 95 95 95
64 64 61 53 51 48 50 48 44 45 50 56 62 62 62 59 57 57 57 59 64 77 85 89 87 86 84 87 86 87 88 89 89 92 95 94 95 96 96 97 99 99 100
69 67 66 62 59 60 52 53 54 55 56 57 60 63 63 65 66 65 65 65 66 66 68 71 75 80 84 86 88 90 92 93 93 92 93 94 95 97 101 100 102 102 104
69 70 61 63 69 73 72 71 68 69 64 65 66 67 66 67 68 69 69 71 74 76 77 76 77 80 83 84 86 89 91 93 95 97 98 100 101 103 105 106 109 107 111
75 80 76 78 74 77 75 75 77 74 72 70 70 73 73 74 76 80 79 79 83 84 84 85 87 89 90 91 93 95 96 98 101 103 106 107 107 109 109 112 114 115 116
84 76 76 81 75 77 80 81 83 83 81 81 84 86 87 85 85 86 88 89 90 91 92 94 95 96 98 100 100 102 103 105 106 107 111 113 112 112 115 115 120 118 112
84 93 88 93 91 88 88 86 91 92 91 93 93 95 99 98 96 97 97 98 98 99 99 101 102 103 103 104 105 108 109 112 113 113 116 118 118 117 112 106 102 98 92
95 100 101 106 106 108 107 101 101 99 94 93 99 105 104 102 102 106 107 107 106 105 104 106 107 106 106 107 108 107 106 103 103 99 97 96 94 92 90 87 85 82 80

GFSGL_250_spd_060.txt.gz
Wind_Speed
24 24 30 30 25 34 39 39 38 37 35 37 35 34 29 26 19 12 19 24 21 20 22 28 27 28 29 25 24 23 16 13 15 15 15 15 14 16 16 20 22 25 27
27 25 30 32 35 32 36 41 40 41 33 34 32 30 27 24 21 19 18 28 31 28 30 29 29 24 23 23 24 20 16 16 18 18 18 16 17 19 17 21 24 27 32
23 24 25 27 31 31 34 38 37 37 32 25 28 28 26 24 23 20 25 25 29 30 31 33 27 25 24 22 22 19 20 22 21 19 18 20 20 21 25 31 33 35 37
13 16 19 25 28 30 32 31 35 34 30 23 23 25 19 20 21 21 25 26 27 24 22 23 22 23 24 24 26 26 26 26 22 18 19 21 23 28 33 38 39 42 44
10 19 24 22 27 30 28 29 29 32 28 25 26 24 21 21 22 22 23 20 17 15 15 20 17 17 21 20 22 27 26 24 23 24 23 27 29 32 34 38 43 44 45
28 21 19 18 21 26 28 30 28 28 35 31 28 25 26 25 25 25 23 21 20 20 19 19 21 19 17 19 19 23 24 25 27 27 29 31 33 34 38 40 44 46 47
35 28 22 25 31 26 27 31 37 33 32 34 32 31 32 27 26 26 26 26 25 24 26 25 25 24 24 25 27 29 30 30 30 30 33 36 39 42 43 43 45 50 53
17 16 16 14 16 26 31 33 37 38 38 33 33 34 32 32 27 28 28 26 26 27 26 27 27 28 29 31 34 34 35 37 39 40 43 44 46 46 44 45 52 53 55
20 22 24 22 25 23 25 38 43 40 40 39 36 39 38 40 34 34 28 29 31 32 34 32 34 32 35 37 38 37 38 39 41 43 46 48 50 48 51 57 62 59 58
29 29 31 32 31 26 34 33 47 44 44 44 41 41 41 38 36 36 39 35 34 34 36 36 38 40 44 41 41 44 45 48 49 50 49 52 58 59 62 65 66 63 65
25 34 35 34 35 35 41 37 40 53 48 49 50 50 49 44 40 37 36 37 34 36 38 39 40 42 43 43 46 49 53 54 56 57 57 58 61 64 65 65 65 66 69
31 31 37 42 33 35 36 39 39 46 56 50 55 54 54 48 46 42 36 41 42 44 47 48 49 50 50 51 53 55 59 64 61 61 60 65 64 65 67 68 68 70 71
35 36 41 31 32 27 30 34 40 36 42 51 49 55 57 54 53 50 51 52 54 52 53 52 54 55 58 60 60 62 64 64 69 73 72 68 68 67 66 68 72 71 75
39 40 40 32 28 33 30 30 30 35 34 36 46 51 56 59 61 60 60 62 61 59 61 63 63 64 63 64 67 69 73 71 65 66 72 74 76 69 74 75 73 78 73
48 44 42 38 30 33 38 37 36 31 30 35 39 45 52 58 59 61 61 62 64 61 62 62 62 64 65 68 70 68 69 74 78 79 76 77 81 83 76 79 75 74 75
51 45 46 43 40 36 39 47 49 37 32 32 40 46 47 51 55 59 61 59 58 58 62 66 67 70 73 75 77 80 82 85 84 85 84 79 77 74 74 76 78 79 79
48 47 49 41 42 44 51 51 37 34 36 33 38 43 48 53 56 54 53 54 54 56 58 60 69 74 77 80 81 78 79 78 77 78 79 77 74 73 76 80 82 86 85
47 49 50 47 53 51 49 49 39 36 39 39 38 42 46 50 52 56 59 62 60 60 64 65 64 65 78 82 81 82 82 78 77 77 79 81 82 85 87 87 88 86 86
51 50 53 58 59 55 55 51 45 44 40 42 43 42 43 47 51 55 59 62 68 70 71 71 68 67 68 67 68 69 70 70 73 77 79 81 81 84 85 84 85 86 86
52 56 59 62 61 58 59 56 49 52 48 44 46 47 41 43 50 54 59 64 68 73 77 78 76 75 74 73 74 76 76 77 77 77 77 79 79 81 85 86 88 90 92
62 62 60 62 62 67 63 61 59 56 55 52 47 48 51 53 53 59 71 79 69 72 75 80 77 75 76 79 81 81 82 85 88 87 88 89 90 90 92 95 97 99 99
63 64 66 70 70 70 66 63 64 66 65 65 70 75 77 75 77 84 89 90 93 98 87 84 84 88 90 90 89 90 92 91 94 95 95 96 97 98 98 100 101 104 105
65 67 71 71 71 73 72 73 72 71 69 72 78 80 85 85 86 93 103 103 100 97 91 92 93 92 93 96 98 98 97 98 100 101 102 101 102 102 104 107 107 113 110
77 78 79 79 78 79 80 72 75 74 81 81 91 95 100 104 108 108 107 107 101 102 96 97 99 98 102 104 105 106 106 104 103 105 106 106 109 109 109 110 111 114 116
85 87 87 84 82 81 83 84 88 89 97 97 98 101 109 117 115 115 116 102 96 91 91 91 91 97 95 94 96 97 97 100 97 98 99 102 103 105 102 99 95 91 90
90 91 96 95 93 92 96 101 105 107 105 111 116 122 122 119 121 111 101 93 87 80 78 78 77 75 76 77 78 79 80 80 81 83 83 84 83 82 81 80 81 81 82

GFSGL_250_spd_063.txt.gz
Wind_Speed
29 26 32 35 27 27 36 37 36 34 36 35 38 38 36 35 33 31 26 23 28 35 32 23 25 28 30 32 31 33 26 23 20 17 16 15 12 14 16 17 17 18 19
18 24 23 19 17 19 27 27 33 39 39 39 32 36 40 39 39 30 27 27 26 29 27 22 25 26 28 30 31 27 25 23 22 21 21 21 19 18 19 19 19 18 22
22 27 19 16 15 17 19 27 28 31 36 38 38 36 30 33 32 32 28 27 26 28 32 32 30 31 31 30 29 28 26 23 23 23 24 23 20 21 22 26 29 31 31
15 14 8 7 12 10 12 15 21 25 29 35 37 36 39 33 30 32 29 29 31 32 31 31 34 35 29 27 27 28 25 26 28 29 21 20 22 24 26 28 31 31 31
22 19 19 11 11 10 13 15 17 22 24 29 34 30 27 26 27 21 26 26 27 32 34 31 27 27 24 24 25 22 18 19 20 20 21 23 26 29 30 31 32 33 36
30 27 28 22 20 15 18 21 20 24 26 29 31 36 31 28 29 30 25 28 28 31 30 26 25 24 25 23 20 20 20 20 19 21 22 23 24 27 29 33 35 39 43
34 33 37 36 28 17 13 18 25 30 33 34 34 33 35 34 32 33 33 29 28 32 30 28 26 28 27 28 28 27 28 27 28 28 28 31 34 36 37 40 43 42 45
31 24 14 13 9 14 18 17 19 23 30 38 41 41 35 33 33 33 34 33 32 32 31 33 32 28 28 28 27 26 28 30 33 32 32 34 37 39 41 43 45 48 49
23 20 18 12 13 19 23 26 33 27 38 36 42 41 42 39 37 36 36 35 35 35 36 36 34 32 31 33 34 35 36 37 37 39 40 42 46 48 48 50 50 53 55
17 24 23 26 27 26 26 30 27 24 23 38 48 46 46 44 41 43 41 41 39 39 39 38 39 38 40 38 40 42 44 45 43 44 45 47 50 52 56 58 60 59 63
12 16 20 21 28 21 15 15 27 25 26 24 37 50 49 48 48 47 47 46 46 42 44 43 45 46 46 47 48 46 47 47 48 49 52 54 57 60 62 65 63 64 67
23 24 22 24 36 21 19 19 27 26 27 24 26 33 45 50 53 50 49 50 49 46 42 45 50 53 53 53 52 52 56 58 61 60 60 62 64 70 69 69 69 70 71
24 24 36 33 41 31 27 28 27 34 34 43 30 23 27 40 51 56 57 57 56 58 56 56 57 56 57 58 61 63 66 68 68 69 67 71 74 75 73 74 74 73 75
26 24 31 36 40 41 40 30 28 32 34 36 26 25 25 32 41 48 61 63 64 65 63 61 62 63 65 64 68 69 69 70 72 71 71 70 70 72 73 73 76 81 83
30 28 38 42 46 46 46 38 34 31 32 28 23 21 24 22 26 39 47 50 52 52 55 54 57 62 65 67 68 69 70 70 72 76 77 78 79 79 81 85 85 80 75
39 44 46 50 52 53 51 43 37 31 32 29 27 26 25 25 19 21 22 32 42 47 49 48 47 53 60 62 64 64 63 66 68 71 76 77 76 72 69 71 70 71 72
48 52 52 52 53 53 52 51 41 38 39 40 36 35 33 31 29 26 23 21 25 31 35 41 48 52 57 63 70 72 75 78 70 74 84 86 87 88 90 89 90 85 87
54 60 60 59 60 55 53 54 49 44 47 46 42 39 37 38 30 31 28 30 31 31 34 35 37 41 54 59 63 62 74 68 72 76 76 74 74 74 75 77 76 76 77
66 64 62 61 63 60 55 58 58 56 61 53 48 50 48 42 38 30 32 41 41 42 41 45 57 64 71 71 72 69 73 71 73 77 77 76 77 78 78 78 79 82 83
63 65 67 69 66 62 64 67 65 67 61 57 54 57 53 54 54 50 60 55 61 62 70 78 71 76 87 89 81 72 70 71 71 72 77 87 83 85 85 86 88 89 91
72 72 74 72 67 66 67 68 65 65 62 61 57 58 62 69 67 60 55 71 80 83 84 86 86 90 88 80 77 77 80 77 80 81 86 94 94 94 91 92 93 96 96
68 63 62 64 69 72 72 71 66 61 66 67 70 70 69 74 84 87 89 87 93 85 91 93 93 91 94 89 83 80 82 87 91 93 91 92 95 97 97 99 99 105 105
78 79 79 80 82 71 63 65 70 71 73 74 75 80 87 93 101 94 98 94 95 106 104 94 96 95 95 92 89 91 92 98 100 101 102 104 106 106 108 108 111 107 107
71 72 73 75 74 74 75 80 84 85 83 86 96 102 99 98 95 96 109 113 114 113 106 102 100 99 96 89 86 87 87 87 89 91 95 99 98 98 102 98 104 106 97
84 84 84 84 84 87 85 86 90 93 94 100 106 108 110 109 106 108 107 111 110 110 107 107 101 97 86 79 74 71 72 73 72 72 73 73 74 74 75 75 80 85 84
84 85 87 87 90 92 93 96 100 101 104 108 113 110 107 110 108 106 107 104 106 106 98 92 84 76 72 73 73 72 72 71 71 72 73 73 74 73 73 73 74 75 75

GFSGL_250_spd_066.txt.gz
Wind_Speed
22 25 27 27 28 32 31 27 33 38 39 40 38 34 34 36 36 36 37 35 36 32 31 31 34 34 32 38 32 38 39 39 37 33 25 24 23 20 19 20 22 24 26
25 24 26 29 30 31 23 21 23 30 31 38 41 39 36 35 35 40 40 38 36 35 35 37 36 37 34 34 33 37 38 38 37 29 26 26 27 26 27 27 27 28 27
27 26 22 23 24 21 21 19 23 22 28 29 33 37 35 33 31 29 29 30 37 39 38 36 38 35 35 37 36 38 37 40 35 31 28 26 27 29 30 29 29 30 32
31 28 22 19 19 14 14 14 18 21 25 29 31 33 32 32 33 31 30 30 33 36 34 33 35 38 41 41 41 38 38 35 32 31 29 32 32 27 28 28 29 33 34
34 36 27 21 22 16 13 11 10 11 18 22 28 30 31 31 30 30 28 29 30 33 35 40 38 40 41 40 39 40 36 34 33 34 33 31 28 27 28 31 34 35 37
35 35 36 31 27 24 18 19 19 20 21 24 24 30 32 33 34 31 30 31 27 25 27 32 35 39 40 40 40 37 31 28 29 28 27 25 27 29 29 30 32 32 36
39 36 37 34 31 33 34 34 21 18 20 21 25 32 33 34 32 36 35 34 35 32 30 33 35 37 37 35 35 35 33 33 34 34 32 31 35 37 37 37 38 40 39
34 34 36 31 27 20 20 23 30 24 22 25 20 28 33 37 37 33 38 38 38 37 34 32 35 36 36 34 35 35 36 37 39 38 37 36 35 37 41 43 44 45 47
18 23 26 23 24 23 17 17 24 27 33 38 36 35 34 36 40 38 36 38 39 37 33 35 37 38 38 39 39 36 34 37 39 38 40 41 44 46 49 50 51 53 55
18 16 17 13 18 14 18 29 18 10 12 18 22 35 39 35 38 43 43 41 42 41 38 36 32 34 40 41 40 40 44 45 47 46 48 49 51 53 53 55 56 57 59
23 25 19 17 18 16 18 17 8 7 18 23 29 20 21 30 41 45 44 42 45 45 47 48 46 47 49 49 50 49 49 49 51 53 54 54 56 57 58 60 63 66 67
23 20 16 16 21 21 25 24 20 21 22 22 25 21 22 20 22 32 42 49 46 49 50 51 51 54 53 53 53 55 55 55 59 60 61 61 62 67 68 69 72 73 73
34 30 21 20 29 30 33 35 32 25 24 21 19 14 19 22 20 17 22 36 50 53 51 52 56 55 57 57 57 59 62 64 66 67 70 70 70 73 75 74 73 75 74
41 45 36 30 38 31 33 37 38 37 30 26 19 16 19 20 16 16 15 22 29 32 51 60 63 64 65 65 66 67 68 67 68 70 69 72 75 75 72 70 70 73 75
44 46 45 40 41 35 32 40 44 41 45 41 33 34 35 23 27 25 28 26 22 26 32 36 46 57 60 62 60 59 60 59 48 50 54 57 66 74 75 73 73 72 73
37 40 44 44 46 39 40 44 43 46 45 39 37 36 40 49 34 35 33 25 25 19 15 18 21 26 31 39 42 41 41 41 45 56 59 64 73 68 67 72 73 73 78
44 44 53 51 55 54 47 47 49 47 53 52 51 47 42 48 48 44 45 44 34 32 26 30 28 30 33 40 39 41 45 57 60 66 71 72 76 70 72 74 72 73 77
52 51 53 56 62 62 62 59 57 57 59 58 56 56 55 55 53 58 56 56 47 33 38 37 40 45 59 58 47 56 60 70 70 74 77 77 79 79 78 84 86 89 83
36 44 49 52 54 59 62 60 60 63 64 60 61 60 61 64 64 65 72 69 59 54 45 50 54 63 71 72 79 75 77 74 73 74 72 72 78 86 87 89 91 85 87
46 48 51 53 55 61 65 68 71 69 62 68 68 69 69 68 68 72 78 78 63 63 66 72 74 79 88 84 83 89 89 88 82 78 76 76 80 89 91 92 96 94 87
47 51 53 55 60 65 66 66 67 69 71 68 69 65 63 69 74 79 82 77 67 72 79 82 83 87 88 94 94 92 92 89 90 87 84 88 87 88 97 100 103 101 100
57 59 59 62 64 64 63 64 68 69 69 71 72 75 74 77 79 83 82 76 76 83 86 90 94 95 94 95 95 96 97 95 92 92 94 94 95 99 99 101 105 102 104
54 57 62 62 62 65 69 69 67 71 73 76 80 79 80 81 86 84 80 84 88 92 94 95 96 98 99 98 98 102 101 100 102 104 100 96 99 104 103 102 102 102 107
65 66 67 67 68 70 70 72 73 72 74 78 81 83 88 88 84 87 88 91 91 91 91 95 105 103 100 101 102 104 104 103 104 96 92 91 88 84 83 82 81 82 83
71 72 73 73 74 74 77 80 81 84 86 86 87 87 89 92 94 92 93 94 92 97 102 102 103 100 105 106 104 102 97 94 87 84 83 83 83 85 85 83 83 83 84
76 75 75 76 77 80 81 83 84 86 88 88 89 91 93 98 99 97 96 102 102 102 110 106 100 101 99 100 97 91 87 86 84 83 83 82 81 81 80 80 81 80 80

GFSGL_250_spd_069.txt.gz
Wind_Speed
27 31 32 34 32 31 29 32 33 35 33 37 42 42 41 41 44 48 47 44 41 43 44 43 44 44 41 36 35 40 41 47 49 46 46 45 43 39 31 29 29 25 24
26 26 27 33 35 31 29 29 28 31 30 35 38 39 39 39 39 36 38 44 44 44 43 42 38 36 36 34 34 39 42 42 43 43 41 43 42 38 32 33 32 31 32
31 36 36 37 34 34 32 24 25 29 31 30 32 30 31 35 40 39 37 37 36 36 40 43 41 39 42 41 39 38 40 43 47 45 41 44 44 37 33 32 33 35 36
31 34 30 31 30 30 23 22 23 26 30 32 35 35 33 35 36 37 40 40 39 36 33 32 36 36 43 44 48 46 45 47 46 45 44 47 40 37 38 38 38 38 36
35 34 33 33 31 28 26 19 18 14 15 24 28 33 36 36 37 38 38 38 37 35 31 33 39 38 40 40 42 44 46 47 48 51 47 46 40 39 41 42 42 36 36
29 34 38 33 33 31 28 21 17 18 22 23 24 30 32 34 37 38 39 37 36 36 37 36 35 37 41 42 43 46 49 51 49 48 46 40 39 39 39 37 35 37 37
32 33 38 39 39 40 38 33 31 30 30 27 28 26 25 30 33 39 43 43 43 37 36 35 33 32 31 36 38 41 42 44 46 45 43 40 38 39 40 41 41 40 42
32 32 30 34 38 39 36 30 23 27 31 32 32 28 25 28 28 30 35 40 38 41 39 40 40 36 32 35 38 40 39 40 41 40 39 41 45 47 49 47 48 46 45
31 33 31 32 33 32 26 22 20 23 26 26 30 34 35 42 43 40 35 36 33 35 38 40 40 39 36 35 35 36 38 42 40 39 41 42 41 44 45 46 47 51 53
32 31 28 26 30 29 26 26 19 16 16 15 11 17 16 23 32 40 38 38 38 40 41 40 41 33 30 33 32 33 28 38 43 42 42 44 47 50 52 52 53 57 58
29 25 25 28 29 30 28 26 12 9 17 16 14 16 10 15 20 21 31 39 42 43 43 44 42 45 45 41 38 39 44 46 47 49 50 47 50 50 54 58 60 61 63
34 31 29 29 31 31 28 28 18 18 18 23 28 21 12 15 18 19 24 22 24 36 44 47 49 46 50 51 52 54 54 53 55 56 54 54 56 59 61 65 68 68 67
38 31 25 26 28 24 29 30 28 29 29 23 19 23 17 20 16 12 16 32 30 26 28 52 52 53 55 54 55 55 56 55 54 56 58 61 65 68 70 70 69 70 71
47 38 35 36 33 38 33 36 35 29 32 31 27 32 35 36 31 35 24 28 25 26 27 30 43 57 60 59 58 59 60 58 57 58 62 66 68 71 75 74 69 64 65
60 50 46 48 46 47 46 48 43 42 44 43 40 40 40 33 31 37 36 39 32 36 43 33 29 31 39 43 50 54 55 57 59 62 65 66 67 62 60 59 64 71 76
50 50 50 49 46 51 48 43 48 49 51 52 50 55 48 51 47 43 44 41 44 44 44 38 36 29 28 31 27 25 32 36 33 40 47 52 52 55 62 69 75 75 78
43 43 46 49 44 46 44 47 47 44 52 53 58 57 60 62 65 58 52 53 50 54 52 52 38 44 41 41 41 47 47 48 55 67 65 58 60 73 80 77 81 79 79
35 36 35 40 50 51 49 45 50 53 56 57 58 58 59 62 60 59 59 60 58 58 59 59 57 59 48 53 50 60 65 61 61 62 66 73 78 79 78 86 87 86 85
34 41 45 44 46 50 50 50 53 58 60 62 60 60 62 60 62 66 65 64 61 58 64 63 63 64 60 66 65 70 70 66 68 69 74 78 83 87 86 91 93 92 92
55 48 45 47 47 45 49 51 52 55 55 59 58 56 62 63 67 69 67 62 65 67 68 68 70 69 72 70 70 68 72 74 79 82 85 87 90 93 96 96 98 100 102
45 48 50 47 51 52 50 49 51 55 59 62 63 64 67 69 70 69 71 72 70 69 74 71 75 78 76 80 78 76 78 83 87 86 92 99 98 101 103 104 102 103 103
48 52 52 48 46 53 55 54 54 57 59 62 63 66 65 65 69 70 73 74 76 76 77 79 82 80 82 84 86 86 90 90 92 97 101 103 103 105 106 105 105 106 107
54 50 49 52 55 55 54 60 65 68 72 70 70 71 72 73 73 76 77 78 81 81 85 86 88 90 90 92 93 93 97 99 104 105 108 108 109 108 107 105 106 106 102
66 67 67 67 67 60 61 66 67 65 68 72 74 73 76 78 79 81 82 85 86 88 91 92 93 96 98 97 99 106 106 109 110 107 108 111 108 104 101 100 98 94 92
67 70 74 75 76 76 71 71 71 72 74 78 79 80 82 84 85 87 87 89 93 95 95 95 99 102 105 104 107 109 110 110 106 108 102 99 94 93 91 91 90 89 89
73 76 79 80 78 76 77 79 80 82 85 85 86 89 91 91 93 94 97 99 100 103 105 108 109 110 110 114 113 109 107 101 100 95 91 90 87 83 77 74 74 74 75

GFSGL_250_spd_072.txt.gz
Wind_Speed
26 29 30 28 34 35 35 35 33 37 33 32 38 38 38 37 41 40 44 49 55 49 51 49 51 51 46 44 44 41 43 47 48 45 44 42 45 39 40 42 42 42 37
28 27 29 32 32 33 35 38 38 36 39 42 40 38 38 40 40 43 44 50 52 51 51 47 47 48 45 45 42 43 45 44 37 47 48 48 45 43 41 41 44 44 38
30 27 28 30 31 35 35 35 33 35 38 38 39 40 42 39 38 41 41 41 44 47 49 49 47 48 52 50 45 42 43 43 45 47 54 51 46 47 45 43 47 46 40
33 34 32 33 34 35 30 28 28 27 30 34 36 35 35 35 36 35 40 40 40 43 43 41 41 41 43 47 49 49 47 48 52 53 52 51 51 46 45 45 49 49 42
34 36 35 34 35 34 30 27 26 24 26 26 27 30 34 38 40 40 40 39 42 41 40 42 43 44 43 42 42 44 47 48 55 57 58 56 53 50 47 52 52 49 43
36 36 36 35 40 39 38 35 28 27 27 25 25 22 21 25 34 42 44 44 45 45 44 44 42 44 44 41 42 44 44 45 45 46 50 49 51 55 53 52 50 44 44
32 31 35 35 35 42 39 35 33 32 31 29 27 24 23 27 28 30 36 39 43 45 44 42 41 41 44 45 44 43 42 42 42 45 49 52 53 50 48 46 45 44 43
29 30 32 32 36 39 42 44 39 37 36 33 31 33 30 33 33 33 31 31 36 37 41 46 47 44 44 43 41 37 34 34 36 39 40 39 39 41 42 41 41 46 49
20 22 25 29 37 40 41 41 37 35 34 31 28 29 31 34 31 33 41 46 44 39 38 35 41 40 45 43 42 38 42 40 37 39 38 37 38 39 40 39 41 42 42
14 24 28 33 38 40 41 40 36 30 32 27 29 29 23 17 11 10 16 18 30 39 42 41 36 37 38 39 44 43 33 31 30 30 27 33 39 38 40 42 44 46 46
10 16 14 42 35 39 37 37 35 32 30 28 25 21 12 10 7 3 6 14 22 15 14 26 34 38 43 43 41 43 41 39 40 42 46 50 51 52 51 53 53 51 51
8 23 28 39 44 33 35 36 33 30 24 18 18 30 27 15 12 7 5 17 26 20 22 17 15 29 43 48 51 46 49 51 52 50 50 51 55 57 58 56 56 57 59
11 25 23 58 68 39 35 34 31 29 33 32 27 27 30 30 23 24 26 23 27 20 26 21 18 30 22 32 50 53 57 58 60 58 60 64 65 63 62 62 62 63 65
33 36 58 76 69 57 46 45 39 35 35 39 40 39 33 34 31 31 28 27 32 38 38 37 33 25 23 26 28 35 47 55 61 65 64 57 60 65 60 63 67 69 70
30 47 49 68 62 58 59 53 44 41 40 40 40 46 47 45 43 43 42 43 43 48 50 48 42 36 36 33 27 33 32 38 43 53 59 58 52 57 56 57 57 58 59
48 53 49 44 52 56 58 54 49 50 48 49 51 52 55 55 55 49 50 51 49 51 51 50 47 47 46 44 35 37 38 44 44 40 37 38 53 53 55 56 65 62 56
53 56 63 58 52 43 48 62 62 60 59 55 55 57 57 57 57 55 57 58 57 57 61 56 56 54 55 56 52 49 50 41 42 53 55 53 53 63 63 61 62 68 70
45 49 56 44 55 52 54 58 64 66 61 61 57 57 57 58 58 59 57 57 61 63 60 61 60 63 61 62 58 60 57 57 53 57 57 65 66 65 68 71 75 73 75
43 40 46 47 48 50 51 47 49 49 58 59 59 60 57 57 56 58 61 63 65 64 64 64 62 64 66 65 67 67 65 66 65 71 73 76 76 72 73 77 81 81 83
43 47 49 50 46 45 53 61 57 53 54 58 63 61 62 59 59 59 63 66 64 64 68 68 69 71 71 70 71 72 75 75 73 75 77 81 79 80 84 84 85 87 93
46 52 50 49 52 54 55 57 61 58 55 54 57 60 62 61 62 62 60 65 66 68 73 68 71 72 75 76 79 78 75 78 83 85 86 83 88 91 92 96 98 100 103
51 54 57 59 55 55 55 57 60 63 60 59 61 60 62 61 63 63 68 68 70 73 74 76 83 81 80 82 84 85 86 88 89 90 94 96 98 100 103 106 107 109 111
53 56 63 61 59 59 61 63 64 63 64 63 64 67 67 70 68 65 69 73 76 80 84 84 84 85 86 87 89 91 92 94 97 99 103 105 108 111 111 113 115 114 110
53 57 64 66 60 62 60 68 69 68 67 66 66 67 70 74 77 80 83 82 83 83 86 86 89 92 93 94 95 98 101 107 110 111 113 114 113 113 109 109 106 100 99
52 57 65 66 65 66 64 67 67 70 69 69 70 73 73 78 78 76 81 85 90 92 89 89 91 95 99 101 105 107 111 114 115 116 116 113 109 103 102 99 94 95 94
56 61 62 67 71 72 71 74 75 77 79 80 82 82 85 89 90 93 93 93 94 96 97 101 106 107 107 113 115 116 117 115 114 114 110 102 96 92 91 90 86 81 77

GFSGL_250_spd_078.txt.gz
Wind_Speed
42 42 38 37 27 26 26 28 30 38 42 39 37 31 35 39 39 43 43 42 49 52 51 51 46 43 43 45 47 49 50 49 47 49 52 51 51 50 49 47 49 48 47
42 51 39 35 27 24 23 23 27 30 37 41 37 32 30 31 37 40 41 43 41 40 37 41 45 47 45 45 49 54 54 50 51 55 53 52 55 52 52 51 51 48 43
53 52 40 33 27 23 22 20 23 28 31 40 42 39 39 37 35 34 38 41 45 44 43 45 49 50 50 54 54 50 51 52 54 54 53 57 58 58 56 56 55 51 52
50 42 39 33 25 21 20 17 16 20 30 33 37 41 42 43 39 38 40 43 43 42 44 46 46 49 50 52 54 56 54 52 54 60 60 59 59 58 58 57 57 58 53
59 45 40 29 21 16 15 12 13 18 22 29 38 43 47 48 48 43 43 44 47 48 47 46 47 51 53 55 58 55 55 53 57 62 62 60 53 48 48 53 53 53 52
52 42 24 11 4 6 5 10 14 15 18 25 29 34 41 43 49 47 42 36 43 46 44 47 47 47 50 52 53 56 54 49 51 53 52 48 46 48 47 48 50 49 48
54 39 26 28 14 4 1 5 12 18 16 22 25 29 33 35 35 33 36 35 36 43 49 45 36 33 37 41 48 53 51 52 52 50 52 52 53 52 52 46 44 52 53
56 41 30 22 12 12 19 25 20 16 14 15 18 23 31 35 42 33 31 35 38 45 45 43 35 34 33 34 35 40 46 50 57 55 51 50 51 50 48 46 46 46 46
56 49 38 24 16 15 30 38 36 52 42 39 31 34 26 30 34 31 31 28 32 39 50 50 47 43 41 40 41 42 40 38 41 45 48 49 46 39 37 39 43 48 50
41 52 45 45 33 32 41 51 46 50 62 44 42 34 45 34 31 29 26 24 21 17 26 33 35 29 27 24 38 43 46 45 42 41 40 42 41 41 44 43 42 43 44
43 46 47 49 53 51 25 45 46 46 43 45 43 43 36 39 29 28 25 26 23 19 14 10 9 7 6 12 19 15 17 28 37 40 39 40 44 44 44 43 44 47 48
53 48 46 45 49 48 42 47 53 61 38 34 33 44 46 42 30 29 30 28 33 29 28 22 20 19 18 21 20 21 28 22 19 21 24 28 34 42 49 52 54 55 56
53 52 49 41 51 49 45 39 59 45 25 31 31 36 41 39 39 33 34 36 37 39 40 39 36 33 35 30 30 27 28 27 26 27 32 31 30 34 37 41 41 44 46
50 51 49 42 50 53 46 32 40 44 20 34 36 41 46 45 43 44 37 39 40 40 44 44 42 42 40 42 43 41 41 39 38 34 35 37 39 41 42 42 45 44 44
53 50 48 45 45 45 41 26 40 30 30 31 38 43 41 46 41 43 43 41 41 41 41 51 47 48 46 46 47 46 46 47 47 47 47 47 50 49 49 50 48 47 51
55 53 49 46 41 42 46 36 43 32 38 44 45 48 47 47 50 49 47 50 48 50 50 48 48 49 49 53 53 55 56 59 60 58 58 57 58 61 60 56 58 56 54
53 51 52 47 42 44 43 41 51 47 39 44 49 47 48 50 54 54 54 54 57 54 56 53 54 47 48 51 54 57 59 58 60 61 61 62 61 61 65 65 63 64 68
53 53 51 53 53 49 43 49 53 60 58 54 54 53 56 55 54 61 61 60 62 61 58 59 59 63 56 57 60 63 64 64 65 64 65 69 71 72 74 72 70 71 72
56 57 57 56 56 55 53 51 53 59 58 59 58 62 65 65 64 62 63 66 63 66 69 70 72 71 69 70 73 73 71 72 69 71 71 73 77 77 79 80 78 79 82
60 61 60 62 63 63 61 59 53 60 58 54 55 61 62 67 66 69 68 64 68 71 68 72 71 70 70 73 76 75 76 77 77 77 78 79 80 82 82 83 84 86 92
63 64 64 64 67 68 65 63 61 57 56 58 62 64 68 67 68 70 68 70 71 72 72 71 71 71 71 71 71 70 73 75 78 79 79 82 84 85 85 87 91 95 97
52 52 53 55 58 59 60 63 61 59 59 63 70 76 75 74 76 76 75 75 76 77 77 77 75 77 77 73 73 75 78 79 79 81 84 86 89 89 92 95 98 99 103
41 43 46 46 46 47 54 58 58 63 66 67 68 73 74 74 74 76 78 77 78 82 84 83 81 82 78 75 76 80 82 81 83 86 87 90 94 97 100 101 102 105 108
42 44 44 43 38 41 43 49 58 62 67 68 69 77 80 79 79 79 78 77 79 85 85 83 88 84 81 83 84 86 89 91 90 91 95 96 102 103 104 107 112 116 119
45 44 44 43 42 42 41 45 52 56 61 65 69 71 74 76 78 78 83 84 85 81 82 79 80 84 88 90 91 90 93 96 98 98 99 102 104 106 110 115 119 124 127
54 53 50 51 49 50 49 50 50 52 56 56 57 63 69 72 77 79 79 84 84 85 85 85 85 86 89 91 94 98 100 103 105 106 106 109 113 117 122 127 130 131 134

GFSGL_250_spd_081.txt.gz
Wind_Speed
39 32 27 38 27 23 21 21 19 22 27 31 36 37 34 29 29 34 42 48 48 51 51 49 48 46 48 47 44 44 45 47 48 46 48 49 48 45 45 45 45 43 44
34 27 32 31 23 21 18 18 17 18 23 27 31 37 38 33 30 30 32 37 39 42 47 46 43 41 40 40 41 40 42 42 45 46 49 51 53 49 46 49 46 46 48
35 34 36 38 25 16 15 13 13 12 17 23 27 33 37 36 32 31 32 33 35 41 45 49 45 42 39 41 41 42 44 43 45 50 52 55 53 52 50 50 52 52 51
47 46 41 39 28 14 6 10 8 7 8 14 22 27 35 37 37 35 36 37 35 35 37 45 49 50 50 50 49 47 50 51 51 51 52 52 54 51 48 50 45 52 55
41 36 39 35 41 5 5 19 17 13 10 13 16 16 22 31 37 40 41 42 45 43 39 38 41 44 48 49 51 50 50 51 52 54 53 48 49 43 47 47 45 55 53
45 40 38 40 29 13 12 14 16 12 17 23 17 20 22 10 12 22 33 42 43 47 42 38 37 40 44 46 50 54 55 54 49 44 48 54 51 47 47 50 49 45 49
44 44 45 39 37 22 18 10 27 30 34 30 28 28 29 29 19 30 24 27 33 31 29 29 32 32 35 39 40 35 37 36 36 37 41 44 45 45 45 42 41 40 40
49 50 57 51 41 32 23 28 36 35 36 42 41 42 29 22 23 28 33 35 33 30 31 28 29 33 35 42 43 39 38 38 36 36 40 44 47 52 51 44 42 41 43
64 63 60 58 57 54 52 42 50 40 43 49 44 46 38 24 24 28 28 38 32 31 27 20 26 26 29 35 33 42 47 47 42 40 39 39 38 39 41 41 42 41 41
69 63 69 72 68 49 47 39 43 54 51 54 47 36 39 30 29 33 29 37 27 28 30 28 28 23 26 30 26 26 20 18 19 26 39 42 41 36 39 41 40 40 44
70 68 69 62 55 44 49 47 52 49 56 53 56 57 51 57 48 36 34 33 37 31 27 26 21 21 20 19 15 15 11 12 14 17 16 17 24 27 28 30 32 35 37
74 74 68 63 60 58 53 50 52 51 55 55 56 51 32 37 44 42 39 34 34 31 31 33 28 26 24 26 24 22 24 18 20 24 20 20 20 24 30 31 30 32 34
78 70 68 61 56 59 52 48 47 42 44 59 63 54 39 41 38 41 41 41 33 36 34 38 42 37 34 36 34 34 34 34 30 31 33 33 34 33 32 33 35 37 38
76 71 65 62 53 54 58 50 43 37 32 46 65 55 48 47 40 45 44 41 38 38 39 42 46 48 46 45 45 44 43 46 47 44 39 44 45 49 48 47 47 48 46
62 63 65 58 52 51 55 46 43 32 29 33 41 38 36 36 43 46 47 47 44 43 43 43 47 52 52 49 49 51 52 52 51 52 53 55 54 56 58 58 57 55 55
64 65 63 60 61 62 58 49 44 36 38 41 46 53 40 44 44 52 52 51 45 39 40 43 49 55 57 51 49 49 52 58 50 53 55 54 53 57 60 63 65 64 62
69 71 73 69 72 74 67 56 48 43 39 43 49 56 54 52 55 53 54 53 47 47 48 47 46 50 56 60 63 59 56 57 55 53 58 59 62 63 67 70 72 71 72
74 77 78 79 79 79 74 63 53 51 41 57 54 58 69 58 56 58 59 56 56 56 50 53 55 56 59 58 63 64 63 63 64 64 66 70 76 79 76 75 79 80 81
85 81 85 86 87 80 61 57 56 57 56 57 61 64 71 73 61 60 64 64 63 64 62 58 55 58 60 63 66 66 67 69 71 75 75 74 76 77 77 81 82 85 85
87 85 79 70 67 65 65 58 56 55 59 55 61 65 68 67 68 66 67 69 70 69 66 64 63 64 63 63 67 68 69 71 71 73 78 82 84 84 83 82 82 85 87
80 70 67 69 60 63 62 61 61 59 61 61 58 55 65 60 60 70 70 69 72 74 77 79 73 74 72 69 72 77 76 77 82 84 85 84 86 84 85 87 88 89 92
65 61 58 56 53 52 54 55 57 59 64 65 61 59 59 61 63 72 77 76 76 75 77 82 82 83 84 84 85 87 86 89 86 87 89 89 93 95 95 99 97 96 95
49 45 44 42 42 44 44 44 44 46 48 51 58 62 64 67 69 76 78 77 80 81 81 81 81 84 87 89 87 86 89 90 92 93 96 96 95 97 97 99 101 100 102
51 42 38 37 39 37 37 36 36 37 38 45 53 57 62 65 70 74 80 82 83 84 84 85 86 89 87 87 89 90 92 93 94 92 92 93 97 97 98 99 102 99 100
53 49 46 46 41 39 38 38 39 40 38 40 43 49 56 62 67 72 75 78 78 81 82 81 81 82 84 85 84 84 85 86 89 92 93 97 100 101 104 108 111 114 115
51 48 48 51 50 47 43 42 43 43 43 46 45 46 49 54 61 66 70 73 76 76 78 76 77 78 79 81 83 89 90 89 90 92 96 99 101 104 105 107 109 112 112

GFSGL_250_spd_084.txt.gz
Wind_Speed
23 35 36 26 39 35 19 11 13 14 18 21 28 38 39 38 34 35 42 51 50 47 48 46 46 45 46 45 45 46 47 48 47 46 42 46 47 51 51 50 47 48 44
27 33 36 37 33 51 31 17 12 10 13 16 19 24 36 39 36 36 36 35 35 40 44 48 50 51 50 49 48 48 48 45 44 44 45 45 43 43 44 42 45 46 49
35 34 34 33 24 42 44 25 11 5 5 2 9 15 20 27 33 35 32 30 29 31 36 40 40 41 42 41 40 37 40 41 45 45 46 45 47 47 47 47 46 46 43
41 33 25 21 36 38 35 18 22 19 16 13 11 6 10 16 19 26 29 30 28 31 32 33 36 36 39 43 46 46 44 43 43 45 45 45 46 47 47 48 47 42 41
29 27 24 31 40 43 27 30 22 17 15 12 8 8 13 10 6 12 21 30 34 34 34 36 39 43 44 40 38 41 42 42 45 48 50 50 49 50 51 55 50 41 41
23 22 16 17 45 45 20 19 26 33 23 15 18 19 20 18 13 6 6 12 20 21 24 26 27 27 35 39 44 43 43 45 48 46 46 46 47 46 44 47 45 41 45
30 27 19 38 47 55 32 14 15 24 30 34 24 23 26 22 24 24 24 19 17 17 21 23 26 25 25 24 31 35 35 34 33 31 31 34 38 39 36 35 38 42 42
40 23 19 32 45 53 63 49 31 36 38 38 46 43 26 21 19 12 16 14 16 19 24 25 25 24 23 22 24 24 26 31 36 40 39 40 38 37 38 38 38 40 43
49 49 45 45 54 62 65 67 62 52 50 47 53 50 45 43 38 30 31 30 17 19 19 18 18 17 22 30 27 22 19 18 22 19 24 37 44 44 36 31 31 33 30
57 58 56 49 58 59 61 62 61 50 47 39 44 46 53 51 50 49 46 39 35 27 25 23 31 29 32 26 25 23 23 22 19 18 20 17 12 21 31 33 30 33 32
59 60 66 63 64 68 68 68 67 69 58 56 57 47 47 52 52 56 49 46 51 47 49 40 35 33 32 30 23 28 28 24 22 16 13 9 8 8 8 11 16 21 25
59 65 64 71 68 62 63 65 63 65 65 62 58 56 53 52 50 48 57 53 42 40 43 47 36 34 34 28 30 31 32 29 25 23 26 22 21 20 21 23 28 30 33
65 66 63 65 69 66 64 68 66 64 63 66 68 70 55 57 55 48 46 46 43 45 46 46 38 35 35 31 38 39 39 40 37 35 32 35 33 33 35 36 37 42 45
73 78 77 74 69 69 69 71 73 71 65 65 63 63 60 49 50 60 57 50 45 44 47 47 45 42 39 38 41 45 48 43 44 47 46 47 50 48 48 46 51 46 45
78 82 81 80 81 80 80 80 78 75 70 56 39 40 39 43 37 42 42 39 39 45 48 48 47 47 46 45 44 45 47 54 60 56 53 53 52 55 54 52 49 53 52
74 72 80 88 92 91 89 86 81 72 70 66 45 32 36 42 34 28 34 37 45 52 53 51 49 50 51 51 50 50 53 53 57 59 55 53 53 54 51 54 57 57 59
80 79 73 68 73 76 77 82 78 69 63 61 59 41 36 45 40 36 42 45 52 55 57 55 53 47 45 46 48 51 54 54 54 56 58 60 64 60 63 62 61 65 68
73 75 76 80 75 72 67 66 70 71 65 60 63 56 53 50 48 54 48 49 48 52 56 57 61 54 54 59 57 56 59 59 60 62 64 63 64 66 67 64 65 63 66
81 78 74 70 67 68 66 67 69 67 69 74 73 73 69 49 50 56 63 60 61 59 59 60 61 65 64 58 59 59 57 60 63 65 65 68 67 65 63 68 72 76 81
79 80 83 85 85 84 81 80 75 78 80 82 80 60 57 55 70 68 61 58 62 64 65 64 66 67 65 62 64 61 62 63 64 66 66 70 73 77 80 81 86 88 91
85 87 85 90 89 91 92 91 82 83 84 74 60 54 55 59 63 69 58 50 58 63 68 69 72 73 74 72 70 68 66 69 71 77 80 82 82 84 86 87 88 91 94
88 91 85 89 77 73 84 94 91 81 69 64 61 59 61 65 65 63 66 68 62 62 66 70 70 69 71 74 72 75 77 80 86 89 90 92 90 89 91 91 94 96 95
80 77 70 65 68 66 63 56 53 48 48 50 53 54 61 67 70 67 68 73 68 73 72 69 71 72 73 78 78 79 80 82 82 82 85 88 91 94 96 99 97 98 97
77 71 65 67 67 62 58 49 42 41 41 42 43 46 54 63 70 73 73 74 76 78 79 84 85 85 84 83 84 87 90 93 94 92 93 97 99 96 96 96 97 95 94
57 59 60 59 57 55 52 48 43 44 40 39 37 38 41 47 56 66 73 80 83 85 86 85 87 89 86 86 86 86 87 81 81 88 86 84 85 84 85 86 92 94 97
41 46 51 54 54 54 53 50 49 48 45 42 43 41 44 45 46 50 57 67 72 71 73 75 77 78 79 80 77 80 79 79 80 81 82 83 85 88 91 93 96 99 103

GFSGL_250_spd_087.txt.gz
Wind_Speed
24 28 33 34 34 34 34 32 12 9 13 15 21 28 40 41 40 40 44 48 55 52 51 49 48 49 49 47 46 45 45 47 46 47 49 48 49 50 46 47 49 46 47
33 34 40 39 40 38 32 27 24 11 5 10 17 25 35 42 40 38 37 40 49 52 53 52 50 48 48 44 46 49 48 52 51 50 51 53 52 50 48 46 48 48 43
33 30 30 33 36 36 26 30 17 23 22 11 4 11 22 32 39 37 34 32 32 34 35 43 49 51 53 53 55 51 47 45 47 49 49 49 52 50 47 48 46 45 46
40 33 34 35 31 28 20 24 24 22 21 21 19 20 4 10 21 33 40 38 35 33 33 32 32 33 35 35 35 34 33 36 42 45 45 46 48 51 50 49 49 49 49
43 43 40 37 29 27 18 19 19 24 32 23 19 16 20 18 11 11 13 31 38 36 34 32 33 33 36 39 36 38 38 39 40 40 44 46 52 53 54 54 53 55 52
37 39 45 40 32 30 25 15 14 21 36 23 24 18 20 17 23 21 14 14 8 10 16 22 27 23 28 37 37 36 35 40 43 44 45 48 50 51 51 51 49 50 53
43 39 46 43 33 33 31 22 25 18 16 30 26 26 22 14 18 20 18 11 11 10 11 11 13 15 15 17 16 18 23 28 32 36 38 40 43 40 36 36 37 37 39
56 53 56 45 33 33 34 23 30 36 33 33 24 20 29 29 23 20 21 16 15 17 17 16 21 14 14 17 13 18 21 29 28 29 32 35 43 43 43 41 39 38 34
53 53 62 54 35 32 33 31 32 37 35 35 36 38 38 38 41 35 30 39 41 33 30 32 27 26 22 25 30 40 29 32 24 27 28 31 29 28 27 41 43 41 40
57 53 66 61 45 43 37 41 39 37 40 46 34 30 29 31 31 37 43 37 47 51 47 47 41 33 38 39 39 41 32 37 32 25 31 28 26 28 16 11 19 27 27
63 63 67 63 57 58 59 58 58 58 58 61 59 57 55 51 52 46 40 42 41 46 47 51 55 52 50 49 44 40 39 35 26 33 27 29 28 21 16 11 10 12 15
68 69 68 65 66 62 56 60 66 71 69 69 62 63 61 54 55 55 56 57 52 50 52 52 49 49 47 51 55 49 34 38 34 34 37 34 35 30 28 26 23 23 26
68 71 69 63 61 64 66 64 65 61 60 64 64 61 58 52 53 60 61 56 54 49 52 54 51 56 54 53 52 48 46 46 43 38 40 38 40 40 39 38 37 40 45
74 65 69 65 63 64 67 72 74 79 80 71 72 67 67 62 53 54 60 63 54 49 46 53 56 52 53 50 47 47 50 48 51 47 45 42 42 42 46 47 48 53 47
79 73 75 73 71 71 71 69 69 74 76 77 72 72 71 70 67 58 61 58 55 42 35 46 50 53 51 50 53 54 53 50 49 50 49 51 50 53 56 56 59 53 50
73 81 80 78 77 77 75 77 76 75 77 79 77 78 74 76 80 74 65 45 37 37 36 42 39 41 46 48 50 51 53 56 54 54 58 56 57 56 54 57 57 58 57
77 75 77 78 76 76 74 76 75 75 75 78 80 82 78 76 74 74 61 48 32 38 39 44 46 46 52 55 58 59 57 55 58 59 60 63 62 62 59 60 61 63 66
78 79 80 78 82 85 84 82 78 79 78 77 78 82 76 74 71 78 63 50 38 41 46 51 52 52 55 55 55 58 60 60 60 61 63 64 62 62 62 66 68 70 71
77 75 78 81 82 86 88 89 87 85 86 83 83 86 76 78 70 59 55 52 53 48 52 58 58 59 59 58 58 60 65 67 67 68 66 66 70 71 74 74 78 78 77
88 85 83 90 96 90 89 90 91 90 94 95 89 84 75 77 70 62 61 51 57 50 51 64 70 67 69 69 69 70 69 67 69 71 71 70 70 72 74 76 76 75 76
90 92 91 90 95 94 96 97 94 94 92 84 84 87 82 79 74 61 59 56 53 51 49 55 60 64 67 72 75 74 75 74 74 69 71 74 72 74 77 78 79 83 83
90 94 93 93 98 95 93 94 87 85 86 87 83 76 71 69 64 59 60 54 50 60 64 57 65 61 64 71 77 80 77 79 78 77 78 79 77 78 82 84 86 88 91
104 100 101 98 99 101 92 91 87 91 86 77 80 72 65 59 51 49 55 60 64 62 62 66 63 65 65 68 69 72 76 77 81 82 84 81 79 79 83 87 90 92 95
107 106 110 113 118 98 92 89 93 88 77 71 65 62 61 53 47 47 53 61 66 72 80 78 74 76 72 73 76 78 80 82 81 83 80 83 86 89 91 93 97 100 104
71 75 76 75 74 76 83 77 70 67 65 60 56 53 50 46 45 45 48 54 68 75 76 78 81 85 85 82 82 84 87 89 90 93 95 98 99 101 105 105 96 91 90
50 52 55 56 55 51 52 54 56 60 60 58 56 51 49 45 46 45 48 51 59 68 74 78 82 86 91 92 94 95 97 97 97 98 100 99 96 88 87 90 93 95 96

GFSGL_250_spd_090.txt.gz
Wind_Speed
12 11 24 29 26 28 32 34 27 34 34 20 18 23 32 41 47 55 54 59 57 54 54 50 48 44 43 43 40 41 42 42 42 41 42 43 46 48 51 50 50 50 52
8 18 20 18 26 33 36 33 28 26 28 24 14 13 22 29 35 47 53 55 57 59 58 56 53 50 49 48 49 49 50 52 51 55 55 54 55 56 56 57 57 58 56
25 20 24 18 23 37 39 37 29 28 26 19 19 15 10 18 27 34 48 50 46 49 55 59 59 55 55 53 53 55 53 55 55 56 57 57 57 58 60 62 62 61 58
32 61 36 24 24 35 37 44 34 28 31 22 8 17 21 11 11 23 34 43 45 45 42 46 51 51 52 54 55 54 55 58 58 55 50 48 46 46 47 46 47 48 52
12 54 46 32 31 37 42 43 38 26 29 19 2 12 16 13 14 11 6 32 41 38 39 38 40 40 38 40 38 39 39 40 40 42 43 42 41 41 43 45 49 50 50
17 38 43 27 29 37 41 40 38 29 24 25 13 5 4 4 1 8 9 7 4 21 36 43 42 41 39 34 34 38 44 45 46 45 43 45 50 50 49 52 53 52 50
53 43 34 31 32 29 33 34 36 33 23 17 17 11 4 8 7 3 2 5 10 10 11 13 19 22 20 22 22 27 25 26 24 22 22 27 32 37 39 43 47 48 46
52 33 42 37 45 43 41 36 41 40 39 32 31 24 24 21 15 15 14 10 13 17 18 14 20 21 17 15 17 17 20 19 22 26 29 34 39 40 35 38 37 36 44
57 53 39 43 48 44 48 49 41 42 40 44 45 35 26 28 30 25 25 24 26 19 26 31 34 33 37 39 36 35 32 38 38 38 34 37 36 39 40 40 36 35 38
57 51 45 45 50 51 52 53 43 39 43 46 46 46 41 33 35 32 36 37 35 28 25 26 37 40 39 45 45 42 37 46 54 57 46 44 39 37 38 37 36 33 25
57 52 45 49 52 55 55 51 44 39 47 46 45 46 42 44 49 43 40 39 37 38 38 38 38 42 38 40 43 41 42 47 55 55 48 47 39 36 39 40 38 32 28
61 51 50 56 57 59 58 55 53 44 44 49 50 54 56 56 59 63 61 61 61 58 54 51 49 48 45 37 38 45 52 54 53 53 52 52 46 42 40 38 43 37 35
67 65 60 53 54 57 59 59 59 59 55 54 58 54 58 63 66 69 68 72 73 66 64 66 61 51 47 43 41 50 55 57 57 59 58 56 55 54 49 42 46 45 46
73 75 69 63 59 65 62 63 63 64 62 64 65 67 67 65 69 73 74 78 78 78 77 72 64 65 62 55 45 48 55 60 61 63 59 55 55 55 57 53 49 54 51
70 71 72 73 67 66 68 67 69 71 68 65 68 69 70 71 70 72 73 76 80 76 74 72 69 74 71 63 52 45 58 61 61 58 61 59 58 59 60 60 59 59 61
64 67 71 70 71 79 77 76 75 74 70 71 70 69 68 69 69 69 68 74 76 81 68 63 63 62 52 59 52 47 51 60 65 63 62 62 61 61 62 65 65 66 68
65 71 71 74 73 80 85 86 88 81 77 76 75 74 78 77 78 75 74 72 71 68 68 73 71 56 44 39 41 48 52 56 56 57 59 59 62 62 63 66 70 71 70
62 64 69 77 79 81 81 83 87 87 82 79 80 83 83 80 78 73 71 65 65 64 63 59 56 54 45 43 48 49 52 54 59 60 58 63 65 70 71 72 73 73 75
68 70 73 75 75 73 75 83 86 87 90 89 84 81 83 85 84 80 79 78 74 73 74 62 53 55 54 52 50 52 56 57 60 64 65 68 68 70 72 74 73 71 74
76 76 75 78 78 77 74 81 89 91 90 87 90 90 90 89 89 83 81 83 80 78 70 77 64 56 58 54 57 59 63 67 66 67 69 70 73 72 71 74 77 82 84
82 75 81 79 81 81 83 78 79 77 81 89 95 94 94 95 89 93 89 76 78 84 69 59 51 58 60 63 59 65 61 66 72 74 72 72 73 74 77 78 79 80 81
77 82 87 89 92 88 87 90 95 97 98 90 92 96 87 89 80 84 92 86 78 78 78 75 54 50 51 55 62 65 61 69 72 69 67 73 75 76 79 79 81 82 83
65 67 70 81 89 86 92 102 104 103 96 96 99 98 97 97 95 86 95 83 88 78 76 61 56 55 62 67 72 71 68 71 73 75 77 78 81 85 88 86 86 86 85
73 73 71 70 72 81 93 94 90 95 95 104 106 108 103 97 100 101 96 92 78 83 66 56 65 63 63 69 74 76 69 70 69 72 75 75 74 77 81 83 87 87 87
56 58 62 65 68 74 79 82 86 90 97 92 88 91 87 86 82 73 69 65 63 60 53 55 60 70 71 73 77 78 79 74 73 75 77 79 83 86 85 85 88 92 95
48 49 52 56 59 62 63 63 62 64 64 65 65 65 66 70 73 73 66 59 55 52 51 54 56 65 80 83 83 81 85 87 83 80 81 82 90 92 94 93 94 97 98

GFSGL_250_spd_093.txt.gz
Wind_Speed
41 39 28 28 19 17 16 19 20 22 19 29 26 27 19 17 24 38 43 52 54 55 51 47 46 43 37 32 34 40 45 42 41 42 41 39 40 43 41 43 46 47 48
39 24 21 35 26 26 23 17 19 21 27 22 30 29 12 11 20 25 34 48 49 55 54 49 47 46 50 45 49 48 47 45 43 43 45 46 45 50 50 52 55 56 56
48 42 32 60 41 24 29 22 25 23 22 32 27 24 14 6 17 22 26 35 48 47 53 57 54 52 51 50 48 50 50 49 50 53 53 55 55 54 54 52 55 58 60
49 41 28 29 55 50 34 42 36 33 21 27 23 15 18 10 10 17 19 25 34 46 49 49 51 53 56 58 54 52 53 54 57 58 60 58 58 60 59 59 59 58 59
49 35 33 32 34 42 53 43 35 36 29 20 14 14 7 7 6 2 7 10 21 32 41 42 43 43 42 45 46 45 52 58 59 58 52 50 46 46 46 48 49 50 50
52 39 37 25 21 43 47 40 37 35 29 23 20 21 17 5 2 5 6 6 3 12 32 35 38 43 42 39 41 43 41 42 48 49 49 50 49 50 54 53 52 53 55
55 50 54 37 41 33 36 42 36 27 27 26 24 20 17 12 6 5 5 6 7 5 7 16 28 41 42 44 45 46 38 30 24 26 21 15 21 25 33 35 38 37 38
61 60 46 47 51 53 47 39 33 28 30 30 32 27 20 15 14 13 12 9 10 12 11 14 17 16 13 19 20 24 21 23 25 30 29 30 33 36 40 45 44 40 39
65 67 58 64 50 58 58 53 39 38 36 35 36 38 35 31 27 19 21 20 18 17 17 19 19 20 24 25 27 29 37 37 37 39 44 46 48 50 49 42 42 45 40
58 66 61 58 51 66 66 55 47 49 46 42 36 38 44 44 40 38 36 34 29 25 27 30 28 26 27 30 29 29 29 33 38 34 36 39 46 51 53 52 46 46 44
69 63 64 56 55 57 64 53 52 55 51 46 44 40 42 45 45 43 44 44 49 36 39 36 36 35 36 30 32 33 32 37 38 42 40 48 49 51 57 55 47 45 44
63 65 73 66 68 68 67 64 64 62 54 47 43 45 43 44 44 40 42 48 50 49 44 45 44 43 43 45 44 49 49 57 57 51 44 42 44 50 52 58 54 55 51
64 65 64 67 67 65 73 65 62 59 60 53 49 41 39 45 46 50 54 59 59 58 59 60 58 62 58 58 62 63 66 66 67 65 63 48 47 46 52 58 60 57 56
66 63 62 61 66 60 65 68 67 59 57 61 58 57 53 54 54 49 49 56 53 59 65 65 66 65 69 70 71 75 75 76 77 80 79 68 60 65 49 53 59 62 63
61 59 64 64 67 76 74 70 67 64 62 61 61 60 61 57 55 60 61 61 63 64 69 68 69 74 75 74 79 83 83 84 84 84 85 82 72 58 52 58 65 70 66
61 64 66 67 65 69 84 71 74 70 70 71 67 67 62 63 65 66 67 69 67 69 69 67 68 67 66 69 69 71 75 75 65 63 61 58 58 59 65 65 62 63 66
55 60 62 65 69 70 78 76 76 72 72 73 78 76 80 78 75 75 75 74 72 74 74 73 74 74 77 76 70 66 59 65 51 49 53 60 58 56 60 64 65 66 66
63 62 63 65 65 66 72 77 74 72 73 71 74 77 82 82 82 87 86 88 85 85 83 83 79 78 76 69 65 65 56 54 50 51 51 49 55 59 61 61 59 61 64
69 74 73 69 70 72 73 74 74 70 77 82 78 78 78 83 89 90 89 89 85 81 81 81 79 75 68 65 60 62 60 54 54 58 52 59 62 64 64 64 66 68 71
72 73 78 81 84 81 76 77 80 78 75 75 77 76 78 78 77 76 81 84 85 84 83 84 80 79 71 64 66 55 59 60 64 61 63 56 58 63 66 67 68 71 76
68 74 74 75 82 84 85 87 87 86 86 91 82 81 79 76 78 78 77 86 83 82 80 78 76 71 66 56 63 62 61 55 61 65 59 61 68 71 72 74 74 74 75
65 72 78 83 84 84 85 83 82 83 85 82 81 77 78 76 71 71 70 71 72 76 77 80 80 83 78 70 75 80 80 70 61 69 69 65 69 72 67 66 69 70 70
64 66 67 68 70 73 75 75 77 73 76 79 78 78 81 79 76 74 78 83 78 74 76 70 65 72 85 80 75 80 72 63 61 69 66 70 73 71 68 69 73 76 78
70 72 74 73 74 71 71 71 73 73 74 76 75 78 80 82 78 81 83 80 78 82 87 85 77 79 76 76 62 64 60 62 64 71 72 71 75 73 69 69 74 77 79
69 67 68 68 68 66 67 69 73 74 75 78 81 80 80 79 79 81 81 81 82 80 79 81 78 78 78 76 71 73 75 73 67 70 81 76 74 75 79 78 76 76 78
64 64 65 65 66 64 63 64 67 70 71 71 72 74 76 77 77 76 74 77 78 77 77 74 73 73 71 67 64 68 82 79 75 70 73 76 79 79 78 79 77 79 82

GFSGL_250_spd_096.txt.gz
Wind_Speed
36 39 36 43 38 34 32 23 22 22 21 16 21 27 28 22 25 23 28 41 41 57 56 53 52 47 41 41 39 33 29 30 33 37 36 35 38 40 40 38 39 41 44
17 36 38 27 14 36 38 27 41 16 17 18 20 22 33 24 26 32 28 34 45 46 60 57 57 55 48 41 38 35 33 36 34 38 41 45 41 42 45 48 50 52 54
43 61 39 31 29 51 60 51 48 27 21 30 29 25 29 25 26 30 29 28 29 43 50 56 58 57 50 43 37 40 40 40 42 44 44 45 50 49 52 55 57 55 56
63 56 50 52 47 52 31 58 62 34 25 28 28 29 25 20 28 29 21 24 23 30 36 49 46 49 52 49 45 41 40 40 43 45 46 49 55 55 58 59 57 51 49
50 45 51 54 50 54 60 42 43 37 35 29 27 31 25 21 20 23 20 20 22 27 29 40 46 48 48 50 50 47 45 43 43 43 41 48 49 49 50 49 47 48 48
58 60 52 53 62 66 60 51 48 36 34 33 27 30 31 24 20 14 13 12 15 21 25 26 35 48 49 40 40 44 36 34 36 38 39 41 46 41 40 34 28 25 34
50 57 58 53 59 57 51 47 39 33 27 28 38 39 41 33 26 15 11 13 7 11 13 15 22 28 31 37 41 44 43 41 35 35 41 31 26 20 21 28 30 40 46
53 55 58 61 59 53 43 43 26 22 26 27 33 39 41 32 27 20 16 14 13 11 10 11 12 16 16 24 23 28 32 32 28 24 24 29 31 35 39 42 45 46 50
53 55 54 53 56 55 51 47 40 30 33 32 39 43 38 33 29 25 24 20 23 17 15 17 17 18 19 17 19 19 20 20 23 26 29 27 34 34 36 40 43 49 52
66 63 55 50 52 55 55 50 46 43 47 44 46 43 41 33 39 39 34 30 25 26 24 23 24 30 26 25 25 26 29 28 28 33 36 34 30 28 27 32 35 40 46
68 70 65 56 57 55 55 64 55 58 55 54 51 52 48 39 38 44 43 41 37 38 37 33 35 34 33 36 35 35 36 34 36 36 37 41 40 41 41 42 53 45 52
67 67 65 61 63 61 68 64 56 65 68 68 64 65 61 62 53 47 45 49 52 48 51 50 45 48 45 43 43 43 44 45 45 47 49 51 49 53 55 60 67 64 61
68 69 67 65 61 61 70 66 68 72 73 72 75 69 65 59 64 64 57 53 49 54 52 51 53 57 57 58 54 52 52 54 54 56 58 64 67 67 69 68 72 67 62
72 70 69 67 67 69 74 70 71 73 69 70 70 74 66 61 56 55 59 59 53 52 53 55 59 57 55 61 61 63 65 65 67 68 64 69 70 72 73 70 79 71 73
66 67 70 67 70 71 73 75 72 73 75 78 76 75 77 73 64 64 61 60 62 61 61 63 63 63 62 65 69 64 65 65 68 67 66 64 69 71 72 73 65 61 58
51 55 59 65 67 69 70 72 72 69 67 69 75 72 73 75 74 67 63 68 65 59 59 64 66 67 69 68 71 69 66 64 60 60 62 66 62 58 56 52 53 57 67
48 52 56 57 59 61 63 70 72 66 69 69 67 71 70 71 70 68 72 68 69 69 71 72 67 71 73 76 77 79 77 76 70 67 67 60 54 51 51 50 58 58 58
53 50 53 57 54 52 55 58 64 64 64 63 66 69 73 78 80 79 78 77 75 76 78 81 85 84 86 86 81 80 80 76 70 67 64 58 55 53 53 50 55 57 54
49 47 46 55 62 60 60 61 61 62 70 69 71 71 71 72 78 78 79 83 84 83 84 86 87 88 90 88 86 77 80 79 75 77 71 57 56 51 53 54 58 61 63
61 59 56 55 54 65 67 70 68 69 70 69 69 73 74 75 77 80 83 82 78 77 79 79 84 85 89 90 88 88 81 75 68 63 59 49 50 51 47 53 64 67 68
53 52 52 50 56 57 59 66 73 79 77 80 82 84 82 78 79 81 82 81 78 80 78 77 77 75 76 76 75 74 69 68 59 55 61 64 56 55 66 64 60 64 72
49 51 52 55 59 62 63 65 67 72 74 81 83 87 85 84 87 89 84 82 80 81 80 79 77 74 71 69 69 65 65 63 63 60 61 65 67 66 67 66 62 67 71
63 65 65 67 69 68 68 68 70 73 79 79 78 78 80 84 87 90 89 84 79 77 75 75 74 74 75 72 75 71 67 68 62 64 71 75 72 68 67 65 68 68 76
73 78 79 79 80 78 74 71 70 72 73 74 73 74 77 82 86 86 88 84 79 79 80 76 77 79 80 82 82 77 75 75 69 65 65 70 74 67 69 60 64 70 74
78 81 80 80 79 78 77 76 75 75 76 75 75 76 80 81 84 85 85 83 78 77 78 80 80 81 81 82 82 81 80 75 72 65 72 72 73 74 74 69 67 68 77
69 69 72 74 72 71 71 72 72 73 75 75 74 74 75 77 78 79 79 80 80 83 82 80 79 81 84 85 87 86 84 82 81 80 79 78 80 73 73 70 69 72 72

GFSGL_250_spd_099.txt.gz
Wind_Speed
34 43 43 36 35 35 35 35 38 34 30 36 28 20 27 19 20 23 29 37 33 29 39 46 55 53 54 49 41 38 40 39 36 35 35 38 35 35 31 33 32 32 35
32 27 33 24 30 25 22 28 42 31 30 26 21 21 20 21 20 26 32 30 35 26 27 44 48 56 52 52 49 42 41 43 40 34 34 30 32 33 37 40 43 41 44
24 22 32 56 49 29 23 22 33 42 43 42 31 23 22 25 19 24 28 30 34 28 23 30 37 49 56 53 50 45 42 40 40 41 39 35 36 41 40 40 39 46 50
48 59 65 61 51 47 48 48 47 64 49 52 31 23 21 23 24 25 23 25 37 29 20 25 38 41 55 58 54 47 45 43 38 40 40 40 38 39 40 41 44 45 45
61 63 63 51 59 57 50 61 59 53 50 51 49 41 29 24 24 21 19 24 30 24 15 21 27 38 43 51 60 58 52 49 44 40 41 41 41 41 40 41 42 41 39
63 60 61 60 62 59 58 61 63 69 56 39 36 49 45 43 34 33 30 31 23 28 26 22 28 28 33 44 43 45 49 48 47 45 45 44 40 35 43 32 27 19 23
66 64 64 64 70 66 65 58 54 53 48 41 39 36 43 43 36 34 33 27 24 25 22 17 27 29 30 36 42 43 40 37 44 47 39 40 42 40 37 31 32 33 32
64 63 66 69 69 71 67 57 54 44 45 48 42 39 39 38 36 37 33 28 26 22 21 19 21 27 26 27 31 32 34 36 38 43 44 45 38 39 32 34 33 26 28
67 66 63 61 64 68 65 57 56 45 40 44 44 44 35 33 39 36 30 28 24 26 24 19 21 16 17 19 22 24 27 28 30 33 36 38 37 36 34 36 31 28 26
62 63 63 60 61 60 63 55 50 48 46 41 46 40 37 35 37 35 33 29 28 24 25 26 26 27 23 18 17 19 22 21 25 29 33 35 38 41 44 40 39 36 37
60 59 62 62 62 60 53 55 60 56 54 49 47 47 41 41 39 41 38 38 38 32 36 33 32 33 31 29 27 27 28 30 33 32 37 40 41 46 47 49 48 50 53
58 60 62 65 62 62 55 55 53 55 54 57 59 55 49 48 50 47 44 40 44 42 42 45 43 40 42 39 38 36 38 41 42 42 45 47 50 49 52 55 55 58 61
57 62 64 66 66 65 65 59 60 55 58 61 69 67 61 57 55 52 50 48 46 46 47 45 46 50 49 51 52 50 50 48 50 48 52 55 58 59 60 65 71 71 68
47 56 63 63 64 62 67 69 69 68 65 66 68 70 70 63 60 62 59 58 58 58 61 65 63 62 63 61 60 61 58 56 50 55 61 61 58 63 71 65 74 69 66
44 47 53 61 65 66 67 67 69 68 69 69 70 74 77 74 67 69 72 73 73 70 71 72 71 73 67 71 74 67 64 62 62 62 63 70 72 73 74 68 74 68 67
39 38 44 55 62 66 69 69 73 71 71 73 72 69 74 81 77 76 77 73 74 71 72 72 74 73 71 69 73 78 78 76 70 66 73 75 79 79 79 78 74 71 68
50 51 47 47 46 55 64 67 71 72 75 75 74 78 74 78 83 76 74 80 80 79 78 79 77 75 71 67 70 73 76 74 74 76 77 78 83 83 83 82 77 72 68
55 55 57 52 50 48 50 54 61 64 67 68 74 75 75 77 81 80 82 80 79 79 81 79 80 82 81 78 76 77 80 79 80 80 80 83 84 85 87 87 83 75 71
60 63 56 53 49 51 50 50 54 62 65 64 67 72 74 77 79 78 76 79 75 78 76 78 82 81 81 81 82 82 83 83 84 86 88 90 89 90 91 87 87 79 71
74 73 63 62 63 60 61 59 60 62 63 64 68 71 72 72 72 72 73 75 75 77 81 85 83 85 84 84 84 84 84 86 87 91 91 94 96 94 95 85 75 75 71
67 67 65 65 65 67 67 67 67 68 66 66 69 74 75 75 76 78 78 80 81 80 80 82 82 83 83 83 84 85 87 87 88 89 89 89 89 81 82 76 79 73 70
69 64 58 56 56 57 60 63 66 69 72 70 70 74 77 79 81 82 84 84 83 83 85 87 88 88 88 88 88 91 91 87 88 86 86 84 83 80 82 78 76 77 78
55 56 58 63 66 65 64 65 66 65 67 69 68 70 73 76 78 82 87 90 90 92 91 89 91 90 92 89 90 89 91 89 86 81 82 82 82 80 81 77 79 79 80
65 70 74 77 75 77 77 78 78 78 79 79 79 78 78 78 79 81 83 86 86 90 91 88 89 91 93 91 91 88 86 84 83 81 81 81 81 82 80 81 79 80 83
68 73 78 81 79 75 72 73 71 70 73 74 76 79 81 82 84 86 87 88 86 84 87 85 84 84 87 90 88 86 86 82 76 86 83 81 85 73 87 78 84 92 90
67 69 72 73 71 71 67 66 67 66 62 63 66 68 70 74 77 79 81 82 81 81 81 81 81 82 83 81 81 81 78 81 77 89 96 84 85 88 86 88 87 85 85

GFSGL_250_spd_102.txt.gz
Wind_Speed
47 14 12 9 12 21 25 25 21 23 27 27 34 31 32 36 27 34 21 18 24 32 37 39 15 27 44 53 49 46 43 44 40 31 33 32 32 34 37 37 41 40 33
31 13 19 8 26 30 17 19 19 20 22 24 29 31 31 29 28 26 18 26 22 31 40 41 36 21 30 44 52 51 46 45 41 36 35 35 34 37 39 39 40 39 35
24 16 21 28 49 52 41 47 28 35 26 25 30 37 33 32 32 29 26 30 40 38 29 37 30 26 21 34 49 52 50 51 46 39 40 40 37 38 38 37 37 35 35
27 19 26 35 49 57 52 47 53 45 45 34 36 39 41 41 36 31 30 29 31 27 40 41 28 29 30 28 36 50 54 49 48 47 40 37 35 37 40 37 35 37 39
42 62 54 58 53 61 63 58 55 51 48 52 45 40 45 37 36 40 41 39 34 37 36 32 28 35 29 28 28 34 49 50 47 47 44 40 35 39 41 40 40 41 37
51 65 65 63 73 57 61 48 52 59 62 49 52 45 36 40 40 41 44 44 45 40 33 27 27 35 24 24 24 29 35 43 50 49 47 43 41 37 40 39 41 42 39
46 57 70 68 66 76 69 58 65 65 58 46 51 53 46 50 50 40 39 42 39 39 34 25 26 23 26 31 28 26 30 35 33 34 39 47 51 45 42 39 38 41 36
48 58 69 75 74 74 76 67 63 62 66 54 40 46 48 46 40 40 37 38 45 40 35 27 26 21 21 24 26 30 28 34 39 37 37 36 35 40 40 38 36 37 38
53 56 66 78 82 78 74 74 74 66 63 65 48 41 49 51 53 50 41 38 39 41 36 30 28 28 22 15 16 24 26 28 31 33 34 35 38 39 38 41 41 42 42
58 55 55 67 72 79 78 74 74 67 66 64 56 50 51 51 55 55 50 40 38 41 33 32 34 28 24 21 16 21 24 24 27 25 29 35 35 35 34 37 38 42 45
48 45 52 60 65 70 74 77 76 68 69 71 65 60 60 59 59 61 57 52 43 37 41 37 36 32 28 28 24 24 25 27 24 23 24 25 28 30 33 36 39 40 44
34 37 46 53 60 65 71 71 69 69 67 75 71 65 65 62 61 62 60 55 50 43 43 43 45 41 36 32 31 31 31 35 34 31 31 34 37 39 41 42 43 46 50
37 33 37 47 54 64 66 70 66 65 65 73 75 71 64 67 68 62 63 62 65 57 52 52 52 48 43 42 41 39 38 41 44 44 42 42 42 48 53 54 55 56 58
41 33 29 39 50 58 62 65 66 67 67 64 69 73 75 72 69 68 68 63 62 59 58 58 53 53 51 50 45 45 48 48 50 54 60 56 52 56 56 61 64 64 68
38 41 36 35 35 41 52 62 64 68 67 67 68 69 70 67 66 71 75 76 68 70 66 67 66 58 58 56 56 55 54 57 57 61 64 67 63 61 65 67 72 75 76
41 36 40 40 37 35 38 46 60 69 71 72 74 80 79 79 73 68 72 76 77 74 73 74 72 71 70 67 66 69 67 64 64 65 66 70 73 70 72 72 71 73 74
51 46 51 49 46 43 44 42 43 55 64 76 78 77 82 82 83 77 75 76 79 84 85 81 80 79 80 80 75 72 74 74 76 72 74 75 76 76 74 75 77 80 78
59 58 54 56 55 54 55 53 49 47 53 63 69 77 82 85 87 85 79 78 80 84 87 90 90 90 88 87 85 83 84 82 82 83 79 78 82 81 80 83 84 84 87
69 66 69 71 68 68 69 60 60 60 56 58 65 69 74 80 82 84 85 84 82 84 87 86 88 92 95 93 90 87 87 87 89 88 88 89 87 85 86 86 89 91 92
70 72 65 63 65 64 64 66 65 67 65 63 65 68 70 74 78 80 86 88 87 88 89 88 90 90 92 95 97 94 89 90 90 90 90 90 93 91 93 95 93 95 92
70 75 70 74 61 60 64 66 66 66 68 69 68 70 74 73 74 78 81 80 80 84 86 89 90 89 90 92 92 90 89 90 91 90 90 95 97 98 98 97 96 93 90
71 72 75 67 65 68 66 67 68 68 66 64 65 65 69 75 78 77 80 83 86 86 85 86 88 88 88 87 86 88 87 89 94 95 95 100 100 100 99 99 100 97 95
66 61 57 58 61 60 63 67 68 67 65 67 68 68 71 73 75 76 80 82 86 91 92 90 91 90 90 90 91 92 91 95 96 95 98 102 101 103 99 97 97 91 95
60 62 62 65 67 70 73 77 77 77 73 73 73 72 74 79 83 83 84 85 85 89 90 94 96 96 96 96 97 97 96 100 102 102 101 103 102 101 96 98 100 98 96
60 63 66 66 67 70 73 76 77 74 70 67 64 62 65 72 76 79 82 85 88 89 88 89 92 96 99 101 100 102 103 103 103 103 105 105 104 104 100 100 103 101 104
58 59 62 65 70 74 76 78 77 76 72 61 57 61 61 60 65 68 71 74 77 79 82 85 88 90 92 95 99 106 107 106 107 107 105 104 102 101 103 89 86 100 69

GFSGL_250_spd_105.txt.gz
Wind_Speed
30 33 28 58 30 17 10 10 16 21 21 25 25 28 25 21 15 15 19 23 20 15 20 27 37 37 47 48 30 46 47 44 41 40 42 40 37 34 31 31 31 31 32
46 39 42 38 36 33 34 26 17 11 9 14 19 25 28 21 22 20 20 29 30 24 33 39 28 36 47 41 28 36 49 50 47 43 43 42 40 38 31 32 32 31 32
46 48 41 29 62 48 41 49 48 35 26 23 23 22 21 22 27 29 25 35 33 37 40 33 29 44 40 40 32 24 40 46 48 45 45 43 41 42 34 34 34 32 32
52 44 41 64 75 41 41 54 54 47 45 38 44 37 36 37 33 32 32 33 36 35 26 32 42 42 40 39 36 27 28 37 45 46 47 46 41 40 38 39 39 36 33
62 57 58 63 60 61 64 49 52 52 44 42 48 45 46 45 33 37 36 33 31 36 39 41 35 35 33 41 39 19 14 27 35 45 48 46 45 47 44 37 37 35 37
61 62 60 66 55 53 51 62 50 51 49 50 38 46 55 51 42 37 36 36 39 37 34 36 33 28 30 35 30 27 22 15 25 30 45 52 49 45 45 41 38 36 30
57 67 60 58 51 49 42 51 53 61 63 59 58 56 55 52 40 44 38 42 36 40 41 38 34 29 30 30 39 32 18 17 15 21 28 38 47 43 43 39 39 40 43
62 57 56 58 58 57 56 54 56 56 58 49 49 50 48 53 55 51 52 45 38 40 42 38 38 29 30 32 35 30 21 15 11 13 18 23 26 32 38 41 42 41 42
56 51 53 54 54 60 62 61 60 57 57 56 51 50 54 55 51 51 54 53 47 47 46 41 38 35 40 35 35 31 24 19 10 5 11 14 20 27 31 32 32 34 36
55 55 53 55 60 64 60 64 62 66 69 67 60 61 58 54 60 60 54 59 57 56 56 52 50 41 41 37 34 33 29 19 15 16 11 11 16 18 23 26 32 36 38
71 61 58 52 58 69 71 73 79 81 80 77 78 75 73 71 68 67 69 68 67 65 58 56 54 57 58 59 49 38 39 27 30 24 27 22 15 19 23 22 25 35 35
82 74 73 63 55 51 65 82 83 85 85 83 80 75 70 74 75 76 71 61 66 71 66 57 61 62 57 56 51 48 42 43 48 32 36 32 31 27 28 30 31 34 33
86 72 69 69 60 53 54 50 64 84 89 87 88 85 80 70 74 78 79 75 71 69 61 66 61 65 66 65 64 58 58 50 49 44 42 43 39 40 38 36 35 38 40
68 67 57 55 54 57 61 52 57 64 73 79 78 75 76 75 68 68 70 71 72 72 68 65 63 66 71 69 68 62 60 61 59 52 51 50 46 46 45 44 45 44 49
65 66 69 66 57 50 43 40 36 42 51 60 65 66 66 68 72 71 70 70 76 78 77 74 74 72 70 74 73 72 74 69 64 61 58 57 53 53 53 53 55 52 56
61 63 65 67 65 52 43 32 43 36 40 44 55 63 67 71 73 72 72 73 77 80 79 81 80 77 76 76 72 72 72 69 70 73 70 62 58 58 60 60 58 59 61
63 64 62 65 59 55 52 53 57 50 44 46 47 52 60 67 71 75 77 80 79 82 85 88 87 85 85 84 82 78 78 75 74 73 73 74 72 69 70 71 68 69 70
61 60 60 66 63 62 62 66 64 60 56 58 58 59 57 61 70 76 80 85 85 86 87 90 89 87 85 86 87 89 88 87 84 83 84 83 84 84 81 82 80 78 81
52 57 57 61 64 65 66 62 63 62 64 63 62 56 61 63 65 74 78 86 88 89 91 94 96 92 91 88 88 90 93 94 90 90 92 93 93 92 91 91 87 88 90
56 57 60 64 66 67 68 68 70 73 68 68 64 63 62 68 71 71 77 81 87 90 93 96 99 103 100 100 95 93 94 97 98 99 99 100 102 101 98 98 97 98 96
61 62 65 70 71 73 74 71 69 69 68 66 65 67 67 65 66 72 73 76 82 88 92 96 99 103 105 105 109 107 101 99 99 99 101 105 106 107 109 105 104 101 98
68 67 68 69 72 72 70 66 64 62 62 65 67 68 66 63 65 66 72 75 77 85 90 93 96 101 105 108 109 107 104 104 106 107 106 105 105 104 104 104 106 105 104
65 65 64 65 63 61 59 57 58 61 65 67 70 72 71 69 70 70 72 75 78 81 86 91 95 98 102 105 106 106 107 108 108 107 106 107 107 105 105 104 102 104 102
58 60 59 58 59 60 60 61 59 62 65 69 72 74 71 68 66 67 68 72 77 81 85 88 90 96 100 101 102 101 104 105 105 105 106 105 103 102 101 100 98 98 97
53 56 60 60 60 62 64 65 66 68 70 72 73 74 70 66 69 66 62 64 70 78 80 82 84 83 86 93 98 101 102 103 105 104 105 104 101 100 99 97 96 96 94
57 61 62 63 64 66 69 70 71 72 73 76 76 75 69 64 61 58 54 56 62 67 70 73 74 74 75 77 80 87 92 97 101 102 105 105 103 100 99 98 96 98 101

GFSGL_250_spd_108.txt.gz
Wind_Speed
60 60 53 47 54 37 33 21 3 8 19 24 26 29 30 27 25 22 18 12 14 12 11 14 16 24 26 29 33 40 38 30 33 48 48 46 43 41 38 36 35 37 35
54 58 52 51 46 40 33 26 14 20 24 16 14 17 27 27 27 25 21 17 17 19 18 17 23 24 26 27 37 42 42 37 36 39 42 44 41 37 38 35 35 36 34
56 57 61 52 32 27 24 14 27 26 31 36 37 23 17 20 20 20 25 23 24 28 31 23 25 28 23 32 35 38 38 35 31 30 42 42 43 39 38 39 36 37 36
55 53 49 49 47 27 25 28 27 34 35 52 49 43 36 31 29 28 29 31 30 32 36 29 21 25 31 37 37 34 34 29 31 24 36 47 47 42 39 39 37 39 38
52 47 48 52 43 34 30 37 46 59 51 55 50 44 43 42 39 35 35 39 36 35 40 42 36 34 40 39 33 39 34 38 42 25 31 42 48 46 43 42 41 41 39
58 58 54 45 39 36 41 33 41 54 45 50 63 59 50 49 48 43 37 45 36 34 39 39 37 35 31 35 36 29 43 42 33 26 26 31 42 49 47 45 43 40 41
56 53 50 46 46 46 46 46 52 55 51 47 59 44 47 48 50 46 40 42 41 43 44 41 40 38 38 36 35 41 40 41 31 26 19 24 32 42 46 45 45 44 41
55 55 51 47 52 52 49 45 50 53 59 63 56 50 42 46 48 42 46 49 50 44 45 46 46 45 45 41 42 33 37 29 26 23 22 13 17 24 38 48 50 50 47
59 60 62 53 53 52 52 53 53 62 62 52 63 58 52 51 54 62 62 56 55 49 53 53 48 53 48 39 46 45 39 30 24 37 45 15 7 5 10 21 26 32 39
62 64 62 62 62 59 60 62 60 50 49 37 45 54 55 50 52 44 45 48 51 57 66 63 59 57 55 53 54 58 57 52 52 50 51 41 21 16 23 24 24 26 29
68 62 63 60 61 59 55 57 58 56 56 55 48 51 59 60 62 60 67 68 63 61 63 66 64 63 62 60 64 62 62 58 54 49 40 33 40 32 39 28 39 28 35
70 70 68 65 66 63 58 54 51 48 55 50 53 57 59 66 70 72 70 70 71 71 69 69 65 63 62 61 63 64 65 62 56 47 41 41 50 47 40 45 46 38 41
63 65 70 63 63 64 61 59 52 54 51 50 44 45 56 72 79 80 81 78 83 84 84 85 77 75 72 64 62 58 60 61 71 62 57 59 54 53 52 50 49 50 50
66 66 62 64 69 67 71 68 72 67 66 71 78 81 71 70 65 73 87 83 86 87 86 87 77 76 77 75 73 69 65 66 67 65 60 61 60 61 56 57 55 54 52
59 62 61 64 67 68 61 69 78 81 83 77 85 74 72 64 66 73 75 78 76 79 80 83 80 79 73 73 75 73 69 70 67 70 69 67 67 66 64 62 62 61 57
47 51 55 59 66 65 60 65 73 69 67 63 57 54 49 50 59 64 67 72 70 74 76 77 76 78 79 80 81 79 78 75 72 71 73 72 76 75 71 70 70 70 68
50 50 55 57 60 61 62 62 61 63 63 58 57 60 58 54 54 49 61 70 75 79 79 81 82 83 85 86 86 88 88 85 82 80 80 77 77 74 74 78 80 78 71
46 48 51 51 53 57 59 63 62 62 65 70 70 64 68 64 63 62 60 64 75 84 86 86 87 90 92 94 93 91 94 93 92 89 87 86 84 87 87 82 80 79 80
49 49 50 51 50 59 63 63 63 64 70 72 71 73 68 66 68 70 70 69 74 70 84 92 94 95 97 97 96 99 102 103 101 98 96 96 94 92 90 89 86 84 83
50 50 51 53 57 57 60 60 60 63 66 69 69 72 72 74 77 79 79 76 73 74 73 77 90 97 102 104 104 103 104 105 106 106 104 103 101 99 98 97 94 93 92
52 54 55 57 60 61 63 65 67 68 73 77 76 76 78 78 77 74 71 77 71 72 75 76 81 88 94 102 109 110 110 110 109 108 108 110 108 102 98 99 99 99 98
62 63 64 64 62 60 64 70 74 77 77 78 79 79 76 76 76 76 75 71 73 77 78 77 80 87 92 96 101 106 111 114 113 113 112 110 114 115 109 105 101 101 100
61 62 66 68 69 72 74 74 74 78 79 74 75 74 73 73 76 75 76 75 74 75 75 75 80 85 89 94 99 102 103 107 111 114 117 116 115 113 114 114 114 110 108
60 63 64 61 60 64 65 68 71 69 68 68 72 74 74 75 75 75 73 74 75 74 71 68 70 75 82 89 96 100 102 104 105 108 112 113 115 117 115 114 111 112 112
50 55 57 57 57 57 58 61 65 67 69 70 72 72 73 74 74 74 74 74 76 76 74 71 70 71 72 75 82 87 87 90 96 99 102 104 104 107 109 109 107 108 108
55 61 60 57 59 62 65 69 71 74 74 74 75 76 76 76 76 76 76 77 76 76 73 68 66 65 64 66 70 78 76 74 75 78 83 88 92 96 100 102 102 99 101

GFSGL_250_spd_111.txt.gz
Wind_Speed
55 60 61 67 64 52 50 50 49 47 42 39 35 33 31 28 25 27 32 30 25 22 24 18 16 18 15 13 19 20 24 31 30 25 24 24 40 43 42 41 38 38 36
56 56 56 61 60 58 52 51 50 47 41 36 27 28 32 28 26 27 32 32 27 25 27 21 19 21 16 16 21 22 26 28 32 29 32 30 27 44 45 42 40 38 38
54 67 70 67 65 57 54 45 41 41 40 31 22 18 24 23 20 23 24 25 25 23 28 26 21 17 20 25 27 26 31 33 38 39 35 32 26 34 44 46 44 41 40
74 69 62 59 48 51 56 53 48 41 40 36 33 31 17 22 17 17 22 24 25 20 31 31 27 27 27 30 33 31 32 38 38 40 36 32 30 29 41 42 43 38 37
67 54 48 51 58 54 56 48 43 40 40 40 40 39 35 31 28 27 31 29 28 27 28 30 32 32 35 37 38 38 36 37 38 39 31 32 30 23 34 43 41 40 36
60 59 57 57 47 49 51 52 47 40 38 41 46 43 31 32 34 38 41 38 35 34 32 35 39 38 39 39 36 39 34 33 35 34 25 25 32 28 25 33 42 44 39
52 49 54 51 51 56 55 53 48 44 37 38 38 30 37 40 38 43 47 43 39 40 39 34 38 39 39 40 41 39 36 39 33 33 22 25 28 39 28 26 33 43 44
48 51 45 46 51 61 59 53 53 49 35 33 43 39 41 45 47 53 53 53 50 43 44 40 39 38 41 40 42 45 44 40 37 40 28 35 37 41 38 23 23 30 38
37 37 38 47 54 61 64 57 50 47 44 42 39 36 47 49 43 46 43 48 52 48 46 49 42 42 43 51 51 56 48 46 45 46 44 36 44 41 35 28 15 13 20
51 50 53 59 73 63 66 62 56 46 47 43 43 42 46 54 52 51 53 52 48 48 48 51 53 53 52 52 55 60 56 51 46 51 52 52 48 43 40 30 21 18 19
63 58 57 59 58 57 65 61 53 48 48 52 49 48 51 49 41 43 46 51 55 53 56 58 56 61 63 67 65 64 65 63 62 58 59 58 57 50 45 30 35 34 34
61 59 57 58 64 60 68 62 57 55 53 52 53 57 53 55 50 47 48 50 50 56 58 60 59 59 61 64 63 67 68 63 59 60 62 64 63 58 54 38 42 45 40
55 55 60 58 61 62 62 65 66 63 57 56 54 56 57 59 61 56 55 51 53 57 62 62 63 67 67 64 66 70 73 73 69 72 67 70 73 72 68 51 50 48 51
49 52 53 55 59 63 64 62 66 67 67 59 61 58 59 56 57 63 51 50 52 52 56 66 73 77 77 78 78 79 78 79 78 77 77 75 73 77 70 68 67 63 60
45 47 50 52 57 56 57 64 65 64 70 64 62 64 64 65 65 63 69 69 72 69 70 66 64 73 74 77 79 82 86 88 88 92 83 79 74 73 68 71 70 65 61
44 44 44 45 48 51 54 58 57 60 61 65 65 65 69 71 73 78 77 75 76 73 67 67 67 63 72 76 79 81 82 83 85 87 86 84 80 78 78 75 74 73 71
42 42 43 44 47 47 50 53 55 58 61 63 60 62 63 62 65 67 69 70 63 63 63 57 61 65 68 79 81 83 82 84 85 87 88 91 89 88 88 82 78 78 72
45 46 47 47 49 51 52 53 56 57 57 58 59 58 59 58 60 64 62 63 63 64 67 66 65 65 70 76 81 93 95 92 90 91 91 95 98 99 95 93 90 85 83
48 48 48 52 53 55 57 59 60 60 61 60 61 64 65 68 70 72 74 76 75 73 74 74 74 75 74 74 78 88 91 100 104 105 103 102 103 104 104 103 101 96 94
48 54 57 57 56 59 62 63 61 60 61 62 64 66 67 68 70 70 68 68 74 74 75 77 79 80 82 79 82 85 86 95 105 108 108 107 107 108 111 109 108 104 103
46 47 49 52 54 56 57 60 63 64 64 65 67 69 70 71 70 72 73 78 80 79 80 81 81 82 83 83 87 88 91 94 95 96 103 108 115 114 115 117 115 114 111
55 55 58 59 60 61 62 64 68 70 72 73 74 77 79 80 80 82 85 88 89 90 89 90 89 90 87 84 87 90 91 92 96 100 103 105 107 113 120 122 121 119 115
60 62 64 66 68 70 72 75 76 79 80 81 82 82 83 83 85 87 90 91 93 93 89 88 87 87 87 87 85 86 90 94 98 100 101 105 108 111 111 113 119 124 123
61 65 67 67 64 66 69 72 74 76 78 81 84 85 84 83 85 87 88 88 88 87 86 86 88 87 88 89 88 87 89 91 93 96 100 103 105 107 111 109 111 111 110
57 59 61 63 67 69 69 74 81 83 84 87 82 83 88 90 90 88 86 87 89 89 89 89 90 89 87 87 86 85 86 88 89 92 94 98 99 100 100 100 102 105 107
59 64 68 70 72 73 73 74 78 79 82 83 84 83 84 86 88 89 89 90 91 91 93 91 89 87 86 84 84 85 85 85 84 84 85 88 89 94 87 82 83 87 96

GFSGL_250_spd_114.txt.gz
Wind_Speed
42 47 51 54 62 68 64 65 58 59 58 46 45 42 38 37 40 38 36 32 34 34 32 25 25 26 22 26 22 18 18 19 21 24 26 27 30 29 25 40 42 41 43
43 49 56 63 69 75 72 63 59 57 62 58 49 51 45 43 41 42 42 39 35 38 37 33 34 32 26 28 23 25 20 22 19 33 29 26 30 28 29 27 45 43 42
43 49 51 58 76 72 69 63 57 57 62 62 50 55 49 49 45 41 41 42 40 41 37 34 37 34 32 29 27 27 27 26 25 27 33 27 29 32 31 23 36 43 42
42 46 45 51 71 74 73 63 60 58 58 61 62 57 50 50 47 41 37 42 45 45 36 36 37 39 34 28 30 29 30 27 30 33 35 27 28 25 35 21 23 40 42
38 37 37 49 70 74 70 67 62 55 55 64 58 54 50 45 43 41 38 37 41 45 36 32 31 40 37 32 34 34 32 28 33 36 34 28 26 27 27 35 18 29 35
31 31 35 42 55 68 75 68 58 55 64 63 58 54 48 47 42 36 35 35 39 36 31 30 34 37 37 37 34 33 30 34 33 30 31 31 29 29 34 31 36 21 31
21 21 31 44 50 56 61 59 59 61 61 59 52 52 50 46 47 42 40 40 38 38 40 37 39 38 36 35 36 33 35 42 32 30 33 34 34 29 34 35 38 32 19
19 26 39 42 39 46 51 56 57 56 57 53 49 46 48 47 50 48 45 45 45 41 42 41 46 43 42 36 37 37 39 42 40 32 32 31 33 33 35 35 32 29 27
22 26 31 43 42 42 46 48 47 49 57 53 52 50 50 52 52 53 47 45 46 45 44 46 49 45 46 48 43 42 47 48 44 41 40 39 40 42 42 42 36 30 26
25 34 31 37 42 47 43 46 45 51 48 50 54 47 49 47 43 47 48 42 49 44 50 52 54 57 56 52 50 52 55 54 53 48 50 44 45 46 48 46 39 36 31
34 40 39 38 39 40 41 47 50 51 51 53 51 56 50 47 45 48 50 50 51 51 42 45 47 49 48 47 50 54 58 57 60 56 59 55 52 49 48 49 47 47 47
41 43 39 39 41 42 34 49 51 53 56 62 63 59 56 54 53 54 49 44 59 56 47 47 46 50 53 56 57 59 61 61 57 60 58 58 54 51 52 54 56 54 57
51 46 43 51 46 46 48 49 48 52 58 64 69 61 58 60 58 52 48 47 44 49 52 52 53 54 55 58 59 62 64 60 59 59 63 62 62 60 60 66 64 68 68
57 53 50 49 52 53 51 50 50 52 49 64 64 60 65 61 61 55 53 54 51 53 56 62 60 58 59 59 61 64 66 64 66 66 69 67 68 68 69 70 72 67 65
59 62 58 54 48 45 46 46 51 51 51 54 60 66 67 71 61 59 56 56 58 59 64 62 58 56 55 55 58 56 57 59 67 72 76 75 74 79 81 81 81 76 75
55 54 55 54 56 52 54 54 53 50 52 55 56 60 60 64 63 65 66 67 66 66 66 69 73 73 72 73 70 67 70 72 68 72 80 84 84 81 81 83 82 85 84
52 51 48 48 52 54 54 55 53 53 55 56 61 62 65 64 68 70 69 71 72 75 74 76 78 74 83 81 79 75 73 75 72 73 74 72 75 75 84 92 93 93 93
49 49 42 51 53 50 48 53 55 55 55 55 56 58 62 63 64 65 68 67 68 70 73 75 77 81 82 84 83 83 77 73 72 80 82 80 80 81 84 86 85 94 98
51 50 49 52 53 53 52 54 53 53 54 55 55 56 57 59 62 64 65 66 68 71 71 72 74 74 79 78 77 78 78 80 81 81 84 80 92 97 95 94 92 97 101
51 50 52 56 59 58 57 56 56 57 57 56 56 59 62 62 64 66 67 69 71 73 74 75 75 76 78 81 84 87 88 88 89 89 88 90 89 93 98 106 110 108 104
50 53 50 52 56 54 59 60 60 62 65 63 62 64 65 66 69 71 73 75 77 78 80 82 85 87 86 87 88 90 94 94 91 91 91 89 91 96 97 101 102 112 119
57 55 55 61 58 58 61 64 64 63 68 68 68 67 68 69 73 77 79 80 82 84 86 88 91 92 94 94 94 95 96 98 98 96 97 97 92 93 98 101 102 104 106
61 60 62 63 64 67 65 65 69 73 75 75 75 76 78 81 85 87 89 92 94 97 98 99 101 103 104 103 102 102 104 103 102 100 101 99 97 96 96 98 102 105 109
65 67 67 67 68 69 71 73 73 76 78 81 84 86 88 89 92 96 100 102 105 105 107 108 105 104 104 104 103 102 101 101 103 103 101 98 96 96 97 96 97 102 107
56 60 63 70 76 76 74 77 80 83 86 89 91 93 97 98 97 99 101 103 103 104 106 105 106 107 106 106 103 104 104 104 102 100 98 97 96 96 95 95 95 94 95
54 57 59 61 63 66 70 72 77 80 82 85 87 91 93 96 98 101 104 105 107 107 106 106 103 103 105 106 107 107 105 103 101 99 97 94 92 93 95 93 91 91 90

GFSGL_250_spd_117.txt.gz
Wind_Speed
45 47 45 47 52 55 57 54 55 51 50 46 25 41 45 38 38 43 39 36 34 36 41 44 39 33 28 27 28 26 23 19 16 14 12 20 25 20 21 24 26 25 31
46 45 46 49 51 59 60 65 59 60 66 40 46 48 45 46 43 48 47 44 42 39 41 45 38 37 32 35 33 31 32 24 19 15 18 22 24 29 27 26 32 29 32
44 44 45 49 50 58 63 67 67 68 72 56 60 42 55 57 52 49 53 50 48 45 42 46 44 41 38 38 37 34 35 32 28 28 22 24 27 33 27 25 34 37 26
40 39 41 45 48 56 64 70 74 76 76 83 75 62 60 48 55 58 57 57 53 48 47 52 50 45 46 44 41 39 38 38 35 24 26 28 26 28 28 29 30 36 27
30 31 36 34 41 56 65 72 76 81 82 90 78 75 63 64 79 72 60 59 57 56 50 50 55 52 46 45 43 41 39 40 36 30 28 31 27 29 29 28 29 30 33
28 30 32 32 39 34 48 73 78 78 87 89 85 86 69 65 70 69 63 59 56 57 58 57 54 54 47 44 46 42 40 42 37 32 31 33 33 30 28 31 29 31 28
26 22 20 19 24 24 40 56 80 81 88 81 80 81 79 72 65 66 64 61 58 56 55 52 53 54 45 44 44 47 50 45 41 37 36 31 33 33 28 28 32 32 31
15 12 19 20 13 21 31 45 75 78 79 77 74 70 74 81 68 65 61 61 59 57 51 48 46 49 48 48 47 47 48 45 43 40 34 33 29 33 33 31 34 33 33
14 15 15 12 23 28 28 40 62 69 70 70 66 60 63 74 77 71 65 59 63 63 57 54 52 58 56 52 48 47 46 47 45 44 44 40 39 34 35 36 34 37 35
21 22 21 12 12 17 28 38 53 62 61 59 62 61 62 64 69 67 62 57 61 63 59 52 54 47 51 53 47 51 50 51 50 49 52 45 43 37 36 38 41 42 39
25 22 29 28 26 23 26 27 43 54 61 61 54 57 57 58 60 58 57 59 63 65 59 55 54 50 55 53 51 53 53 54 54 55 52 48 50 46 47 47 46 47 43
27 27 32 32 32 28 26 28 31 30 51 58 52 56 54 59 58 58 59 55 60 57 59 58 57 54 54 55 52 51 50 54 54 52 55 55 55 54 56 51 45 46 48
32 35 34 39 37 35 38 41 38 41 40 45 51 56 52 59 58 59 53 57 56 59 62 63 59 62 65 60 51 49 48 52 51 56 58 60 60 63 64 59 56 56 54
40 40 38 42 41 42 36 37 39 40 47 42 46 52 52 51 53 54 48 56 56 61 59 56 55 55 60 66 66 66 65 57 56 60 64 66 66 66 65 65 63 56 55
47 48 47 47 46 50 46 45 45 44 46 47 45 50 56 57 59 58 59 61 61 60 64 64 65 63 62 58 62 67 65 65 68 71 72 71 69 69 69 69 79 75 65
54 52 53 52 53 50 53 52 53 51 51 50 54 54 56 57 58 62 66 68 69 71 71 72 75 74 69 67 67 70 71 72 69 70 70 67 63 64 68 68 71 74 74
62 58 56 52 59 54 51 58 55 56 57 56 58 52 57 59 60 61 62 67 70 72 75 77 73 73 73 70 70 71 72 73 75 75 73 72 73 76 75 76 79 79 77
63 63 62 60 60 63 57 56 55 58 56 56 56 57 59 60 60 62 63 63 66 70 72 72 72 72 74 75 76 79 80 80 80 84 85 84 82 84 85 89 90 87 87
66 62 62 65 63 64 61 63 58 61 61 58 59 63 65 64 65 63 64 67 69 72 74 75 79 82 84 86 87 87 87 89 89 87 89 88 90 88 87 88 94 93 88
50 53 63 61 64 60 55 55 58 56 58 60 61 63 64 61 63 65 68 70 71 74 76 78 80 82 82 85 86 88 89 88 86 87 86 86 87 88 87 88 88 88 94
44 51 58 55 53 65 62 63 58 59 60 61 63 63 65 66 64 65 66 67 69 72 75 77 79 80 83 84 86 87 88 87 87 89 90 90 93 96 98 99 98 99 104
49 46 49 54 56 59 59 65 67 68 69 70 72 73 71 72 73 73 75 75 76 77 78 81 84 86 88 91 92 93 95 96 95 96 98 96 96 100 103 105 103 105 106
58 58 57 55 57 62 63 65 70 75 78 78 80 80 79 81 84 85 86 87 87 89 91 92 93 94 95 98 99 99 100 102 103 102 103 102 104 107 110 110 110 113 113
61 62 64 65 63 63 66 69 71 73 76 79 83 86 85 85 87 87 88 87 92 93 95 97 98 100 103 104 105 107 108 109 110 110 112 116 116 116 122 121 119 115 110
61 65 68 65 70 71 70 72 75 78 79 79 84 85 90 92 94 95 99 101 102 102 105 108 111 113 114 115 116 117 118 118 121 120 123 126 125 119 113 109 107 101 98
52 54 58 63 68 74 79 80 82 84 86 90 93 94 98 101 103 105 107 109 112 115 116 116 118 120 122 120 121 124 127 129 129 124 119 113 109 106 105 104 104 105 104

GFSGL_250_spd_120.txt.gz
Wind_Speed
56 51 46 46 47 49 52 53 53 53 49 44 36 31 31 26 27 29 29 32 33 35 36 41 37 36 44 37 35 31 30 27 23 23 19 15 15 20 21 24 27 24 30
56 52 47 46 46 48 51 56 56 53 50 44 40 29 24 40 47 42 42 28 34 38 36 41 41 43 46 42 41 36 35 31 27 24 20 17 18 21 22 22 25 26 29
54 48 40 40 40 46 49 54 57 55 54 52 41 50 63 61 69 59 39 43 36 40 42 41 43 49 49 45 44 43 39 36 34 33 29 25 24 23 26 24 23 27 27
46 43 39 38 37 43 46 54 59 59 64 69 50 74 79 71 77 72 67 46 46 41 46 43 45 52 54 52 48 46 43 41 37 35 33 32 30 30 26 27 27 24 27
40 37 35 34 34 40 45 51 58 62 75 85 67 68 93 59 67 63 58 49 25 48 48 53 52 54 56 56 51 49 43 44 43 43 40 38 35 37 35 31 28 28 27
35 31 28 28 32 40 40 41 50 59 71 86 82 87 89 75 75 48 49 44 46 52 70 60 61 58 57 56 56 50 48 49 49 49 47 39 34 38 29 31 27 29 29
31 32 29 25 34 33 37 38 43 54 65 78 87 87 83 79 73 56 54 56 58 47 58 70 66 64 60 53 58 55 54 51 50 50 49 43 38 39 25 27 29 31 31
29 29 22 23 32 35 38 33 36 47 61 76 91 91 90 79 66 66 56 60 67 61 62 64 64 65 62 59 56 56 56 57 54 55 55 53 47 44 37 32 33 29 29
23 17 21 25 27 28 32 35 33 45 56 69 85 96 97 91 72 73 75 67 70 71 67 68 59 62 63 62 58 56 56 57 49 53 53 51 46 44 41 37 35 34 32
20 25 23 25 28 26 28 24 19 26 47 59 76 94 96 98 97 82 81 69 76 69 62 61 63 60 61 58 57 52 60 57 58 54 51 52 50 48 46 43 40 36 38
27 28 24 18 18 17 20 8 9 9 17 45 68 80 94 96 96 92 86 81 72 65 64 66 67 64 67 64 64 62 61 63 63 55 52 52 53 54 52 46 47 42 38
33 27 20 11 12 18 25 12 14 16 19 32 53 73 82 85 86 89 80 83 85 78 72 64 67 67 68 71 72 70 66 63 63 62 59 57 59 57 57 54 54 52 50
35 33 33 29 31 29 27 21 24 18 17 24 38 53 63 76 71 67 71 68 68 76 80 82 74 73 71 75 76 75 70 63 60 61 59 61 60 59 58 58 54 55 58
37 40 38 38 42 37 35 31 32 28 24 25 35 43 51 61 67 68 66 64 68 65 66 78 76 71 72 76 77 74 69 70 63 63 61 59 59 58 58 61 61 62 64
41 47 42 43 45 43 41 37 33 34 35 34 32 41 48 54 60 64 66 66 64 63 64 65 65 65 67 69 72 74 71 69 66 69 67 69 71 72 71 70 73 69 69
49 50 49 50 45 51 44 44 44 40 40 42 38 38 45 53 59 61 62 61 60 60 63 66 65 64 65 67 67 73 71 67 70 74 74 73 72 75 74 75 76 76 77
49 57 56 55 55 49 52 48 52 48 47 45 42 43 45 53 56 59 61 62 64 65 65 66 66 67 66 68 71 74 75 75 79 81 78 78 78 79 80 80 81 81 82
48 53 58 61 60 58 56 57 54 57 54 52 52 53 54 58 61 61 64 67 66 69 73 72 73 75 76 77 81 83 85 85 88 88 86 90 89 85 84 84 82 81 83
41 51 56 57 64 64 65 63 62 59 60 62 60 58 61 62 64 64 64 67 68 70 71 73 75 76 78 83 85 87 89 89 89 88 89 88 88 90 90 89 89 88 90
41 43 54 63 63 61 69 67 65 64 64 64 61 67 67 69 69 66 69 73 68 68 71 71 73 77 78 79 81 86 90 90 92 91 92 92 93 94 96 97 96 97 101
48 51 52 49 53 56 67 71 69 71 71 75 73 65 66 67 71 73 72 74 74 73 74 78 80 82 86 86 89 86 86 87 90 93 96 97 100 101 103 103 103 99 100
50 52 52 53 50 51 55 64 70 73 72 74 74 72 71 72 73 78 77 75 77 77 78 80 81 83 82 86 91 94 93 92 94 95 97 99 98 100 100 102 101 98 99
59 55 51 50 52 52 51 50 54 58 63 66 69 75 77 77 79 79 76 79 81 82 84 88 91 92 89 89 92 93 96 99 102 100 99 102 105 106 106 108 108 109 111
59 60 67 65 61 60 60 59 59 59 61 66 69 72 73 75 80 82 84 87 88 90 92 96 96 96 97 98 101 103 105 106 109 109 109 110 112 113 114 116 115 117 115
48 50 50 58 67 67 70 67 68 71 70 70 73 77 81 82 82 87 91 91 94 98 100 102 104 106 106 107 111 113 116 117 117 120 124 124 121 119 119 120 119 119 122
46 47 48 50 53 58 68 75 77 76 76 80 80 82 84 86 86 90 94 96 100 103 106 110 113 116 118 114 117 120 122 123 123 122 124 128 126 130 132 130 132 127 124

GFSGL_250_spd_123.txt.gz
Wind_Speed
50 52 49 45 45 48 48 49 53 53 55 47 42 48 44 37 18 13 19 19 21 23 29 27 32 35 34 33 31 35 32 32 26 25 24 22 19 17 16 14 19 23 25
52 51 51 53 49 42 48 50 52 53 57 53 47 45 44 39 13 38 48 31 28 26 26 33 33 33 40 39 36 41 38 38 31 31 29 27 24 21 19 20 21 22 25
55 53 47 53 48 46 48 48 52 53 58 57 52 56 54 51 43 68 58 47 50 35 32 36 36 33 34 42 43 43 45 41 39 36 34 29 26 25 25 25 24 29 32
55 51 48 48 45 39 41 49 53 53 59 60 60 61 62 71 56 62 73 74 72 59 50 44 38 40 36 42 45 46 50 47 43 41 39 37 31 30 32 33 33 36 34
54 49 46 44 44 39 38 47 53 53 59 63 67 71 68 72 77 64 61 66 68 76 62 49 41 45 45 38 44 48 55 52 50 48 43 40 38 37 34 36 38 32 29
48 47 41 42 39 35 36 44 51 54 59 64 70 79 77 73 77 72 65 67 71 71 66 58 58 42 49 42 43 49 54 56 52 50 49 46 42 39 41 41 39 32 29
40 38 38 35 31 30 34 41 46 47 54 59 69 81 81 74 78 79 74 73 74 81 75 64 59 51 47 46 45 46 53 57 58 54 53 50 45 45 44 41 41 37 31
36 33 30 26 27 29 35 37 40 43 54 58 70 80 83 78 76 70 72 77 78 78 76 74 67 66 58 37 52 55 53 53 52 54 56 53 49 47 49 45 48 43 38
29 25 21 24 24 29 36 34 39 43 49 57 68 79 86 85 87 69 66 71 69 61 60 68 64 60 48 48 46 53 58 54 50 48 52 54 53 57 57 50 47 50 49
22 20 18 20 23 23 31 35 40 42 46 55 68 78 85 93 91 92 73 76 74 63 67 68 71 57 52 50 52 59 59 59 59 59 56 53 56 59 58 52 51 49 48
24 19 19 23 27 29 31 35 36 39 45 52 58 73 84 90 91 95 95 85 88 77 78 73 72 74 67 58 58 60 59 58 60 62 65 66 63 62 58 53 48 51 51
31 27 27 28 26 19 24 22 25 37 39 37 52 54 67 76 86 93 92 87 83 85 89 80 80 74 68 69 67 66 69 65 63 63 65 66 69 69 64 62 56 55 53
34 34 33 28 29 22 23 29 17 24 22 32 40 41 46 59 72 83 90 88 87 87 93 86 76 78 71 71 73 67 71 74 72 69 69 68 69 69 71 68 66 65 60
44 37 37 33 37 30 41 43 31 23 25 31 33 28 20 33 50 67 77 83 85 89 88 86 83 87 89 82 73 70 72 77 79 72 71 73 74 74 76 71 70 71 69
46 42 44 42 40 47 47 43 41 36 34 38 37 26 19 19 29 42 56 69 86 91 99 98 95 95 96 89 91 87 84 80 76 73 74 75 80 80 79 75 71 68 68
49 51 50 50 50 51 50 48 45 45 40 39 40 35 29 22 26 32 40 54 69 82 96 97 94 93 92 89 87 87 88 85 84 89 86 81 78 80 79 77 76 71 70
49 57 54 55 53 46 47 48 43 43 42 39 37 34 39 35 29 30 33 42 57 68 73 75 76 76 75 75 75 76 72 71 76 77 76 79 79 76 79 78 81 85 80
42 54 63 58 58 54 55 45 54 51 48 46 46 42 39 44 43 38 39 41 41 52 67 74 74 72 75 73 73 74 74 75 72 74 76 76 81 81 79 83 84 81 84
43 45 54 60 60 60 58 57 56 57 57 53 53 52 53 48 48 46 45 47 50 52 59 62 66 67 73 76 74 74 75 78 81 80 82 82 83 85 84 85 86 88 91
38 37 46 50 53 61 64 63 59 62 62 61 60 58 58 56 55 53 54 54 55 59 65 67 68 71 72 75 75 77 80 81 83 85 88 90 91 93 93 93 94 94 96
42 38 37 37 40 45 54 61 61 67 70 69 70 67 68 64 65 63 63 65 66 65 66 70 74 72 72 75 78 79 81 84 87 88 90 92 92 94 96 97 99 99 101
48 48 50 50 49 48 49 50 54 64 70 74 75 75 77 76 72 76 77 74 73 74 75 76 75 79 83 84 86 86 88 89 89 92 93 95 95 96 99 100 100 101 103
54 54 52 53 54 58 58 55 55 55 56 62 70 77 81 82 85 84 84 81 83 83 82 81 81 87 89 90 91 94 98 97 97 99 100 102 104 105 103 103 105 107 108
47 49 53 59 60 61 61 60 60 58 57 59 64 64 66 72 77 80 87 91 89 92 95 91 91 91 93 94 97 98 98 102 106 107 107 106 107 108 108 108 109 110 111
54 56 54 56 59 60 64 68 71 72 72 69 68 71 71 69 71 73 76 81 88 92 93 96 94 93 97 100 101 102 104 110 113 114 114 115 115 115 116 118 120 119 119
57 54 53 57 59 59 54 56 59 63 69 75 80 83 82 81 79 81 82 82 85 90 92 97 102 102 103 106 110 111 114 117 117 118 121 123 124 127 128 127 126 127 129